MPMG - Transparência

Contra-cheque - Remuneração de todos os servidores ativos - Pós Resolução CNMP 200/2019

Período: 2020 - Junho

Ordem Matrícula Nome Cargo Efetivo Lotação Rendimentos Descontos Rendimento Líquido Total *14 Data de Referência
Remuneração básica Remuneração eventual ou Temporária Outras Remunerações Temporárias *7 Verbas Indenizatórias *8 Total de Rendimentos Brutos *9 Obrigatórios Legais Outros Descontos Eventuais Total de descontos *13
Remuneração do Cargo Efetivo *1 Outras Verbas Remuneratórias *2 Função de Confiança ou Cargo em Comissão *3 Gratificação Natalina *4 Férias 1/3 Constitucional *5 Abono de Permanência *6 Contribuição Previdenciária *10 Imposto de Renda *11 Retenção por Teto Constitucional *12
1 498900 ABDON MARCIO BARBOSA DA SILVA OFICIAL DO MP ABRE CAMPO - COMARCA; ABRE CAMPO-PJ-01PJ 5.562,64 556,26 0,00 3.059,45 0,00 0,00 0,00 1.550,00 10.728,35 673,08 523,97 0,00 0,00 1.197,05 9.531,30 30/06/2020
2 177800 ADALBERTO MENEZES FARIA SAMORA OFICIAL DO MP BELO HORIZONTE - COMARCA; DIR ESTRUTURA E PROCESSOS ORGANIZACIONAIS 14.790,66 5.916,26 0,00 10.353,46 0,00 0,00 0,00 1.550,00 32.610,38 2.277,76 4.094,38 0,00 0,00 6.372,14 26.238,24 30/06/2020
3 306400 ADALBERTO MOREIRA GONCALVES ANALISTA DO MP BELO HORIZONTE - COMARCA; BH-24PJ JUIZO REG BARREIRO-SECRETARIA 15.272,02 4.581,61 0,00 9.926,82 0,00 0,00 0,00 1.550,00 31.330,45 2.183,90 3.989,82 0,00 0,00 6.173,72 25.156,73 30/06/2020
4 179300 ADENISE AUXILIADORA SOUZA SAD OFICIAL DO MP BARBACENA - COMARCA; BARBACENA-PJ-06PJ 14.324,23 5.729,69 0,00 6.956,71 0,00 0,00 0,00 1.550,00 28.560,63 2.205,93 3.934,56 0,00 0,00 6.140,49 22.420,14 30/06/2020
5 272200 ADILSON BATISTA ORNELAS OFICIAL DO MP LAVRAS - COMARCA; LAVRAS-PJ-SECRETARIA 5.136,32 1.027,26 0,00 3.081,79 0,00 0,00 0,00 1.550,00 10.795,37 677,99 587,04 0,00 0,00 1.265,03 9.530,34 30/06/2020
6 380100 ADILSON GONCALVES DE MELO JUNIOR ANALISTA DO MP ARAXÁ - COMARCA; ARAXA-PJ-05PJ 10.397,52 2.079,50 0,00 6.238,51 0,00 0,00 0,00 2.319,39 21.034,92 1.372,47 2.080,12 0,00 0,00 3.452,59 17.582,33 30/06/2020
7 148800 ADILSON JANUARIO OFICIAL DO MP BELO HORIZONTE - COMARCA; BH-22PJ PES COM DEF E IDOSOS-SECRETARIA 16.750,82 11.725,57 0,00 14.238,20 0,00 0,00 0,00 1.550,00 44.264,59 3.132,40 6.048,10 0,00 0,00 9.180,50 35.084,09 30/06/2020
8 322601 ADMILSON SILVEIRA ANALISTA DO MP SAO JOAO DO PARAISO COMARCA; SAO JOAO DO PARAISO-PJ-UNPJ 8.858,43 885,84 0,00 4.872,14 0,00 0,00 0,00 1.550,00 16.166,41 1.071,87 1.515,55 0,00 0,00 2.587,42 13.578,99 30/06/2020
9 333700 ADRIANA ABRITTA TEIXEIRA OFICIAL DO MP BELO HORIZONTE - COMARCA; DIRET DE PESSOAL DO MINISTERIO PUBLICO - DPMP 10.069,62 3.020,89 0,00 6.545,26 0,00 0,00 0,00 1.550,00 21.185,77 1.439,96 2.334,54 0,00 0,00 3.774,50 17.411,27 30/06/2020
10 468500 ADRIANA APARECIDA FIRMINO ANALISTA DO MP CARATINGA - COMARCA; CARATINGA-PJ-04PJ 10.069,62 1.006,96 0,00 5.538,29 0,00 0,00 0,00 2.319,39 18.934,26 1.218,42 1.789,50 0,00 0,00 3.007,92 15.926,34 30/06/2020
11 326100 ADRIANA AUGUSTA AMARAL BELO OFICIAL DO MP BARBACENA - COMARCA; BARBACENA-PJ-08PJ 10.069,62 3.020,89 0,00 6.545,26 0,00 0,00 0,00 1.550,00 21.185,77 1.439,96 2.230,27 0,00 0,00 3.670,23 17.515,54 30/06/2020
12 605700 ADRIANA COSTA LIRA ASSESSOR/OFICIAL BELO HORIZONTE - COMARCA; COORD ESTADUAL DE DEFESA DA EDUCACAO 0,00 817,05 8.170,49 4.493,77 0,00 0,00 0,00 1.550,00 15.031,31 672,40 1.417,30 0,00 0,00 2.089,70 12.941,61 30/06/2020
13 541100 ADRIANA CRISTINA DE OLIVEIRA OFICIAL DO MP GUAPÉ - COMARCA; GUAPE-PJ-UNPJ 4.974,42 497,44 0,00 0,00 0,00 0,00 0,00 2.319,39 7.791,25 601,90 417,74 0,00 0,00 1.019,64 6.771,61 30/06/2020
14 254800 ADRIANA DAS GRACAS FERNANDES ANALISTA DO MP UBERABA - COMARCA; UBERABA-PJ-07PJ 17.413,92 12.189,74 0,00 14.801,83 0,00 0,00 0,00 1.550,00 45.955,49 3.256,40 6.324,00 0,00 0,00 9.580,40 36.375,09 30/06/2020
15 217400 ADRIANA DE CARVALHO CATAO BRAGA ASSESSOR BELO HORIZONTE - COMARCA; DIV FISCAL ADM CONT TERCEIRIZACAO 0,00 3.268,20 8.170,49 5.719,35 0,00 0,00 0,00 1.550,00 18.708,04 713,09 2.382,68 0,00 0,00 3.095,77 15.612,27 30/06/2020
16 434600 ADRIANA FERREIRA DA SILVA ANALISTA DO MP BELO HORIZONTE - COMARCA; BH-14PJ DEFESA CONSUMIDOR-GAB 112PJ 12.204,02 2.440,80 0,00 7.322,41 0,00 0,00 0,00 1.550,00 23.517,23 1.610,93 2.714,96 0,00 0,00 4.325,89 19.191,34 30/06/2020
17 499800 ADRIANA FERREIRA TIAGO OFICIAL DO MP SALINAS - COMARCA; SALINAS-PJ-02PJ 6.741,63 674,16 0,00 3.707,90 0,00 0,00 0,00 1.550,00 12.673,69 815,74 945,65 0,00 0,00 1.761,39 10.912,30 30/06/2020
18 543400 ADRIANA GUIMARAES NUNES DE PAULA ANALISTA DO MP PATROCÍNIO - COMARCA; PATROCINIO-PJ-01PJ 8.436,53 843,65 0,00 4.640,09 0,00 0,00 0,00 1.550,00 15.470,27 1.020,82 1.401,96 0,00 0,00 2.422,78 13.047,49 30/06/2020
19 471500 ADRIANA HORTA DE CARVALHO RODRIGUES DE SOUSA ANALISTA DO MP BELO HORIZONTE - COMARCA; GRUPO ESP PROM JUST DEF PROB ADM PAT PUB 10.069,62 1.006,96 0,00 0,00 0,00 0,00 0,00 1.550,00 12.626,58 1.218,42 1.789,50 0,00 0,00 3.007,92 9.618,66 30/06/2020
20 86400 ADRIANA MOREIRA CALDEIRA BRANT OFICIAL DO MP BELO HORIZONTE - COMARCA; BH-21PJ TUTELA FUNDACOES-SECRETARIA 14.790,66 10.353,47 0,00 12.572,07 0,00 2.977,61 0,00 1.550,00 42.243,81 2.765,85 6.045,28 0,00 0,00 8.811,13 33.432,68 30/06/2020
21 480700 ADRIANA MOREIRA DE AVELLAR CEZILIO OFICIAL DO MP BELO HORIZONTE - COMARCA; BH-18PJ VIOLENCIA DOMESTICA-SECRETARIA 6.123,79 612,38 0,00 2.660,08 0,00 0,00 0,00 1.550,00 10.946,25 740,98 675,04 0,00 0,00 1.416,02 9.530,23 30/06/2020
22 326000 ADRIANA PEREIRA CARNEIRO RESENDE OFICIAL DO MP BELO HORIZONTE - COMARCA; BH-25PJ DEFESA DA EDUCACAO-SECRETARIA 9.444,70 2.833,41 0,00 6.139,06 0,00 0,00 0,00 1.550,00 19.967,17 1.350,59 2.135,71 0,00 0,00 3.486,30 16.480,87 30/06/2020
23 502200 ADRIANA PETRUCCI DAVINA OFICIAL DO MP PATROCÍNIO - COMARCA; PATROCINIO-PJ-01PJ 7.421,79 742,18 0,00 4.081,99 0,00 0,00 0,00 2.319,39 14.565,35 898,04 1.128,77 0,00 0,00 2.026,81 12.538,54 30/06/2020
24 201900 ADRIANA REIS PIMENTA OFICIAL DO MP TEÓFILO OTONI - COMARCA; TEOFILO OTONI-PJ-03PJ 14.324,23 5.729,69 0,00 10.026,96 0,00 0,00 0,00 1.550,00 31.630,88 2.205,93 4.038,84 0,00 0,00 6.244,77 25.386,11 30/06/2020
25 278700 ADRIANA RODRIGUES PINTO COELHO AMARAL ANALISTA DO MP BELO HORIZONTE - COMARCA; ASSESS TECNICA DA CORREGEDORIA-GERAL DO MP 16.750,82 5.025,25 0,00 10.888,04 0,00 0,00 0,00 1.550,00 34.214,11 2.395,37 4.408,20 0,00 0,00 6.803,57 27.410,54 30/06/2020
26 468000 ADRIANA SANTOS DE SANTANA MOREIRA ANALISTA DO MP ARAÇUAÍ - COMARCA; ARACUAI-PJ-02PJ 10.069,62 4.027,85 0,00 7.048,74 0,00 0,00 0,00 1.550,00 22.696,21 1.550,72 2.476,72 0,00 0,00 4.027,44 18.668,77 30/06/2020
27 194700 ADRIANA TSUKIDE OFICIAL DO MP UBERABA - COMARCA; COORD REG BACIAS PARANAIBA BAIXO RIO GRANDE 14.324,23 5.729,69 0,00 0,00 0,00 0,00 0,00 1.550,00 21.603,92 2.205,93 3.986,70 0,00 0,00 6.192,63 15.411,29 30/06/2020
28 465500 ADRIANO CASSIANO MATOS ANALISTA DO MP ARAXÁ - COMARCA; ARAXA-PJ-02PJ 10.069,62 1.006,96 0,00 5.538,29 0,00 0,00 0,00 1.550,00 18.164,87 1.218,42 1.841,63 0,00 0,00 3.060,05 15.104,82 30/06/2020
29 500500 ADRIANO DE ALMEIDA SILVA OFICIAL DO MP UBERABA - COMARCA; UBERABA-PJ-12PJ 7.421,79 742,18 0,00 0,00 0,00 0,00 0,00 2.319,39 10.483,36 898,04 706,84 0,00 0,00 1.604,88 8.878,48 30/06/2020
30 187200 ADRIANO DE FREITAS MARON OFICIAL DO MP PONTE NOVA - COMARCA; PONTE NOVA-PJ-03PJ 12.204,02 10.983,62 0,00 11.593,82 0,00 2.880,92 0,00 1.550,00 39.212,38 2.550,64 5.507,24 0,00 0,00 8.057,88 31.154,50 30/06/2020
31 477900 ADRIANO FERREIRA DE ALMEIDA OFICIAL DO MP TAIOBEIRAS - COMARCA; TAIOBEIRAS-PJ-UNPJ 7.421,79 742,18 0,00 4.081,99 0,00 0,00 0,00 2.175,82 14.421,78 898,04 1.024,50 0,00 0,00 1.922,54 12.499,24 30/06/2020
32 269101 ADRIANO PEREIRA SILVA ANALISTA DO MP UBERABA - COMARCA; UBERABA-PJ-02PJ 10.069,62 1.006,96 0,00 5.538,29 0,00 0,00 0,00 2.319,39 18.934,26 1.218,42 1.685,22 0,00 0,00 2.903,64 16.030,62 30/06/2020
33 414200 ADRIANO RODRIGUES FERNANDES ANALISTA DO MP CARANDAÍ - COMARCA; CARANDAI-PJ-UNPJ 10.069,62 2.013,92 0,00 6.041,77 0,00 0,00 0,00 1.550,00 19.675,31 1.329,19 1.983,81 0,00 0,00 3.313,00 16.362,31 30/06/2020
34 536700 ADRIELLE COSTA MARIA MOURAO FIGUEIREDO OFICIAL DO MP SERRO - COMARCA; SERRO-PJ-SECRETARIA 4.974,42 497,44 0,00 2.200,04 0,00 0,00 0,00 2.319,39 9.991,29 601,90 469,88 0,00 0,00 1.071,78 8.919,51 30/06/2020
35 514300 ADRIENE DAMASCENO BRAGA ANALISTA DO MP ALFENAS - COMARCA; ALFENAS-PJ-03PJ 10.069,62 1.006,96 0,00 5.538,29 0,00 0,00 0,00 2.319,39 18.934,26 1.218,42 1.841,63 0,00 0,00 3.060,05 15.874,21 30/06/2020
36 254600 ADRIENE DOMINGUES COSTA ANALISTA DO MP BELO HORIZONTE - COMARCA; SUPERINTENDENCIA DE RECURSOS HUMANOS 16.112,82 4.833,85 0,00 10.473,34 0,00 0,00 0,00 0,00 31.420,01 2.304,13 4.257,34 0,00 0,00 6.561,47 24.858,54 30/06/2020
37 252001 ADRIENE GOMES BARRETO ANALISTA DO MP BELO HORIZONTE - COMARCA; BH-19PJ SAUDE-SECRETARIA 150PJ 13.011,52 5.204,61 0,00 9.108,07 0,00 0,00 0,00 1.550,00 28.874,20 2.003,77 3.589,04 0,00 0,00 5.592,81 23.281,39 30/06/2020
38 645000 AFONSO CELSO GUIMARAES JUNIOR OFICIAL DO MP PIRAPORA - COMARCA; PIRAPORA-PJ-01PJ 4.238,09 254,29 0,00 2.246,19 0,00 0,00 0,00 1.550,00 8.288,57 494,16 263,47 0,00 0,00 757,63 7.530,94 30/06/2020
39 302500 AGENOR JOSE DA SILVA JUNIOR ANALISTA DO MP JUIZ DE FORA - COMARCA; JUIZ DE FORA-PJ-14PJ 15.272,02 4.581,61 0,00 9.926,82 0,00 0,00 0,00 1.550,00 31.330,45 2.183,90 3.885,54 0,00 0,00 6.069,44 25.261,01 30/06/2020
40 357500 AILSON WAGNER DE ALENCAR SILVA OFICIAL DO MP BELO HORIZONTE - COMARCA; BH-12PJ JUIZO CRIMINAL-SECRETARIA 9.146,93 3.658,77 0,00 4.644,32 0,00 0,00 0,00 1.550,00 19.000,02 1.408,63 2.108,42 0,00 0,00 3.517,05 15.482,97 30/06/2020
41 366400 AILTON ALEXSSANDRO ALVES OFICIAL DO MP PARÁ DE MINAS - COMARCA; PARA DE MINAS-PJ-05PJ 8.579,10 3.431,64 0,00 0,00 0,00 0,00 0,00 1.550,00 13.560,74 1.321,18 2.070,27 0,00 0,00 3.391,45 10.169,29 30/06/2020
42 318900 AILTON DE CASTRO RIBEIRO JUNIOR OFICIAL DO MP ITAJUBA - COMARCA; ITAJUBA-PJ-01PJ 9.444,70 2.833,41 0,00 4.500,18 0,00 0,00 0,00 2.319,39 19.097,68 1.350,59 1.927,16 0,00 0,00 3.277,75 15.819,93 30/06/2020
43 464400 ALAN MONTEIRO GASPAR ANALISTA DO MP SETE LAGOAS - COMARCA; SETE LAGOAS-PJ-03PJ 10.069,62 1.006,96 0,00 4.008,26 0,00 0,00 0,00 1.550,00 16.634,84 1.218,42 1.841,63 0,00 0,00 3.060,05 13.574,79 30/06/2020
44 670200 ALANA ARAUJO AGUIAR ASSESSOR BELO HORIZONTE - COMARCA; ASSESS EXECUTIVA DO CONSELHO SUPERIOR DO MP 0,00 0,00 3.076,28 1.538,14 0,00 0,00 0,00 1.550,00 6.164,42 443,62 205,10 0,00 0,00 648,72 5.515,70 30/06/2020
45 492000 ALANA DE CASTRO FREITAS OFICIAL DO MP ITUMIRIM - COMARCA; ITUMIRIM-PJ-SECRETARIA 6.123,79 612,38 0,00 0,00 0,00 0,00 0,00 1.550,00 8.286,17 740,98 779,32 0,00 0,00 1.520,30 6.765,87 30/06/2020
46 306700 ALANA MARCIA DE OLIVEIRA OFICIAL DO MP BELO HORIZONTE - COMARCA; DIRETORIA DE ADMINISTRACAO FINANCEIRA 9.444,70 2.833,41 0,00 6.139,06 0,00 0,00 0,00 1.550,00 19.967,17 1.350,59 2.135,71 0,00 0,00 3.486,30 16.480,87 30/06/2020
47 324500 ALANMAR COUTINHO COSTA OFICIAL DO MP LEOPOLDINA - COMARCA; LEOPOLDINA-PJ-02PJ 9.146,93 2.744,08 0,00 5.945,51 0,00 0,00 0,00 1.550,00 19.386,52 1.308,01 1.936,69 0,00 0,00 3.244,70 16.141,82 30/06/2020
48 407300 ALBERTO LUIZ SOARES DE OLIVEIRA ANALISTA DO MP BELO HORIZONTE - COMARCA; DIRETORIA DE PROJETOS DE EDIFICACOES 12.204,02 2.440,80 0,00 7.322,41 0,00 0,00 0,00 1.550,00 23.517,23 1.610,93 2.714,96 0,00 0,00 4.325,89 19.191,34 30/06/2020
49 118200 ALBERTO PEREIRA DA COSTA OFICIAL DO MP DORES DO INDAIÁ - COMARCA; DORES DO INDAIA-PJ-UNPJ 15.272,02 13.744,82 0,00 14.508,42 0,00 3.441,78 0,00 1.550,00 48.517,04 3.191,85 7.006,00 0,00 0,00 10.197,85 38.319,19 30/06/2020
50 282400 ALCILENE MARISE DE ARAUJO ANALISTA DO MP BELO HORIZONTE - COMARCA; BH-23PJ INF-FISC MED SOC FEC 16.750,82 5.025,25 0,00 10.888,04 0,00 0,00 0,00 1.550,00 34.214,11 2.395,37 4.356,06 0,00 0,00 6.751,43 27.462,68 30/06/2020
51 112600 ALCIONE DA MOTA JARDIM OFICIAL DO MP BELO HORIZONTE - COMARCA; CAO-CRIANCAS E ADOLESCENTES-SECRETARIA 12.601,30 8.820,91 0,00 10.711,11 0,00 0,00 0,00 1.550,00 33.683,32 2.356,44 4.321,59 0,00 0,00 6.678,03 27.005,29 30/06/2020
52 396400 ALCIONE DE FREITAS E SILVA ANALISTA DO MP BELO HORIZONTE - COMARCA; ASSESS JUR DO CONS SUPERIOR DO MINISTERIO PUB 13.011,52 5.204,61 0,00 6.311,66 0,00 0,00 0,00 1.550,00 26.077,79 2.003,77 3.589,04 0,00 0,00 5.592,81 20.484,98 30/06/2020
53 657400 ALCIONE MARIA FERREIRA ASSESSOR BELO HORIZONTE - COMARCA; PROC JUST RECURSOS ESP E EXTRAORD CRIMINAIS 0,00 0,00 10.397,52 5.198,76 0,00 0,00 0,00 1.550,00 17.146,28 713,09 2.096,36 0,00 0,00 2.809,45 14.336,83 30/06/2020
54 161600 ALCIONE NERY SOUZA ASSESSOR BELO HORIZONTE - COMARCA; BH-18PJ DIREITOS HUMANOS-SECRETARIA 0,00 4.085,25 8.170,49 6.127,87 0,00 0,00 0,00 1.550,00 19.933,61 713,09 2.607,37 0,00 0,00 3.320,46 16.613,15 30/06/2020
55 376000 ALDA GOMES LANA OFICIAL DO MP BELO HORIZONTE - COMARCA; BH-18PJ VIOLENCIA DOMESTICA-SECRETARIA 8.579,10 1.715,82 0,00 5.147,46 0,00 0,00 0,00 1.550,00 16.992,38 1.132,44 1.598,18 0,00 0,00 2.730,62 14.261,76 30/06/2020
56 148000 ALDA MARTINS SIMOES OFICIAL DO MP BELO HORIZONTE - COMARCA; BH-23PJ CIVEL- FISC ENT AB POL 16.750,82 8.375,41 0,00 12.563,12 0,00 0,00 368,52 5.570,20 43.628,07 2.763,89 5.280,28 0,00 0,00 8.044,17 35.583,90 30/06/2020
57 318400 ALDO CREPALDI JUNIOR OFICIAL DO MP BELO HORIZONTE - COMARCA; DIVISAO DE MATERIAIS 9.444,70 2.833,41 0,00 4.421,97 0,00 0,00 0,00 1.550,00 18.250,08 1.350,59 2.083,57 0,00 0,00 3.434,16 14.815,92 30/06/2020
58 604500 ALENIZE APARECIDA RODRIGUES HENRIQUE OFICIAL DO MP RIO NOVO - COMARCA; RIO NOVO-PJ-UNPJ 4.974,42 497,44 0,00 2.200,04 0,00 0,00 0,00 1.550,00 9.221,90 601,90 469,88 0,00 0,00 1.071,78 8.150,12 30/06/2020
59 197900 ALESSA DE SOUSA E SILVA OFICIAL DO MP OLIVEIRA - COMARCA; OLIVEIRA-PJ-02PJ 14.790,66 5.916,26 0,00 10.353,46 0,00 0,00 0,00 1.550,00 32.610,38 2.277,76 4.094,38 0,00 0,00 6.372,14 26.238,24 30/06/2020
60 428500 ALESSANDRA ALVES DINIZ OFICIAL DO MP BELO HORIZONTE - COMARCA; CENTRAL DE APOIO TECNICO-SECRETARIA 5.743,70 2.871,85 0,00 0,00 0,00 0,00 0,00 1.550,00 10.165,55 947,71 1.239,30 0,00 0,00 2.187,01 7.978,54 30/06/2020
61 286801 ALESSANDRA BOTELHO JUNQUEIRA DE MENEZES ANALISTA DO MP PASSOS - COMARCA; PASSOS-PJ-05PJ 12.601,30 5.040,52 0,00 8.820,91 0,00 0,00 0,00 3.088,78 29.551,51 1.940,60 3.239,93 0,00 0,00 5.180,53 24.370,98 30/06/2020
62 307000 ALESSANDRA CRISTINA SANTOS MENDES ANALISTA DO MP BELO HORIZONTE - COMARCA; BH-18PJ VIOLENCIA DOMESTICA-SECRETARIA 11.819,15 3.545,75 0,00 5.417,85 0,00 0,00 0,00 1.550,00 22.332,75 1.690,14 2.839,06 0,00 0,00 4.529,20 17.803,55 30/06/2020
63 264400 ALESSANDRA DE SOUZA SANTOS ANALISTA DO MP BELO HORIZONTE - COMARCA; OUVIDORIA DO MPMG 17.413,92 6.965,57 0,00 12.189,75 0,00 0,00 0,00 1.550,00 38.119,24 2.681,74 5.097,52 0,00 0,00 7.779,26 30.339,98 30/06/2020
64 441500 ALESSANDRA DRUMMOND DE FIGUEIREDO ROSSI ANALISTA DO MP BELO HORIZONTE - COMARCA; DIRETORIA DE PROJETOS DE EDIFICACOES 10.069,62 2.013,92 0,00 6.041,77 0,00 0,00 0,00 1.550,00 19.675,31 1.329,19 2.088,09 0,00 0,00 3.417,28 16.258,03 30/06/2020
65 524000 ALESSANDRA LUCIOLI DE BARROS GUERRA ANALISTA DO MP BELO HORIZONTE - COMARCA; BH-19PJ SAUDE--SECRETARIA 10.069,62 1.006,96 0,00 5.538,29 0,00 0,00 0,00 1.550,00 18.164,87 1.218,42 1.685,22 0,00 0,00 2.903,64 15.261,23 30/06/2020
66 479900 ALESSANDRA MARA ANDRADE DE FARIA OFICIAL DO MP UBERABA - COMARCA; UBERABA-PJ-09PJ 7.421,79 742,18 0,00 0,00 0,00 0,00 0,00 1.550,00 9.713,97 898,04 1.128,77 0,00 0,00 2.026,81 7.687,16 30/06/2020
67 226700 ALESSANDRA MARA VASCONCELOS REZENDE OFICIAL DO MP CONSELHEIRO LAFAIETE - COMARCA; CONSELHEIRO LAFAIETE-PJ-07PJ 10.069,62 3.020,89 0,00 6.545,26 0,00 0,00 0,00 1.550,00 21.185,77 1.439,96 2.334,54 0,00 0,00 3.774,50 17.411,27 30/06/2020
68 112100 ALESSANDRA MARCIA FERREIRA OFICIAL DO MP BELO HORIZONTE - COMARCA; BELO HORIZONTE- SECRETARIA DAS PROMOTORIAS 10.069,62 7.048,73 0,00 8.559,18 0,00 0,00 0,00 1.550,00 27.227,53 1.883,02 3.320,36 0,00 0,00 5.203,38 22.024,15 30/06/2020
69 196500 ALESSANDRA MARIA RIBEIRO LUCIANO OFICIAL DO MP RIO PARANAÍBA - COMARCA; RIO PARANAIBA-PJ-UNPJ 14.790,66 5.916,26 0,00 10.353,46 0,00 0,00 0,00 1.550,00 32.610,38 2.277,76 4.094,38 0,00 0,00 6.372,14 26.238,24 30/06/2020
70 91400 ALESSANDRA MENDES VASCONCELOS DE SOUZA OFICIAL DO MP BELO HORIZONTE - COMARCA; BH-23PJ INF-FISC MED SOC AB 18.820,14 13.174,10 0,00 15.997,12 0,00 3.702,63 0,00 1.550,00 53.243,99 3.519,37 7.929,06 0,00 0,00 11.448,43 41.795,56 30/06/2020
71 651700 ALESSANDRA PROFIRIO SOUZA OFICIAL DO MP NOVA ERA - COMARCA; NOVA ERA-PJ-UNPJ 4.238,09 254,29 0,00 2.246,19 0,00 0,00 0,00 1.550,00 8.288,57 494,16 220,81 0,00 0,00 714,97 7.573,60 30/06/2020
72 384900 ALESSANDRA RODRIGUES ANALISTA DO MP VISCONDE DO RIO BRANCO - COMARCA; VISCONDE DO RIO BRANCO-PJ-03PJ 13.011,52 2.602,30 0,00 7.806,91 0,00 0,00 0,00 3.550,41 26.971,14 1.717,52 2.847,85 0,00 0,00 4.565,37 22.405,77 30/06/2020
73 390000 ALESSANDRA SPADANO MASSARA VASCONCELOS OFICIAL DO MP BETIM - COMARCA; BETIM-PJ-10PJ 8.579,10 1.715,82 0,00 5.147,46 0,00 0,00 0,00 1.550,00 16.992,38 1.132,44 1.650,32 0,00 0,00 2.782,76 14.209,62 30/06/2020
74 426500 ALESSANDRO CAMPOS DE PAIVA ANALISTA DO MP BELO HORIZONTE - COMARCA; CENTRO PUBLICIDADE E DESIGN GRAFICO 12.601,30 2.520,26 0,00 7.560,78 0,00 0,00 0,00 1.550,00 24.232,34 1.663,37 2.831,64 0,00 0,00 4.495,01 19.737,33 30/06/2020
75 623400 ALESSANDRO DE OLIVEIRA REZENDE ANALISTA DO MP BELO HORIZONTE - COMARCA; DIRET DE INFORMACAO E CONHECIMENTO-DINC/CEAF 8.170,49 817,05 0,00 4.493,77 0,00 0,00 0,00 1.550,00 15.031,31 988,63 1.220,86 0,00 0,00 2.209,49 12.821,82 30/06/2020
76 420600 ALESSANDRO SILVA OFICIAL DO MP VISCONDE DO RIO BRANCO - COMARCA; VISCONDE DO RIO BRANCO-PJ-02PJ 8.170,49 2.451,15 0,00 5.310,82 0,00 0,00 0,00 1.550,00 17.482,46 1.168,38 1.108,61 0,00 0,00 2.276,99 15.205,47 30/06/2020
77 375301 ALETHEIA PATRICIA ASSIS MORAIS MOREIRA ANALISTA DO MP ITABIRA - COMARCA; ITABIRA-PJ-02PJ 9.146,93 914,69 0,00 0,00 0,00 0,00 0,00 3.088,78 13.150,40 1.106,78 1.541,08 0,00 0,00 2.647,86 10.502,54 30/06/2020
78 382300 ALEX CARVALHO LIMA ANALISTA DO MP UBERLÂNDIA - COMARCA; UBERLANDIA-PJ-14PJ 13.011,52 2.602,30 0,00 0,00 0,00 0,00 0,00 1.550,00 17.163,82 1.717,52 2.952,12 0,00 0,00 4.669,64 12.494,18 30/06/2020
79 195201 ALEX DE CASTRO PEREIRA ANALISTA DO MP UBERABA - COMARCA; UBERABA-PJ-09PJ 16.750,82 6.700,33 0,00 11.725,58 0,00 0,00 0,00 1.550,00 36.726,73 2.579,63 4.870,31 0,00 0,00 7.449,94 29.276,79 30/06/2020
80 358900 ALEX DE PAULA LANZA ASSESSOR BELO HORIZONTE - COMARCA; CENTRO JORNALISMO 0,00 0,00 10.397,52 5.198,76 0,00 0,00 0,00 2.319,39 17.915,67 713,09 2.096,36 0,00 0,00 2.809,45 15.106,22 30/06/2020
81 178400 ALEX RODRIGO SALDANHA GUIMARAES OFICIAL DO MP BELO HORIZONTE - COMARCA; DIRETORIA DE SISTEMAS DE INFORMACAO 6.123,79 2.449,52 0,00 4.286,66 0,00 0,00 0,00 1.550,00 14.409,97 943,06 1.228,96 0,00 0,00 2.172,02 12.237,95 30/06/2020
82 413500 ALEX VILELA OLIVEIRA ANALISTA DO MP GOVERNADOR VALADARES - COMARCA; COORD REG PJ DEF EDU DIR CRIANCA ADOL RIODOCE 12.601,30 2.520,26 0,00 0,00 0,00 0,00 0,00 1.550,00 16.671,56 1.663,37 2.831,64 0,00 0,00 4.495,01 12.176,55 30/06/2020
83 264300 ALEXANDRA FATIMA SARAIVA SOARES ANALISTA DO MP BELO HORIZONTE - COMARCA; CENTRAL DE APOIO TECN-SETOR DE MEIO AMBIENTE 17.413,92 5.224,18 0,00 11.319,05 0,00 0,00 0,00 1.550,00 35.507,15 2.490,19 4.671,32 0,00 0,00 7.161,51 28.345,64 30/06/2020
84 488000 ALEXANDRA LARA PAIS DE CARVALHO ANALISTA DO MP SERRO - COMARCA; SERRO-PJ-UNPJ 9.444,70 944,47 0,00 0,00 3.463,06 0,00 0,00 1.832,11 15.684,34 1.142,81 2.469,32 0,00 0,00 3.612,13 12.072,21 30/06/2020
85 256300 ALEXANDRA SANTOS GOMES OFICIAL DO MP BELO HORIZONTE - COMARCA; DIRETORIA GESTAO COMPRAS LICITACOES 9.146,93 2.744,08 0,00 5.945,51 3.963,67 0,00 0,00 1.550,00 23.350,19 1.308,01 3.130,97 0,00 0,00 4.438,98 18.911,21 30/06/2020
86 403300 ALEXANDRE AUGUSTO RODRIGUES ANALISTA DO MP ÁGUAS FORMOSAS - COMARCA; AGUAS FORMOSAS-PJ-UNPJ 10.069,62 2.013,92 0,00 6.041,77 0,00 0,00 0,00 2.319,39 20.444,70 1.329,19 2.088,09 0,00 0,00 3.417,28 17.027,42 30/06/2020
87 640900 ALEXANDRE BARBOSA MASCARENHAS ANALISTA DO MP BETIM - COMARCA; BETIM-PJ-02PJ 6.123,79 367,43 0,00 3.245,61 0,00 0,00 0,00 1.550,00 11.286,83 671,12 368,39 0,00 0,00 1.039,51 10.247,32 30/06/2020
88 311700 ALEXANDRE BARCELOS RESENDE OFICIAL DO MP BELO HORIZONTE - COMARCA; BH-19PJ SAUDE-SECRETARIA 047PJ 7.663,37 1.532,67 0,00 4.598,02 0,00 0,00 0,00 2.319,39 16.113,45 1.011,56 1.381,37 0,00 0,00 2.392,93 13.720,52 30/06/2020
89 285600 ALEXANDRE CAMPOS DE OLIVEIRA OFICIAL DO MP UBERABA - COMARCA; COORD REG BACIAS PARANAIBA BAIXO RIO GRANDE 10.069,62 3.020,89 0,00 6.545,26 0,00 0,00 0,00 1.550,00 21.185,77 1.439,96 2.178,13 0,00 0,00 3.618,09 17.567,68 30/06/2020
90 509200 ALEXANDRE CAPUANO DE REZENDE ANALISTA DO MP BELO HORIZONTE - COMARCA; GABINETE DE PROCURADOR DE JUSTIÇA - SALA 715 10.069,62 1.006,96 0,00 5.538,29 0,00 0,00 0,00 1.550,00 18.164,87 1.218,42 1.789,50 0,00 0,00 3.007,92 15.156,95 30/06/2020
91 229400 ALEXANDRE CARLOS BOTREL DIRETOR/OFICIAL BELO HORIZONTE - COMARCA; SUPERINTENDENCIA DOS ORGAOS COLEGIADOS 0,00 5.224,18 17.413,92 11.319,05 0,00 0,00 0,00 1.550,00 35.507,15 1.858,80 4.842,70 0,00 0,00 6.701,50 28.805,65 30/06/2020
92 411900 ALEXANDRE CARVALHO SANTOS RIBEIRO ANALISTA DO MP OLIVEIRA - COMARCA; OLIVEIRA-PJ-02PJ 12.601,30 2.520,26 0,00 7.560,78 0,00 0,00 0,00 3.088,78 25.771,12 1.663,37 2.831,64 0,00 0,00 4.495,01 21.276,11 30/06/2020
93 641600 ALEXANDRE DA SILVA ASSUNCAO OFICIAL DO MP BELO HORIZONTE - COMARCA; SERVICO MEDICO-DEPTO PERIC MEDICA SAUDE OCUP 4.376,03 262,56 0,00 2.319,30 0,00 0,00 0,00 1.550,00 8.507,89 510,24 292,75 0,00 0,00 802,99 7.704,90 30/06/2020
94 201200 ALEXANDRE DE ALENCAR CORDEIRO OFICIAL DO MP ÁGUAS FORMOSAS - COMARCA; AGUAS FORMOSAS-PJ-UNPJ 6.123,79 3.061,90 0,00 4.592,85 0,00 0,00 0,00 1.550,00 15.328,54 1.010,43 1.378,84 0,00 0,00 2.389,27 12.939,27 30/06/2020
95 288200 ALEXANDRE DE VASCONCELOS COSTA KER ANALISTA DO MP BELO HORIZONTE - COMARCA; BH-03PJ EMPRESARIAL-SECRETARIA 15.272,02 4.581,61 0,00 9.926,82 0,00 0,00 0,00 1.550,00 31.330,45 2.183,90 3.937,68 0,00 0,00 6.121,58 25.208,87 30/06/2020
96 445000 ALEXANDRE DIOGENES OLIVEIRA ANALISTA DO MP SALINAS - COMARCA; SALINAS-PJ-02PJ 10.069,62 2.013,92 0,00 6.041,77 0,00 0,00 0,00 2.319,39 20.444,70 1.329,19 2.088,09 0,00 0,00 3.417,28 17.027,42 30/06/2020
97 463400 ALEXANDRE LEAL WINKELSTROTER ANALISTA DO MP TEÓFILO OTONI - COMARCA; TEOFILO OTONI-PJ-04PJ 10.069,62 1.006,96 0,00 5.538,29 0,00 0,00 0,00 1.550,00 18.164,87 1.218,42 1.841,63 0,00 0,00 3.060,05 15.104,82 30/06/2020
98 615700 ALEXANDRE LUIZ DE CASTRO MACIEL ANALISTA DO MP IBIRITÉ - COMARCA; IBIRITE-PJ-02PJ 8.170,49 817,05 0,00 4.493,77 0,00 0,00 0,00 1.550,00 15.031,31 988,63 1.330,34 0,00 0,00 2.318,97 12.712,34 30/06/2020
99 356900 ALEXANDRE MOISES MENDONCA E ARAUJO OFICIAL DO MP UBERABA - COMARCA; UBERABA-PJ-13PJ 6.741,63 1.348,33 0,00 4.044,98 0,00 0,00 0,00 1.550,00 13.684,94 889,90 1.110,66 0,00 0,00 2.000,56 11.684,38 30/06/2020
100 633300 ALEXANDRE NONATO MARTINS OFICIAL DO MP IGARAPÉ - COMARCA; IGARAPE-PJ-02PJ 4.376,03 437,60 0,00 2.406,82 0,00 0,00 0,00 1.550,00 8.770,45 529,50 285,14 0,00 0,00 814,64 7.955,81 30/06/2020
101 469900 ALEXANDRE PEREIRA GUEDES ANALISTA DO MP CATAGUASES - COMARCA; CATAGUASES-PJ-03PJ 10.069,62 1.006,96 0,00 5.538,29 0,00 0,00 0,00 1.550,00 18.164,87 1.218,42 1.841,63 0,00 0,00 3.060,05 15.104,82 30/06/2020
102 208700 ALEXANDRE RESENDE FRAGA ANALISTA DO MP BELO HORIZONTE - COMARCA; BH-19PJ SAUDE-SECRETARIA 130PJ 18.820,14 7.528,06 0,00 13.174,10 0,00 0,00 0,00 1.550,00 41.072,30 2.898,30 5.422,95 0,00 0,00 8.321,25 32.751,05 30/06/2020
103 216401 ALEXANDRE RIBEIRO DE LIMA MAIORINO ANALISTA DO MP UBERABA - COMARCA; UBERABA-PJ-03PJ 15.272,02 6.108,81 0,00 10.690,42 0,00 0,00 0,00 1.550,00 33.621,25 2.351,89 4.311,46 0,00 0,00 6.663,35 26.957,90 30/06/2020
104 475100 ALEXANDRE TEOTONIO COSTA ANALISTA DO MP ARAGUARI - COMARCA; ARAGUARI-PJ-01PJ 10.069,62 1.006,96 0,00 5.538,29 0,00 0,00 0,00 1.550,00 18.164,87 1.218,42 1.737,36 0,00 0,00 2.955,78 15.209,09 30/06/2020
105 339000 ALEXANDRE VITOR CARDOSO OFICIAL DO MP BELO HORIZONTE - COMARCA; PROMOT ESTADUAL DE DEF PATRI CULT E TUR DE MG 6.123,79 1.224,76 0,00 3.674,28 0,00 0,00 0,00 1.550,00 12.572,83 808,34 772,79 0,00 0,00 1.581,13 10.991,70 30/06/2020
106 623100 ALEXSANDER BATISTA AGUIAR ANALISTA DO MP BELO HORIZONTE - COMARCA; DIRETORIA DE SUPORTE E MANUTENCAO 8.170,49 817,05 0,00 4.493,77 0,00 0,00 0,00 2.319,39 15.800,70 988,63 1.173,93 0,00 0,00 2.162,56 13.638,14 30/06/2020
107 513300 ALFSON MIRANDA BRAGA ANALISTA DO MP BELO HORIZONTE - COMARCA; BH-12PJ JUIZO CRIMINAL-GAB 092PJ 10.069,62 1.006,96 0,00 5.538,29 0,00 0,00 0,00 1.550,00 18.164,87 1.218,42 1.841,63 0,00 0,00 3.060,05 15.104,82 30/06/2020
108 618400 ALICE MAGALHAES MACEDO DE CARVALHO ANALISTA DO MP IPATINGA - COMARCA; IPATINGA-PJ-10PJ 8.170,49 817,05 0,00 4.493,77 2.995,85 0,00 0,00 2.319,39 18.796,55 988,63 2.154,20 0,00 0,00 3.142,83 15.653,72 30/06/2020
109 471000 ALICE TITONELI MOREIRA ANALISTA DO MP MIRADOURO - COMARCA; MIRADOURO-PJ-UNPJ 10.069,62 1.006,96 0,00 5.538,29 0,00 0,00 0,00 2.319,39 18.934,26 1.218,42 1.789,50 0,00 0,00 3.007,92 15.926,34 30/06/2020
110 622400 ALINE BALBINO PORTUGAL LOPES ANALISTA DO MP TRÊS PONTAS - COMARCA; TRES PONTAS-PJ-03PJ 8.170,49 817,05 0,00 4.493,77 0,00 0,00 0,00 2.319,39 15.800,70 988,63 1.330,34 0,00 0,00 2.318,97 13.481,73 30/06/2020
111 373000 ALINE BOTELHO RESENDE OFICIAL DO MP JUIZ DE FORA - COMARCA; JUIZ DE FORA-PJ-22PJ 8.436,53 1.687,31 0,00 5.061,92 0,00 0,00 0,00 1.550,00 16.735,76 1.113,62 1.608,45 0,00 0,00 2.722,07 14.013,69 30/06/2020
112 407700 ALINE CRISTINA RODRIGUES PEREIRA COORDENADOR/ANALISTA BELO HORIZONTE - COMARCA; DIRETORIA DE PROJETOS DE EDIFICACOES 0,00 2.687,03 13.435,16 8.061,10 0,00 0,00 0,00 2.319,39 26.502,68 1.329,19 3.198,72 0,00 0,00 4.527,91 21.974,77 30/06/2020
113 193100 ALINE CRISTINA SENA OLIVEIRA OFICIAL DO MP UBERLÂNDIA - COMARCA; UBERLANDIA-PJ-03PJ 14.324,23 5.729,69 0,00 10.026,96 0,00 0,00 0,00 2.319,39 32.400,27 2.205,93 3.986,70 0,00 0,00 6.192,63 26.207,64 30/06/2020
114 554200 ALINE CRISTINA SILVA SOUZA OFICIAL DO MP TIROS - COMARCA; TIROS-PJ-UNPJ 5.387,19 538,72 0,00 2.346,52 0,00 0,00 0,00 1.550,00 9.822,43 651,85 581,01 0,00 0,00 1.232,86 8.589,57 30/06/2020
115 505500 ALINE DA CUNHA MARREIROS OLIVEIRA ANALISTA DO MP CARANGOLA - COMARCA; CARANGOLA-PJ-03PJ 10.069,62 1.006,96 0,00 5.538,29 0,00 0,00 0,00 2.319,39 18.934,26 1.218,42 1.789,50 0,00 0,00 3.007,92 15.926,34 30/06/2020
116 433500 ALINE DE MELO QUEIROZ ASSESSOR/OFICIAL BELO HORIZONTE - COMARCA; ASSESSORIA TECNICA DO PROCON-MG 0,00 2.079,50 10.397,52 6.238,51 0,00 0,00 0,00 2.319,39 21.034,92 1.077,43 2.265,53 0,00 0,00 3.342,96 17.691,96 30/06/2020
117 542700 ALINE DE SOUSA ALBINO ANALISTA DO MP CARMO DO PARANAÍBA - COMARCA; CARMO DO PARANAIBA-PJ-01PJ 8.436,53 843,65 0,00 4.640,09 0,00 0,00 0,00 1.550,00 15.470,27 1.020,82 1.401,96 0,00 0,00 2.422,78 13.047,49 30/06/2020
118 330000 ALINE DIORIO MAYRINK OFICIAL DO MP BELO HORIZONTE - COMARCA; BH-18PJ DIREITOS HUMANOS-SECRETARIA 6.961,05 1.392,21 0,00 4.176,63 0,00 0,00 0,00 1.550,00 14.079,89 918,86 1.175,10 0,00 0,00 2.093,96 11.985,93 30/06/2020
119 499000 ALINE FERREIRA LOPES ANALISTA DO MP TEÓFILO OTONI - COMARCA; COORD. DE DEF. DO PAT. PUBLICO-JEQUIT./MUCURI 10.069,62 1.006,96 0,00 5.538,29 0,00 0,00 0,00 1.550,00 18.164,87 1.218,42 1.841,63 0,00 0,00 3.060,05 15.104,82 30/06/2020
120 405300 ALINE LAIA CARDOZO DIRETOR/ANALISTA BELO HORIZONTE - COMARCA; SUPERINTENDENCIA LOGISTICA SERVICOS 0,00 3.482,78 17.413,92 10.448,35 0,00 0,00 0,00 1.550,00 32.895,05 1.771,66 4.389,96 0,00 0,00 6.161,62 26.733,43 30/06/2020
121 278200 ALINE MARCIA FARIA BARBOSA FERNANDES OFICIAL DO MP BARBACENA - COMARCA; BARBACENA-PJ-SECRETARIA 6.741,63 2.022,49 0,00 3.340,40 0,00 0,00 0,00 1.550,00 13.654,52 964,05 1.119,25 0,00 0,00 2.083,30 11.571,22 30/06/2020
122 389000 ALINE NERI NOBRE ANALISTA DO MP MONTES CLAROS - COMARCA; COORD REG PJ DEF EDUC DIR CRIANCA ADOL NORTE 13.011,52 3.903,46 0,00 8.457,49 0,00 0,00 0,00 1.550,00 26.922,47 1.860,65 3.270,58 0,00 0,00 5.131,23 21.791,24 30/06/2020
123 294600 ALINE PATRICIA SILVA VIEIRA OFICIAL DO MP UBERLÂNDIA - COMARCA; UBERLANDIA-PJ-03PJ 10.069,62 3.020,89 0,00 7.267,89 0,00 0,00 1.445,27 1.550,00 23.353,67 1.439,96 2.627,72 0,00 0,00 4.067,68 19.285,99 30/06/2020
124 420000 ALINE RODRIGUES CAMOROPIN ANALISTA DO MP SABARÁ - COMARCA; SABARA-PJ-02PJ 12.601,30 2.520,26 0,00 7.560,78 0,00 0,00 0,00 1.550,00 24.232,34 1.663,37 2.831,64 0,00 0,00 4.495,01 19.737,33 30/06/2020
125 408300 ALINE SILVA ARAUJO DE PAULA ANALISTA DO MP SÃO SEBASTIÃO DO PARAÍSO - COMARCA; SAO SEBASTIAO DO PARAISO-PJ-02PJ 12.601,30 2.520,26 0,00 7.560,78 0,00 0,00 0,00 2.319,39 25.001,73 1.663,37 2.831,64 0,00 0,00 4.495,01 20.506,72 30/06/2020
126 425400 ALINE TRINDADE DE FREITAS CAMPOS OFICIAL DO MP BELO HORIZONTE - COMARCA; BH-14PJ DEFESA CONSUMIDOR-SECRETARIA 7.912,85 1.582,57 0,00 0,00 0,00 0,00 0,00 1.550,00 11.045,42 1.044,50 1.454,64 0,00 0,00 2.499,14 8.546,28 30/06/2020
127 517200 ALISSOM PEREIRA DA SILVA ANALISTA DO MP BORDA DA MATA - COMARCA; BORDA DA MATA-PJ-UNPJ 10.069,62 1.006,96 0,00 5.538,29 0,00 0,00 0,00 1.550,00 18.164,87 1.218,42 1.841,63 0,00 0,00 3.060,05 15.104,82 30/06/2020
128 442400 ALISSON LABRE ANALISTA DO MP VARGINHA - COMARCA; VARGINHA-PJ-02PJ 10.069,62 2.013,92 0,00 6.041,77 0,00 0,00 0,00 2.319,39 20.444,70 1.329,19 2.088,09 0,00 0,00 3.417,28 17.027,42 30/06/2020
129 643800 ALLAN PAUL FONSECA DE CASTRO OFICIAL DO MP CONTAGEM - COMARCA; CONTAGEM-PJ-06PJ 4.665,64 279,94 0,00 2.472,79 0,00 0,00 0,00 3.088,78 10.507,15 544,01 354,22 0,00 0,00 898,23 9.608,92 30/06/2020
130 612900 ALLAN VINICIUS VIEIRA ARAUJO COORDENADOR/OFICIAL BELO HORIZONTE - COMARCA; DIVISAO TRANSPORTES 0,00 1.181,92 11.819,15 6.500,54 0,00 0,00 0,00 1.550,00 21.051,61 631,30 2.532,33 0,00 0,00 3.163,63 17.887,98 30/06/2020
131 349000 ALLEC RODRIGUES VIEIRA OFICIAL DO MP BELO HORIZONTE - COMARCA; COORD EST DEF DIR FAM PESSOAS DEFICI IDOSOS 9.146,93 1.829,39 0,00 5.488,16 0,00 0,00 0,00 1.550,00 18.014,48 1.207,40 1.817,09 0,00 0,00 3.024,49 14.989,99 30/06/2020
132 297300 ALLYSON SALIBA MONTEIRO LAIZO ANALISTA DO MP CONSELHEIRO LAFAIETE - COMARCA; CONSELHEIRO LAFAIETE-PJ-03PJ 16.750,82 5.025,25 0,00 10.888,04 0,00 0,00 0,00 3.088,78 35.752,89 2.395,37 4.460,33 0,00 0,00 6.855,70 28.897,19 30/06/2020
133 303700 ALMIR LOPES LOURES ANALISTA DO MP BELO HORIZONTE - COMARCA; CENTRAL DE APOIO TECN-SETOR DE MEIO AMBIENTE 16.750,82 5.025,25 0,00 0,00 0,00 0,00 0,00 1.550,00 23.326,07 2.395,37 4.460,33 0,00 0,00 6.855,70 16.470,37 30/06/2020
134 515900 ALTAIR NEVES JUNIOR OFICIAL DO MP BELO HORIZONTE - COMARCA; BH-01PJ FAZENDA PUBLICA-SECRETARIA 6.741,63 674,16 0,00 0,00 0,00 0,00 0,00 1.550,00 8.965,79 815,74 945,65 0,00 0,00 1.761,39 7.204,40 30/06/2020
135 233300 ALVARINDO BATISTA ANALISTA DO MP BELO HORIZONTE - COMARCA; NUCLEO APOIO TECNICO ESP COMUNICACAO 18.820,14 5.646,04 0,00 12.233,09 0,00 0,00 0,00 2.319,39 39.018,66 2.691,28 5.066,60 0,00 0,00 7.757,88 31.260,78 30/06/2020
136 274100 ALYSSON CARVALHO VIDAL DE LACERDA OFICIAL DO MP MANHUAÇU - COMARCA; MANHUACU-PJ-01PJ 10.069,62 3.020,89 0,00 0,00 0,00 0,00 0,00 1.550,00 14.640,51 1.439,96 2.334,54 0,00 0,00 3.774,50 10.866,01 30/06/2020
137 621000 AMANDA BASTOS ALVES ANALISTA DO MP BELO HORIZONTE - COMARCA; ASSESS TECNICO-JUR JUNTO AS PROC. DE JUST 8.170,49 817,05 0,00 4.493,77 0,00 0,00 0,00 1.550,00 15.031,31 988,63 1.330,34 0,00 0,00 2.318,97 12.712,34 30/06/2020
138 521700 AMANDA CRISTINA AGUIAR MACHADO OFICIAL DO MP CONGONHAS - COMARCA; CONGONHAS-PJ-01PJ 5.387,19 538,72 0,00 2.962,96 0,00 0,00 0,00 1.550,00 10.438,87 651,85 528,87 0,00 0,00 1.180,72 9.258,15 30/06/2020
139 613400 AMANDA DE ASSIS IUNES SANTOS ANALISTA DO MP CONGONHAS - COMARCA; CONGONHAS-PJ-01PJ 8.170,49 817,05 0,00 4.493,77 0,00 0,00 0,00 2.319,39 15.800,70 988,63 1.330,34 0,00 0,00 2.318,97 13.481,73 30/06/2020
140 520800 AMANDA DE SOUZA MACHADO ANALISTA DO MP BAEPENDI - COMARCA; BAEPENDI-PJ-UNPJ 10.069,62 1.006,96 0,00 5.538,29 0,00 0,00 0,00 1.550,00 18.164,87 1.218,42 1.737,36 0,00 0,00 2.955,78 15.209,09 30/06/2020
141 663900 AMANDA DENISE GONCALVES DA SILVA ASSESSOR BELO HORIZONTE - COMARCA; DIRET DE FORMACAO, APERFEIC. E POS-GRADUACAO 0,00 0,00 3.076,28 1.538,14 0,00 0,00 0,00 1.550,00 6.164,42 443,62 205,10 0,00 0,00 648,72 5.515,70 30/06/2020
142 543100 AMANDA VIEIRA FREITAS BRESSANE ANALISTA DO MP PARAGUAÇU - COMARCA; PARAGUACU-PJ-UNPJ 8.436,53 843,65 0,00 3.428,70 0,00 0,00 0,00 1.550,00 14.258,88 1.020,82 1.401,96 0,00 0,00 2.422,78 11.836,10 30/06/2020
143 434400 AMARILIS ASSIS SIMAO CURCIO ANALISTA DO MP MANHUAÇU - COMARCA; MANHUACU-PJ-SECRETARIA 10.069,62 2.013,92 0,00 6.041,77 0,00 0,00 0,00 1.550,00 19.675,31 1.329,19 2.088,09 0,00 0,00 3.417,28 16.258,03 30/06/2020
144 652000 AMAURI SILVA ALVES OFICIAL DO MP BELO HORIZONTE - COMARCA; BH-23PJ INFRACIONAL-SEC EXP 4.238,09 254,29 0,00 1.867,37 0,00 0,00 0,00 1.550,00 7.909,75 494,16 263,47 0,00 0,00 757,63 7.152,12 30/06/2020
145 273700 AMBROLINA CARNEIRO DE VASCONCELOS OFICIAL DO MP FRUTAL - COMARCA; FRUTAL-PJ-01PJ 10.736,08 7.515,26 0,00 9.125,67 0,00 0,00 0,00 1.550,00 28.927,01 2.007,65 3.545,52 0,00 0,00 5.553,17 23.373,84 30/06/2020
146 58000 AMELIA GUARIZE DE CASTRO OFICIAL DO MP JUIZ DE FORA - COMARCA; JUIZ DE FORA-PJ-SECRETARIA 6.741,63 6.741,63 0,00 6.741,63 0,00 1.559,08 0,00 1.550,00 23.333,97 1.483,16 2.838,54 0,00 0,00 4.321,70 19.012,27 30/06/2020
147 324301 AMERICA SUELI FERREIRA DA SILVA ANALISTA DO MP MONTE CARMELO - COMARCA; MONTE CARMELO-PJ-02PJ 10.069,62 1.006,96 0,00 5.538,29 0,00 0,00 0,00 2.319,39 18.934,26 1.218,42 1.789,50 0,00 0,00 3.007,92 15.926,34 30/06/2020
148 273300 AMUJACY DE BRITO ASSIZ OFICIAL DO MP BELO HORIZONTE - COMARCA; BH-12PJ JUIZO CRIMINAL-SECRETARIA 10.069,62 3.020,89 0,00 6.545,26 0,00 0,00 527,98 7.309,82 27.473,57 1.439,96 2.125,99 0,00 0,00 3.565,95 23.907,62 30/06/2020
149 482200 ANA ALICE LOPES ACHTSCHIN ANALISTA DO MP BELO HORIZONTE - COMARCA; PROC JUST RECURSOS ESP E EXTRAORD CRIMINAIS 10.397,52 1.039,75 0,00 5.718,64 0,00 0,00 0,00 1.550,00 18.705,91 1.258,10 1.929,91 0,00 0,00 3.188,01 15.517,90 30/06/2020
150 490400 ANA AMELIA PAULINO GARCIA OFICIAL DO MP CONTAGEM - COMARCA; CONTAGEM-PJ-13PJ 7.421,79 742,18 0,00 3.068,58 0,00 0,00 0,00 1.550,00 12.782,55 898,04 1.128,77 0,00 0,00 2.026,81 10.755,74 30/06/2020
151 279100 ANA CAROLINA ARAUJO PEREIRA ANALISTA DO MP BELO HORIZONTE - COMARCA; DIRETORIA DE PROJETOS DE EDIFICACOES 16.750,82 5.025,25 0,00 7.486,25 0,00 0,00 0,00 1.550,00 30.812,32 2.395,37 4.408,20 0,00 0,00 6.803,57 24.008,75 30/06/2020
152 653300 ANA CAROLINA CYRNE DINIZ ASSESSOR BELO HORIZONTE - COMARCA; CENTRAL DE APOIO TECNICO-SETOR CONTABIL 0,00 0,00 8.170,49 4.085,25 0,00 0,00 0,00 1.550,00 13.805,74 713,09 1.483,92 0,00 0,00 2.197,01 11.608,73 30/06/2020
153 359400 ANA CAROLINA DE ABREU FARIA ASSESSOR BELO HORIZONTE - COMARCA; SUPERINTENDÊNCIA DE ENGENHARIA E ARQUITETURA 0,00 0,00 10.397,52 5.198,76 0,00 0,00 0,00 1.550,00 17.146,28 713,09 2.096,36 0,00 0,00 2.809,45 14.336,83 30/06/2020
154 408500 ANA CAROLINA DE CASTRO CARVALHO ANALISTA DO MP BARBACENA - COMARCA; BARBACENA - SECRETARIA DAS PJS CRIMINAIS 12.601,30 2.520,26 0,00 7.560,78 0,00 0,00 0,00 1.550,00 24.232,34 1.663,37 2.831,64 0,00 0,00 4.495,01 19.737,33 30/06/2020
155 420200 ANA CAROLINA FERNANDES SILVA ANALISTA DO MP BELO HORIZONTE - COMARCA; GABINETE DE PROCURADOR DE JUSTIÇA - SALA 704 12.204,02 2.440,80 0,00 7.322,41 0,00 0,00 0,00 1.550,00 23.517,23 1.610,93 2.714,96 0,00 0,00 4.325,89 19.191,34 30/06/2020
156 522100 ANA CAROLINA FERNANDINO VIDAL PEREIRA SANTOS OFICIAL DO MP BELO HORIZONTE - COMARCA; SECRETARIA DO PROCON-MG 6.741,63 674,16 0,00 0,00 0,00 0,00 0,00 1.550,00 8.965,79 815,74 945,65 0,00 0,00 1.761,39 7.204,40 30/06/2020
157 502400 ANA CAROLINA GONCALVES FERNANDES ANALISTA DO MP GRAO MOGOL - COMARCA; GRAO MOGOL-PJ-UNPJ 10.069,62 1.006,96 0,00 4.008,26 0,00 0,00 0,00 2.319,39 17.404,23 1.218,42 1.841,63 0,00 0,00 3.060,05 14.344,18 30/06/2020
158 529900 ANA CAROLINA GONCALVES PECANHA CHEQUER ANALISTA DO MP MANHUAÇU - COMARCA; MANHUACU-PJ-04PJ 8.436,53 843,65 0,00 3.428,70 0,00 0,00 0,00 2.319,39 15.028,27 1.020,82 1.401,96 0,00 0,00 2.422,78 12.605,49 30/06/2020
159 431900 ANA CAROLINA MOTTA GUATIMOSIM ANALISTA DO MP BELO HORIZONTE - COMARCA; GABINETE DE PROCURADOR DE JUSTIÇA - SALA 404 12.204,02 2.440,80 0,00 7.322,41 0,00 0,00 0,00 2.319,39 24.286,62 1.610,93 2.714,96 0,00 0,00 4.325,89 19.960,73 30/06/2020
160 490600 ANA CAROLINA XAVIER GODOY ANALISTA DO MP BELO HORIZONTE - COMARCA; ASSESS TECNICO-JUR JUNTO AS PROC. DE JUST 10.069,62 1.006,96 0,00 4.060,40 0,00 0,00 0,00 3.088,78 18.225,76 1.218,42 1.737,36 0,00 0,00 2.955,78 15.269,98 30/06/2020
161 600300 ANA CAROLINE PEREIRA DINIZ ANALISTA DO MP BELO HORIZONTE - COMARCA; COMB CRIMES PRAT POR AG POL MUN-SECRETARIA 8.436,53 843,65 0,00 4.640,09 0,00 0,00 0,00 3.088,78 17.009,05 1.020,82 1.401,96 0,00 0,00 2.422,78 14.586,27 30/06/2020
162 615800 ANA CAROLINE PEREIRA OLIVEIRA OFICIAL DO MP ALFENAS - COMARCA; ALFENAS-PJ-06PJ 5.217,34 521,73 0,00 2.869,54 0,00 0,00 0,00 1.550,00 10.158,61 631,30 535,28 0,00 0,00 1.166,58 8.992,03 30/06/2020
163 324800 ANA CECILIA MENDES DA SILVA OFICIAL DO MP OURO FINO - COMARCA; OURO FINO-PJ-01PJ 10.069,62 3.020,89 0,00 6.545,26 0,00 0,00 0,00 1.550,00 21.185,77 1.439,96 2.282,40 0,00 0,00 3.722,36 17.463,41 30/06/2020
164 441300 ANA CLAUDIA ALKIMIM MIRANDA BOMTEMPO ANALISTA DO MP MONTES CLAROS - COMARCA; MONTES CLAROS-PJ-11PJ 12.204,02 2.440,80 0,00 7.322,41 0,00 0,00 0,00 1.550,00 23.517,23 1.610,93 2.610,69 0,00 0,00 4.221,62 19.295,61 30/06/2020
165 642500 ANA CLAUDIA DA COSTA NAVES OFICIAL DO MP MONTE CARMELO - COMARCA; MONTE CARMELO-PJ-02PJ 4.238,09 254,29 0,00 2.246,19 0,00 0,00 0,00 2.319,39 9.057,96 494,16 263,47 0,00 0,00 757,63 8.300,33 30/06/2020
166 604900 ANA CLAUDIA OLIVEIRA DE MIRANDA OFICIAL DO MP PONTE NOVA - COMARCA; PONTE NOVA-PJ-04PJ 4.974,42 497,44 0,00 2.735,93 0,00 0,00 0,00 1.550,00 9.757,79 601,90 417,74 0,00 0,00 1.019,64 8.738,15 30/06/2020
167 379300 ANA CRISTINA ALVES FLAVIO ANALISTA DO MP SÃO GOTARDO - COMARCA; SAO GOTARDO-PJ-01PJ 13.011,52 2.602,30 0,00 7.806,91 0,00 0,00 0,00 2.319,39 25.740,12 1.717,52 2.899,99 0,00 0,00 4.617,51 21.122,61 30/06/2020
168 461200 ANA CRISTINA ALVES PASCHOAL ANALISTA DO MP SANTA LUZIA - COMARCA; SANTA LUZIA-PJ-03PJ 10.069,62 1.006,96 0,00 5.538,29 0,00 0,00 0,00 1.550,00 18.164,87 1.218,42 1.789,50 0,00 0,00 3.007,92 15.156,95 30/06/2020
169 514100 ANA CRISTINA ARAUJO ASSUNCAO ANALISTA DO MP BELO HORIZONTE - COMARCA; ASSESS JUR DO CONS SUPERIOR DO MINISTERIO PUB 10.069,62 1.006,96 0,00 5.538,29 0,00 0,00 0,00 2.319,39 18.934,26 1.218,42 1.789,50 0,00 0,00 3.007,92 15.926,34 30/06/2020
170 113400 ANA CRISTINA BRAGA ALBUQUERQUE ASSESSOR/ANALISTA BELO HORIZONTE - COMARCA; ASSESS ESP ADM E FINANCEIRA DO PGJ ADJ ADM 30.090,04 21.063,02 0,00 17.731,11 0,00 0,00 520,11 7.223,96 76.628,24 3.900,84 7.810,02 15.690,84 0,00 27.401,70 49.226,54 30/06/2020
171 233800 ANA CRISTINA BRAGA SOARES RIOS OFICIAL DO MP CONTAGEM - COMARCA; CONTAGEM-PJ-SECRETARIA 10.397,52 3.119,26 0,00 6.758,39 0,00 0,00 0,00 1.550,00 21.825,17 1.486,85 2.438,87 0,00 0,00 3.925,72 17.899,45 30/06/2020
172 186400 ANA CRISTINA DE AZEVEDO LOPES OFICIAL DO MP UBÁ - COMARCA; UBA-PJ-01PJ 14.324,23 5.729,69 0,00 6.904,57 0,00 0,00 0,00 1.550,00 28.508,49 2.205,93 4.038,84 0,00 0,00 6.244,77 22.263,72 30/06/2020
173 465100 ANA CRISTINA DE OLIVEIRA GUIMARAES ANALISTA DO MP ITAJUBA - COMARCA; ITAJUBA-PJ-05PJ 10.069,62 1.006,96 0,00 5.538,29 0,00 0,00 0,00 3.088,78 19.703,65 1.218,42 1.737,36 0,00 0,00 2.955,78 16.747,87 30/06/2020
174 500600 ANA CRISTINA LATADO SUDARIO ANALISTA DO MP UBERLÂNDIA - COMARCA; UBERLANDIA-PJ-09PJ 10.069,62 1.006,96 0,00 5.538,29 0,00 0,00 0,00 1.550,00 18.164,87 1.218,42 1.841,63 0,00 0,00 3.060,05 15.104,82 30/06/2020
175 331400 ANA CRISTINA RIBEIRO ALVES OFICIAL DO MP BAMBUÍ - COMARCA; BAMBUI-PJ-UNPJ 8.858,43 2.657,53 0,00 5.757,98 0,00 0,00 0,00 1.550,00 18.823,94 1.266,76 1.897,03 0,00 0,00 3.163,79 15.660,15 30/06/2020
176 249300 ANA ELOINA MARTINS OFICIAL DO MP BETIM - COMARCA; BETIM-PJ-02PJ 12.204,02 4.881,61 0,00 5.946,93 0,00 0,00 0,00 1.550,00 24.582,56 1.879,42 3.312,35 0,00 0,00 5.191,77 19.390,79 30/06/2020
177 257400 ANA FLAVIA CAMBRAIA ANALISTA DO MP BELO HORIZONTE - COMARCA; BH-19PJ SAUDE-SECRETARIA 150PJ 17.413,92 5.224,18 0,00 11.319,05 0,00 0,00 0,00 1.550,00 35.507,15 2.490,19 4.619,18 0,00 0,00 7.109,37 28.397,78 30/06/2020
178 248201 ANA FLAVIA DE MORAIS SOUZA ANALISTA DO MP DIVINÓPOLIS - COMARCA; DIVINOPOLIS-PJ-01PJ 10.069,62 3.020,89 0,00 6.545,26 0,00 0,00 0,00 2.319,39 21.955,16 1.439,96 2.230,27 0,00 0,00 3.670,23 18.284,93 30/06/2020
179 621100 ANA FLAVIA DINIZ TEODORO OFICIAL DO MP SANTA LUZIA - COMARCA; SANTA LUZIA-PJ-06PJ 5.217,34 521,73 0,00 0,00 0,00 0,00 0,00 1.550,00 7.289,07 631,30 535,28 0,00 0,00 1.166,58 6.122,49 30/06/2020
180 238600 ANA FLAVIA FRANCO OFICIAL DO MP BELO HORIZONTE - COMARCA; DIRETORIA DE PESSOAL ADMINISTRATIVO - DPAD 12.601,30 3.780,39 0,00 5.719,82 0,00 0,00 0,00 1.550,00 23.651,51 1.801,99 3.140,06 0,00 0,00 4.942,05 18.709,46 30/06/2020
181 402900 ANA FLAVIA PORTES DE CARVALHO ANALISTA DO MP BELO HORIZONTE - COMARCA; DIRET DE PLANOS PROJETOS E PROGRAMAS INST 13.011,52 2.602,30 0,00 7.806,91 0,00 0,00 0,00 1.550,00 24.970,73 1.717,52 2.899,99 0,00 0,00 4.617,51 20.353,22 30/06/2020
182 382700 ANA KARENINA SALDANHA GONTIJO ANALISTA DO MP BELO HORIZONTE - COMARCA; ASSESS TECNICO-JUR JUNTO AS PROC. DE JUST 13.435,16 2.687,03 0,00 8.061,10 0,00 0,00 0,00 2.319,39 26.502,68 1.773,44 3.076,55 0,00 0,00 4.849,99 21.652,69 30/06/2020
183 620500 ANA KARINE DE ANDRADE OLIVEIRA ANALISTA DO MP RIBEIRÃO DAS NEVES - COMARCA; SEC PJ EXECUCAO PENAL RIBEIRAO NEVES 7.421,79 742,18 0,00 4.081,99 0,00 0,00 0,00 1.550,00 13.795,96 898,04 1.128,77 0,00 0,00 2.026,81 11.769,15 30/06/2020
184 462200 ANA LUCIA ANDRADE TOMICH OTTONI ANALISTA DO MP TEÓFILO OTONI - COMARCA; TEOFILO OTONI-PJ-06PJ 10.069,62 1.006,96 0,00 5.538,29 0,00 0,00 0,00 1.550,00 18.164,87 1.218,42 1.789,50 0,00 0,00 3.007,92 15.156,95 30/06/2020
185 504100 ANA LUCIA CATAO DE CARVALHO OFICIAL DO MP BELO HORIZONTE - COMARCA; BH-09PJ AUDITORIA MILITAR-SECRETARIA 7.421,79 742,18 0,00 4.081,99 0,00 0,00 0,00 2.319,39 14.565,35 898,04 1.076,63 0,00 0,00 1.974,67 12.590,68 30/06/2020
186 274700 ANA LUCIA DE ALENCAR BRAGATO OFICIAL DO MP UBERABA - COMARCA; UBERABA-PJ-07PJ 10.069,62 3.020,89 0,00 4.658,01 0,00 0,00 0,00 1.550,00 19.298,52 1.439,96 2.334,54 0,00 0,00 3.774,50 15.524,02 30/06/2020
187 509400 ANA LUCIA DORNELAS MALLOSTO ANALISTA DO MP JUIZ DE FORA - COMARCA; JUIZ DE FORA-PJ-18PJ 9.444,70 944,47 0,00 5.194,59 0,00 0,00 0,00 1.550,00 17.133,76 1.142,81 1.621,25 0,00 0,00 2.764,06 14.369,70 30/06/2020
188 302600 ANA LUCIA LOPES SANTOS OFICIAL DO MP BELO HORIZONTE - COMARCA; DIVISÃO DE FISCALIZAÇÃO DAS RELAÇÕES DE CONSU 10.069,62 3.020,89 0,00 7.267,89 0,00 0,00 1.445,27 1.550,00 23.353,67 1.439,96 2.602,89 0,00 0,00 4.042,85 19.310,82 30/06/2020
189 493400 ANA LUISA NOGUEIRA MOREIRA ANALISTA DO MP BELO HORIZONTE - COMARCA; BH-19PJ SAUDE-SECRETARIA 130PJ 10.069,62 1.006,96 0,00 5.538,29 0,00 0,00 0,00 1.550,00 18.164,87 1.218,42 1.841,63 0,00 0,00 3.060,05 15.104,82 30/06/2020
190 389300 ANA LUISA REUTER LIMA ANALISTA DO MP BELO HORIZONTE - COMARCA; DIRETORIA DE SISTEMAS DE INFORMACAO 10.736,08 2.147,22 0,00 6.441,65 0,00 0,00 0,00 1.550,00 20.874,95 1.417,16 2.283,83 0,00 0,00 3.700,99 17.173,96 30/06/2020
191 480600 ANA LUIZA FERNANDES FRAGA E GRECO OFICIAL DO MP BELO HORIZONTE - COMARCA; BH-23PJ CIVEL-SEC EXP CIVEIS 6.741,63 674,16 0,00 3.707,90 0,00 0,00 0,00 1.550,00 12.673,69 815,74 945,65 0,00 0,00 1.761,39 10.912,30 30/06/2020
192 481400 ANA MARCIA CANDIDA FERREIRA OFICIAL DO MP BRUMADINHO - COMARCA; BRUMADINHO-PJ-02PJ 6.123,79 612,38 0,00 3.368,09 0,00 0,00 0,00 1.550,00 11.654,26 740,98 779,32 0,00 0,00 1.520,30 10.133,96 30/06/2020
193 643100 ANA MARIA LOPES MIRANDA ANALISTA DO MP BELO HORIZONTE - COMARCA; CAO-FUNDACOES 7.187,72 431,26 0,00 3.809,49 0,00 0,00 0,00 1.550,00 12.978,47 671,12 1.041,30 0,00 0,00 1.712,42 11.266,05 30/06/2020
194 556400 ANA MARIA OLIVEIRA SOUZA OFICIAL DO MP ITAPECERICA - COMARCA; ITAPECERICA-PJ-UNPJ 5.387,19 538,72 0,00 2.962,96 0,00 0,00 325,93 5.105,55 14.320,35 651,85 581,01 0,00 0,00 1.232,86 13.087,49 30/06/2020
195 409600 ANA OLIVIA FARIA ROSENBURG ANALISTA DO MP BELO HORIZONTE - COMARCA; DIRETORIA DO COLEGIO E DA CAMARA DE PJ 12.601,30 3.780,39 0,00 8.190,85 0,00 0,00 0,00 1.550,00 26.122,54 1.801,99 3.139,13 0,00 0,00 4.941,12 21.181,42 30/06/2020
196 461500 ANA PAULA ALVES CARVALHO ANALISTA DO MP UBERLÂNDIA - COMARCA; UBERLANDIA-PJ-25PJ 10.069,62 1.006,96 0,00 5.538,29 0,00 0,00 0,00 2.319,39 18.934,26 1.218,42 1.841,63 0,00 0,00 3.060,05 15.874,21 30/06/2020
197 523200 ANA PAULA ALVES DA SILVA OFICIAL DO MP GOVERNADOR VALADARES - COMARCA; GOVERNADOR VALADARES-PJ-10PJ 6.741,63 674,16 0,00 3.707,90 0,00 0,00 0,00 3.472,93 14.596,62 815,74 841,38 0,00 0,00 1.657,12 12.939,50 30/06/2020
198 381200 ANA PAULA BARROS PEREIRA RIGHI ANALISTA DO MP BELO HORIZONTE - COMARCA; PROC JUST RECURSOS ESP E EXTRAORD CRIMINAIS 13.011,52 2.602,30 0,00 7.806,91 0,00 0,00 0,00 2.319,39 25.740,12 1.717,52 2.899,99 0,00 0,00 4.617,51 21.122,61 30/06/2020
199 227200 ANA PAULA DA SILVA CAMPOLINA ANALISTA DO MP BELO HORIZONTE - COMARCA; DIRETORIA DE ORCAMENTO-DIOR/SPC 18.820,14 9.410,07 0,00 14.115,11 0,00 0,00 0,00 1.550,00 43.895,32 3.105,32 6.039,98 0,00 0,00 9.145,30 34.750,02 30/06/2020
200 84200 ANA PAULA DE SOUZA ROCHA OFICIAL DO MP BELO HORIZONTE - COMARCA; DIRETORIA DE CONTABILIDADE 28.280,68 19.796,48 0,00 17.731,11 0,00 0,00 520,11 7.223,96 73.552,34 3.900,84 7.810,02 12.614,94 0,00 24.325,80 49.226,54 30/06/2020
201 278500 ANA PAULA DIAS CAPANEMA OFICIAL DO MP BELO HORIZONTE - COMARCA; DIRETORIA DE SEGURANCA 10.069,62 3.020,89 0,00 6.545,26 0,00 0,00 0,00 1.550,00 21.185,77 1.439,96 2.333,95 0,00 0,00 3.773,91 17.411,86 30/06/2020
202 327300 ANA PAULA GARCIA MAXIMO OFICIAL DO MP UNAÍ - COMARCA; UNAI-PJ-01PJ 10.736,08 4.294,43 0,00 7.515,26 0,00 0,00 0,00 1.550,00 24.095,77 1.653,36 2.652,94 0,00 0,00 4.306,30 19.789,47 30/06/2020
203 270000 ANA PAULA GOULART CRUZ DE MAGALHAES ANALISTA DO MP BELO HORIZONTE - COMARCA; COMB CRIMES PRAT POR AG POL MUN-ASSESSORIA 13.435,16 4.030,55 0,00 8.732,86 0,00 0,00 0,00 1.550,00 27.748,57 1.921,23 3.405,37 0,00 0,00 5.326,60 22.421,97 30/06/2020
204 262100 ANA PAULA KOMATSUZAKI ABIJAUDI ANALISTA DO MP BELO HORIZONTE - COMARCA; BH-17PJ PATRIMONIO PUBLICO-SECRETARIA 17.413,92 6.965,57 0,00 12.189,75 0,00 0,00 0,00 1.550,00 38.119,24 2.681,74 4.993,25 0,00 0,00 7.674,99 30.444,25 30/06/2020
205 278900 ANA PAULA MOREIRA GURGEL ANALISTA DO MP BELO HORIZONTE - COMARCA; DIRETORIA-GERAL 16.750,82 6.700,33 0,00 11.725,58 0,00 0,00 0,00 1.550,00 36.726,73 2.579,63 4.870,31 0,00 0,00 7.449,94 29.276,79 30/06/2020
206 425701 ANA PAULA ROCHA ANALISTA DO MP BELO HORIZONTE - COMARCA; ASSESSORIA DE COMUNICACAO INTEGRADA 8.170,49 817,05 0,00 0,00 0,00 0,00 0,00 2.319,39 11.306,93 988,63 1.330,34 0,00 0,00 2.318,97 8.987,96 30/06/2020
207 395601 ANA PAULA SALGE OLIVEIRA ANALISTA DO MP UBERABA - COMARCA; COORD REG PP TRIANGULO MINEIRO UBERABA 10.069,62 3.020,89 0,00 6.545,26 0,00 0,00 0,00 1.550,00 21.185,77 1.439,96 2.334,54 0,00 0,00 3.774,50 17.411,27 30/06/2020
208 473200 ANA PAULA SCOTTON BRASIL ANALISTA DO MP JUIZ DE FORA - COMARCA; JUIZ DE FORA-PJ-07PJ 10.069,62 1.006,96 0,00 5.538,29 0,00 0,00 0,00 2.319,39 18.934,26 1.218,42 1.841,63 0,00 0,00 3.060,05 15.874,21 30/06/2020
209 633600 ANA PAULA SILVA FERNANDES OFICIAL DO MP CATAGUASES - COMARCA; CATAGUASES-PJ-04PJ 4.817,57 481,76 0,00 2.649,67 0,00 0,00 0,00 1.550,00 9.499,00 582,93 427,65 0,00 0,00 1.010,58 8.488,42 30/06/2020
210 470900 ANA PAULA VALADARES ANALISTA DO MP PITANGUI - COMARCA; PITANGUI-PJ-01PJ 10.069,62 1.006,96 0,00 4.060,40 0,00 0,00 0,00 1.550,00 16.686,98 1.218,42 1.737,36 0,00 0,00 2.955,78 13.731,20 30/06/2020
211 447000 ANA PAULA VALENTIM DE ARAUJO ANALISTA DO MP BELO HORIZONTE - COMARCA; COMB CRIMES PRAT POR AG POL MUN-ASSESSORIA 10.069,62 2.013,92 0,00 6.041,77 0,00 0,00 0,00 1.550,00 19.675,31 1.329,19 2.088,09 0,00 0,00 3.417,28 16.258,03 30/06/2020
212 604200 ANA PAULA VIANA E SILVA OFICIAL DO MP BELO HORIZONTE - COMARCA; BH-17PJ PATRIMONIO PUBLICO-SECRETARIA 5.387,19 538,72 0,00 2.346,52 0,00 0,00 0,00 2.319,39 10.591,82 651,85 581,01 0,00 0,00 1.232,86 9.358,96 30/06/2020
213 505400 ANA PAULA VIEIRA SOUTO OFICIAL DO MP ALMENARA - COMARCA; COORD. PAT. PUBLICO-MUCURI/JEQUIT - ALMENARA 5.562,64 1.668,79 0,00 0,00 0,00 0,00 0,00 1.550,00 8.781,43 795,46 848,39 0,00 0,00 1.643,85 7.137,58 30/06/2020
214 280200 ANA RACHEL BRANDAO LADEIRA ROLAND DIRETOR/ANALISTA BELO HORIZONTE - COMARCA; SUPRIN DE FORMACAO E APERFEICOAMENTO-SFA/CEAF 16.750,82 5.025,25 3.482,78 12.629,43 0,00 0,00 0,00 1.550,00 39.438,28 2.395,37 5.418,10 0,00 0,00 7.813,47 31.624,81 30/06/2020
215 601200 ANA REGINA RIBEIRO COORDENADOR/ANALISTA BELO HORIZONTE - COMARCA; DIV FISCAL ADM CONT TERCEIRIZACAO 0,00 1.181,92 11.819,15 6.500,54 0,00 0,00 0,00 1.550,00 21.051,61 1.141,38 2.392,05 0,00 0,00 3.533,43 17.518,18 30/06/2020
216 384700 ANA RODRIGUES PEREIRA MARRA ANALISTA DO MP COROMANDEL - COMARCA; COROMANDEL-PJ-UNPJ 10.069,62 2.013,92 0,00 6.041,77 0,00 0,00 0,00 2.319,39 20.444,70 1.329,19 1.983,81 0,00 0,00 3.313,00 17.131,70 30/06/2020
217 232700 ANA SILVIA SEMBLANO NAKAMURA ASSESSOR/OFICIAL BELO HORIZONTE - COMARCA; CENT DE APOIO TEC-SETOR DEF,IDOSO E INFANC 0,00 3.119,26 10.397,52 6.758,39 0,00 0,00 0,00 1.550,00 21.825,17 1.439,96 2.450,51 0,00 0,00 3.890,47 17.934,70 30/06/2020
218 602100 ANACLETO FRANCISCO MARCIER PIMENTA OFICIAL DO MP SÃO JOÃO DEL REI - COMARCA; SAO JOAO DEL REI-PJ-03PJ 4.974,42 497,44 0,00 2.735,93 0,00 0,00 0,00 3.345,24 11.553,03 601,90 246,32 0,00 0,00 848,22 10.704,81 30/06/2020
219 310400 ANADEJE DO CARMO DINIZ ARAUJO OFICIAL DO MP BELO HORIZONTE - COMARCA; DIRETORIA DE PESSOAL ADMINISTRATIVO - DPAD 9.146,93 2.744,08 0,00 5.945,51 0,00 0,00 0,00 1.550,00 19.386,52 1.308,01 2.040,97 0,00 0,00 3.348,98 16.037,54 30/06/2020
220 337000 ANAILDES MARIA MENDES OFICIAL DO MP JANAÚBA - COMARCA; JANAUBA-PJ-02PJ 9.146,93 1.829,39 0,00 5.488,16 0,00 0,00 0,00 2.319,39 18.783,87 1.207,40 1.817,09 0,00 0,00 3.024,49 15.759,38 30/06/2020
221 192900 ANATALIA CERQUEIRA LIMA PERES OFICIAL DO MP UBERABA - COMARCA; COORD REG SAUDE MACROR SANIT TRIANGULO SUL 10.736,08 4.294,43 0,00 7.515,26 0,00 0,00 0,00 1.550,00 24.095,77 1.653,36 2.809,36 0,00 0,00 4.462,72 19.633,05 30/06/2020
222 377400 ANDEIRSON DA MATTA BARBOSA ANALISTA DO MP POUSO ALEGRE - COMARCA; POUSO ALEGRE-PJ-01PJ 10.069,62 2.013,92 0,00 6.041,77 0,00 0,00 0,00 1.550,00 19.675,31 1.329,19 2.088,09 0,00 0,00 3.417,28 16.258,03 30/06/2020
223 317400 ANDERSON DA SILVA BICALHO OFICIAL DO MP CONTAGEM - COMARCA; COORD REG DEF ORDEM ECONOMICA TRIB CONTAGEM 8.436,53 1.687,31 0,00 3.779,09 0,00 0,00 0,00 1.550,00 15.452,93 1.113,62 1.452,04 0,00 0,00 2.565,66 12.887,27 30/06/2020
224 506900 ANDERSON DE SOUZA DAMIANI ANALISTA DO MP BELO HORIZONTE - COMARCA; DIRETORIA DE PAGAMENTO DE PESSOAL-DPAG 10.069,62 3.020,89 0,00 6.545,26 0,00 0,00 0,00 2.319,39 21.955,16 1.439,96 2.230,27 0,00 0,00 3.670,23 18.284,93 30/06/2020
225 410000 ANDERSON DE SOUZA NETO ASSESSOR BELO HORIZONTE - COMARCA; DIRETORIA DE ADMINISTRACAO FINANCEIRA 0,00 0,00 5.136,32 2.568,16 0,00 0,00 0,00 1.550,00 9.254,48 713,09 649,53 0,00 0,00 1.362,62 7.891,86 30/06/2020
226 181900 ANDERSON FLAVIO DE OLIVEIRA OFICIAL DO MP ITAGUARA - COMARCA; ITAGUARA-PJ-SECRETARIA 12.601,30 5.040,52 0,00 6.126,37 0,00 0,00 0,00 1.550,00 25.318,19 1.940,60 3.448,48 0,00 0,00 5.389,08 19.929,11 30/06/2020
227 333200 ANDERSON JOSE DE FREITAS OFICIAL DO MP IPATINGA - COMARCA; IPATINGA-PJ-07PJ 9.146,93 2.744,08 0,00 6.668,14 4.445,43 0,00 1.445,27 2.319,39 26.769,24 1.308,01 3.504,50 0,00 0,00 4.812,51 21.956,73 30/06/2020
228 462100 ANDERSON LUIZ GUIMARAES CARDOSO ANALISTA DO MP BARBACENA - COMARCA; BARBACENA-PJ-02PJ 10.397,52 1.039,75 0,00 4.124,63 0,00 0,00 0,00 1.550,00 17.111,90 1.258,10 1.929,91 0,00 0,00 3.188,01 13.923,89 30/06/2020
229 429700 ANDERSON MELO DE SOUZA ASSESSOR/OFICIAL BELO HORIZONTE - COMARCA; DIRET DE ESTAGIOS E CONVENIOS ACADEMICOS 0,00 2.079,50 10.397,52 6.238,51 0,00 0,00 0,00 1.550,00 20.265,53 808,34 2.339,53 0,00 0,00 3.147,87 17.117,66 30/06/2020
230 545600 ANDERSON MENDES PROCOPIO FERREIRA ANALISTA DO MP BELO HORIZONTE - COMARCA; BH-12PJ JUIZO CRIMINAL-GAB 089PJ 8.436,53 843,65 0,00 4.640,09 0,00 0,00 0,00 1.550,00 15.470,27 1.020,82 1.401,96 0,00 0,00 2.422,78 13.047,49 30/06/2020
231 519900 ANDERSON MOREIRA DOEHLER ANALISTA DO MP TEÓFILO OTONI - COMARCA; TEOFILO OTONI-PJ-07PJ 9.444,70 2.833,41 0,00 6.139,06 0,00 0,00 0,00 1.550,00 19.967,17 1.350,59 2.135,71 0,00 0,00 3.486,30 16.480,87 30/06/2020
232 103000 ANDERSON TADEU DE DEUS ASSESSOR BELO HORIZONTE - COMARCA; BH-26 CRIME CONT CRIAN ADOL-SECRETARIA 0,00 3.595,42 5.136,32 4.365,87 0,00 0,00 0,00 1.550,00 14.647,61 713,09 1.638,27 0,00 0,00 2.351,36 12.296,25 30/06/2020
233 309200 ANDITYAS SOARES DE MOURA COSTA MATOS ANALISTA DO MP BELO HORIZONTE - COMARCA; GABINETE DE PROCURADOR DE JUSTIÇA - SALA 304 14.324,23 4.297,27 0,00 9.310,75 0,00 0,00 0,00 1.550,00 29.482,25 2.048,37 3.688,25 0,00 0,00 5.736,62 23.745,63 30/06/2020
234 519200 ANDRE BORJA LANA ANALISTA DO MP BELO HORIZONTE - COMARCA; CENTRO JORNALISMO 10.069,62 1.006,96 0,00 5.538,29 0,00 0,00 0,00 1.550,00 18.164,87 1.218,42 1.841,63 0,00 0,00 3.060,05 15.104,82 30/06/2020
235 637200 ANDRE FERNANDES DA CUNHA OFICIAL DO MP MORADA NOVA DE MINAS - COMARCA; MORADA NOVA DE MINAS-PJ-UNPJ 4.817,57 481,76 0,00 2.144,37 0,00 0,00 0,00 1.550,00 8.993,70 582,93 427,65 0,00 0,00 1.010,58 7.983,12 30/06/2020
236 651500 ANDRE GONCALVES MARANHAO OFICIAL DO MP JACINTO - COMARCA; JACINTO-PJ-SECRETARIA 4.238,09 254,29 0,00 0,00 0,00 0,00 0,00 1.550,00 6.042,38 494,16 263,47 0,00 0,00 757,63 5.284,75 30/06/2020
237 521900 ANDRE LUIS GOMES SILVA ANALISTA DO MP FORMIGA - COMARCA; FORMIGA-PJ-02PJ 10.069,62 1.006,96 0,00 5.538,29 0,00 0,00 0,00 2.319,39 18.934,26 1.218,42 1.270,83 0,00 0,00 2.489,25 16.445,01 30/06/2020
238 304300 ANDRE LUIZ AVELAR ANALISTA DO MP BELO HORIZONTE - COMARCA; DIRETORIA DE REDES E BANCOS DE DADOS 8.436,53 2.530,96 0,00 3.999,14 0,00 0,00 0,00 1.550,00 16.516,63 1.206,42 1.762,80 0,00 0,00 2.969,22 13.547,41 30/06/2020
239 397400 ANDRE PATARO MYRRHA DE PAULA E SILVA ANALISTA DO MP BELO HORIZONTE - COMARCA; ASSESSORIA JURIDICO-ADMINISTRATIVA 13.011,52 2.602,30 0,00 7.806,91 0,00 0,00 0,00 2.319,39 25.740,12 1.717,52 2.952,12 0,00 0,00 4.669,64 21.070,48 30/06/2020
240 650100 ANDRE THOME VARGAS OFICIAL DO MP LEOPOLDINA - COMARCA; LEOPOLDINA-PJ-04PJ 4.665,64 279,94 0,00 2.472,79 0,00 0,00 0,00 1.550,00 8.968,37 544,01 354,22 0,00 0,00 898,23 8.070,14 30/06/2020
241 548500 ANDRE VINICIUS CARVALHO MEIRA ANALISTA DO MP JUIZ DE FORA - COMARCA; JUIZ DE FORA-PJ-25PJ 8.436,53 843,65 0,00 4.640,09 0,00 0,00 0,00 1.550,00 15.470,27 1.020,82 1.401,96 0,00 0,00 2.422,78 13.047,49 30/06/2020
242 297200 ANDRE WILLE ROSARIO ANALISTA DO MP BELO HORIZONTE - COMARCA; ASSESSORIA ESPECIAL DO PGJ 16.750,82 5.025,25 0,00 10.888,04 0,00 0,00 0,00 1.550,00 34.214,11 2.395,37 4.356,06 0,00 0,00 6.751,43 27.462,68 30/06/2020
243 423600 ANDREA COSTA GUALBERTO ALVES ANALISTA DO MP GOVERNADOR VALADARES - COMARCA; COORD REG PJ DEF EDU DIR CRIANCA ADOL RIODOCE 12.204,02 8.542,81 0,00 0,00 0,00 0,00 0,00 1.550,00 22.296,83 2.282,15 4.156,29 0,00 0,00 6.438,44 15.858,39 30/06/2020
244 198600 ANDREA CRISTINA ANDRADE COSTA E SOUZA OFICIAL DO MP MONTES CLAROS - COMARCA; MONTES CLAROS-PJ-15PJ 14.790,66 5.916,26 0,00 10.353,46 0,00 0,00 0,00 1.550,00 32.610,38 2.277,76 4.146,52 0,00 0,00 6.424,28 26.186,10 30/06/2020
245 467300 ANDREA DE CASSIA PENNA ALVERNAZ ANALISTA DO MP PONTE NOVA - COMARCA; PONTE NOVA-PJ-01PJ 10.069,62 1.006,96 0,00 5.538,29 0,00 0,00 0,00 1.550,00 18.164,87 1.218,42 1.789,50 0,00 0,00 3.007,92 15.156,95 30/06/2020
246 308000 ANDREA DE CASSIA SANTOS OLIVEIRA ANALISTA DO MP BELO HORIZONTE - COMARCA; ASSESS TECNICO-JUR JUNTO AS PROC. DE JUST 15.272,02 4.581,61 0,00 9.926,82 0,00 0,00 0,00 1.550,00 31.330,45 2.183,90 3.937,68 0,00 0,00 6.121,58 25.208,87 30/06/2020
247 349500 ANDREA DE OLIVEIRA LOIOLA REGIS OFICIAL DO MP IGUATAMA - COMARCA; IGUATAMA-PJ-UNPJ 9.444,70 1.888,94 0,00 5.666,82 0,00 0,00 0,00 1.550,00 18.550,46 1.246,70 1.852,41 0,00 0,00 3.099,11 15.451,35 30/06/2020
248 287900 ANDREA FERNANDES PENA MARTINS OFICIAL DO MP MONTES CLAROS - COMARCA; MONTES CLAROS-PJ-09PJ 10.069,62 3.020,89 0,00 6.545,26 0,00 0,00 0,00 1.550,00 21.185,77 1.439,96 2.230,27 0,00 0,00 3.670,23 17.515,54 30/06/2020
249 300800 ANDREA FERREIRA ANALISTA DO MP LAVRAS - COMARCA; LAVRAS-PJ-04PJ 14.790,66 4.437,20 0,00 0,00 0,00 0,00 0,00 1.550,00 20.777,86 2.115,06 3.836,66 0,00 0,00 5.951,72 14.826,14 30/06/2020
250 316700 ANDREA FRANCISCA DIAS DE SOUZA ASSESSOR BELO HORIZONTE - COMARCA; ASSESSORIA JURIDICA DO PROCON-MG 0,00 0,00 3.076,28 0,00 0,00 0,00 0,00 2.319,39 5.395,67 465,67 201,79 0,00 0,00 667,46 4.728,21 30/06/2020
251 395100 ANDREA LANNA MENDES NOVAIS ANALISTA DO MP BELO HORIZONTE - COMARCA; PROMOT ESTADUAL DE DEF PATRI CULT E TUR DE MG 13.011,52 2.602,30 0,00 0,00 0,00 0,00 0,00 1.550,00 17.163,82 1.717,52 2.899,99 0,00 0,00 4.617,51 12.546,31 30/06/2020
252 67300 ANDREA LEAO MAGALHAES ROQUE ASSESSOR BELO HORIZONTE - COMARCA; COORD ESTADUAL COMBATE CRIMES CIBERNETICOS 0,00 7.278,26 10.397,52 8.837,89 0,00 0,00 0,00 1.550,00 28.063,67 713,09 4.045,74 0,00 0,00 4.758,83 23.304,84 30/06/2020
253 335700 ANDREA LOPES PEREIRA ANALISTA DO MP GOVERNADOR VALADARES - COMARCA; COORD REG DO MA DA BACIA DO RIO DOCE 15.272,02 4.581,61 0,00 9.926,82 0,00 0,00 0,00 1.550,00 31.330,45 2.183,90 3.989,82 0,00 0,00 6.173,72 25.156,73 30/06/2020
254 389200 ANDREA TUPINI DOS SANTOS TRISTAO DA ROCHA COORDENADOR/OFICIAL BELO HORIZONTE - COMARCA; BH-13ª PJ JUÍZO DE TÓXICOS-SECRETARIA 0,00 2.363,83 11.819,15 7.091,49 0,00 0,00 0,00 1.550,00 22.824,47 1.610,30 2.535,99 0,00 0,00 4.146,29 18.678,18 30/06/2020
255 419000 ANDREIA BARBOSA DE ALMEIDA ANALISTA DO MP BELO HORIZONTE - COMARCA; GABINETE DE PROCURADOR DE JUSTIÇA - SALA 705 12.204,02 2.440,80 0,00 7.322,41 0,00 0,00 0,00 1.550,00 23.517,23 1.610,93 2.714,96 0,00 0,00 4.325,89 19.191,34 30/06/2020
256 281501 ANDREIA CARLA COSTA FILGUEIRAS ANALISTA DO MP VISCONDE DO RIO BRANCO - COMARCA; VISCONDE DO RIO BRANCO-PJ-02PJ 12.601,30 2.520,26 0,00 7.560,78 0,00 0,00 0,00 1.550,00 24.232,34 1.663,37 2.831,64 0,00 0,00 4.495,01 19.737,33 30/06/2020
257 643600 ANDREIA CRISTINA SILVA OFICIAL DO MP PARACATU - COMARCA; PARACATU-PJ-01PJ 4.665,64 279,94 0,00 2.472,79 0,00 0,00 0,00 1.550,00 8.968,37 544,01 354,22 0,00 0,00 898,23 8.070,14 30/06/2020
258 477100 ANDREIA DE ALMEIDA RIBEIRO MELO OFICIAL DO MP CONTAGEM - COMARCA; CONTAGEM-PJ-07PJ 7.421,79 1.484,36 0,00 4.453,08 0,00 0,00 0,00 1.550,00 14.909,23 979,68 1.310,42 0,00 0,00 2.290,10 12.619,13 30/06/2020
259 619000 ANDREIA FERREIRA NORONHA COORDENADOR/OFICIAL BELO HORIZONTE - COMARCA; DIRETORIA DE SERVICO CRIMINAL 0,00 1.343,52 13.435,16 7.389,34 0,00 0,00 0,00 1.550,00 23.718,02 679,68 3.007,62 0,00 0,00 3.687,30 20.030,72 30/06/2020
260 424000 ANDREIA LUCIA COUTO ANALISTA DO MP BELO HORIZONTE - COMARCA; BH-18PJ DIREITOS HUMANOS-SECRETARIA 12.601,30 2.520,26 0,00 7.560,78 0,00 0,00 0,00 1.550,00 24.232,34 1.663,37 2.831,64 0,00 0,00 4.495,01 19.737,33 30/06/2020
261 370100 ANDREIA MARIA SILVA PINTO OFICIAL DO MP CORONEL FABRICIANO - COMARCA; CORONEL FABRICIANO-PJ-01PJ 8.858,43 1.771,69 0,00 5.315,06 0,00 0,00 0,00 2.319,39 18.264,57 1.169,31 1.732,36 0,00 0,00 2.901,67 15.362,90 30/06/2020
262 382100 ANDREIA NATALI PEREIRA DE OLIVEIRA OFICIAL DO MP PRADOS - COMARCA; PRADOS-PJ-UNPJ 8.579,10 1.715,82 0,00 5.147,46 3.431,64 0,00 0,00 1.550,00 20.424,02 1.132,44 2.594,02 0,00 0,00 3.726,46 16.697,56 30/06/2020
263 275200 ANDREIA RIBEIRO FREITAS OFICIAL DO MP VIÇOSA - COMARCA; VICOSA-PJ-03PJ 10.069,62 3.020,89 0,00 6.545,26 0,00 0,00 0,00 1.550,00 21.185,77 1.439,96 2.282,40 0,00 0,00 3.722,36 17.463,41 30/06/2020
264 352200 ANDREIA XAVIER PEREIRA OFICIAL DO MP CLÁUDIO - COMARCA; CLAUDIO-PJ-UNPJ 9.444,70 1.888,94 0,00 5.666,82 0,00 0,00 0,00 1.550,00 18.550,46 1.246,70 1.904,55 0,00 0,00 3.151,25 15.399,21 30/06/2020
265 638500 ANDRESA ALVES FEITOSA CASAGRANDE ANALISTA DO MP PERDÕES - COMARCA; PERDOES-PJ-UNPJ 7.421,79 742,18 0,00 4.081,99 0,00 0,00 0,00 1.550,00 13.795,96 671,12 1.191,17 0,00 0,00 1.862,29 11.933,67 30/06/2020
266 383700 ANDRESSA EDUARDO SOUZA ANALISTA DO MP OURO BRANCO - COMARCA; OURO BRANCO-PJ-SECRETARIA 13.011,52 2.602,30 0,00 5.472,09 0,00 0,00 0,00 3.088,78 24.174,69 1.717,52 2.952,12 0,00 0,00 4.669,64 19.505,05 30/06/2020
267 426200 ANDRESSA MENDES CASAL OFICIAL DO MP BELO HORIZONTE - COMARCA; DIR ESTRUTURA E PROCESSOS ORGANIZACIONAIS 6.741,63 1.348,33 0,00 4.044,98 0,00 0,00 0,00 1.550,00 13.684,94 889,90 1.109,44 0,00 0,00 1.999,34 11.685,60 30/06/2020
268 390100 ANDRESSA RIBEIRO PUCCI OFICIAL DO MP UBERABA - COMARCA; UBERABA-PJ-14PJ 6.529,10 1.305,82 0,00 2.962,42 2.611,64 0,00 0,00 1.550,00 14.958,98 861,84 1.766,44 0,00 0,00 2.628,28 12.330,70 30/06/2020
269 462500 ANDREZA APARECIDA COSTA E SILVA ANALISTA DO MP CONSELHEIRO LAFAIETE - COMARCA; CONSELHEIRO LAFAIETE-PJ-02PJ 10.069,62 1.006,96 0,00 5.538,29 0,00 0,00 0,00 1.550,00 18.164,87 1.218,42 1.841,63 0,00 0,00 3.060,05 15.104,82 30/06/2020
270 537800 ANDREZZA LUZIA DE OLIVEIRA ALVES ANALISTA DO MP PATOS DE MINAS - COMARCA; COORD REG PJ DEF EDU DIR CRI ADO AL PAR NOROE 8.436,53 843,65 0,00 4.640,09 0,00 0,00 0,00 1.550,00 15.470,27 1.020,82 1.349,83 0,00 0,00 2.370,65 13.099,62 30/06/2020
271 491600 ANE PATRICIA RIBEIRO ANALISTA DO MP SETE LAGOAS - COMARCA; SETE LAGOAS-PJ-11PJ 10.069,62 1.006,96 0,00 4.034,33 0,00 0,00 0,00 1.550,00 16.660,91 1.218,42 1.789,50 0,00 0,00 3.007,92 13.652,99 30/06/2020
272 465800 ANELISE GAMA ASSESSOR BELO HORIZONTE - COMARCA; BH-18PJ VIOLENCIA DOMESTICA-SECRETARIA 0,00 0,00 8.170,49 3.137,99 0,00 0,00 0,00 1.550,00 12.858,48 713,09 1.483,92 0,00 0,00 2.197,01 10.661,47 30/06/2020
273 535200 ANELIZE FERNANDA ALVES VILARINHO OFICIAL DO MP CAPINÓPOLIS - COMARCA; CAPINOPOLIS-PJ-UNPJ 4.974,42 497,44 0,00 2.735,93 0,00 0,00 0,00 2.319,39 10.527,18 601,90 469,88 0,00 0,00 1.071,78 9.455,40 30/06/2020
274 197200 ANGELA COELHO SALDANHA OFICIAL DO MP PARÁ DE MINAS - COMARCA; PARA DE MINAS-PJ-03PJ 14.790,66 5.916,26 0,00 10.353,46 0,00 0,00 0,00 1.550,00 32.610,38 2.277,76 4.198,66 0,00 0,00 6.476,42 26.133,96 30/06/2020
275 307400 ANGELA CRISTINA GONCALVES MUNIZ ANALISTA DO MP UBERLÂNDIA - COMARCA; UBERLANDIA-PJ-SEC FAMILIA 16.750,82 6.700,33 0,00 11.725,58 0,00 0,00 0,00 2.319,39 37.496,12 2.579,63 4.818,17 0,00 0,00 7.397,80 30.098,32 30/06/2020
276 191800 ANGELA MARIA DE OLIVEIRA OFICIAL DO MP GUARANÉSIA - COMARCA; GUARANESIA-PJ-SECRETARIA 14.790,66 10.353,47 0,00 12.572,07 0,00 0,00 460,98 6.578,83 44.756,01 2.765,85 5.232,53 0,00 0,00 7.998,38 36.757,63 30/06/2020
277 497400 ANGELA MARIA HENRIQUES ANALISTA DO MP BELO HORIZONTE - COMARCA; COORD REG BACIAS RIO VELHAS E PARAOPEBA 10.069,62 1.006,96 0,00 5.538,29 0,00 0,00 0,00 1.550,00 18.164,87 1.218,42 1.841,63 0,00 0,00 3.060,05 15.104,82 30/06/2020
278 260700 ANGELICA CRISTINA AZEVEDO MOREIRA MOUCO OFICIAL DO MP UBÁ - COMARCA; UBA-PJ-05PJ 12.204,02 3.661,21 0,00 7.932,62 0,00 0,00 0,00 1.550,00 25.347,85 1.745,18 3.013,65 0,00 0,00 4.758,83 20.589,02 30/06/2020
279 334600 ANGELICA PANISSA DE FREITAS GALLATI OFICIAL DO MP GUAXUPÉ - COMARCA; GUAXUPE-PJ-02PJ 9.444,70 2.833,41 0,00 6.139,06 0,00 0,00 0,00 2.319,39 20.736,56 1.350,59 2.135,71 0,00 0,00 3.486,30 17.250,26 30/06/2020
280 521100 ANGELICA SALES MOREIRA OFICIAL DO MP BELO HORIZONTE - COMARCA; BH-02PJ FAMILIA-SECRETARIA 6.741,63 674,16 0,00 3.707,90 0,00 0,00 0,00 1.550,00 12.673,69 815,74 945,65 0,00 0,00 1.761,39 10.912,30 30/06/2020
281 466500 ANGELLO MARQUES AGRELLI ANALISTA DO MP MAR DE ESPANHA - COMARCA; MAR DE ESPANHA-PJ-UNPJ 10.069,62 1.006,96 0,00 5.538,29 0,00 0,00 0,00 1.550,00 18.164,87 1.218,42 1.841,63 0,00 0,00 3.060,05 15.104,82 30/06/2020
282 363300 ANGELO VERDOLIN HENRIQUES ANALISTA DO MP SETE LAGOAS - COMARCA; SETE LAGOAS-PJ-04PJ 14.790,66 5.916,26 0,00 7.115,25 0,00 0,00 0,00 2.319,39 30.141,56 2.277,76 4.198,66 0,00 0,00 6.476,42 23.665,14 30/06/2020
283 250900 ANISIO APARECIDO SANTOS OFICIAL DO MP MARIANA - COMARCA; MARIANA-PJ-02PJ 6.123,79 2.449,52 0,00 4.286,66 0,00 0,00 0,00 1.550,00 14.409,97 943,06 558,05 0,00 0,00 1.501,11 12.908,86 30/06/2020
284 651200 ANITA MARIA SANT ANA DE MATTOS FONTES OFICIAL DO MP ERVÁLIA - COMARCA; ERVALIA-PJ-UNPJ 4.665,64 3.265,94 0,00 0,00 0,00 0,00 0,00 1.550,00 9.481,58 872,47 1.019,76 0,00 0,00 1.892,23 7.589,35 30/06/2020
285 253400 ANNA FLAVIA LEHMAN BATTAGLIA ANALISTA DO MP BELO HORIZONTE - COMARCA; CAO-PATRIMONIO PUBLICO 17.413,92 5.224,18 0,00 11.319,05 0,00 0,00 0,00 1.550,00 35.507,15 2.490,19 4.514,90 0,00 0,00 7.005,09 28.502,06 30/06/2020
286 447600 ANNGELUCE ALCANTARA DE CAMPOS OFICIAL DO MP DIVINÓPOLIS - COMARCA; DIVINOPOLIS-PJ-SECRETARIA 6.529,10 1.305,82 0,00 3.917,46 0,00 0,00 0,00 1.550,00 13.302,38 861,84 1.048,24 0,00 0,00 1.910,08 11.392,30 30/06/2020
287 119600 ANSELMO BORGES PARREIRAS OFICIAL DO MP BONFIM - COMARCA; BONFIM-PJ-UNPJ 7.663,37 6.130,70 0,00 6.897,04 0,00 1.726,97 0,00 1.550,00 23.968,08 1.517,35 2.871,87 0,00 0,00 4.389,22 19.578,86 30/06/2020
288 630300 ANTONIA GOMES RAMALHO OFICIAL DO MP NOVO CRUZEIRO - COMARCA; NOVO CRUZEIRO-PJ-UNPJ 5.217,34 521,73 0,00 2.869,54 0,00 0,00 0,00 1.550,00 10.158,61 631,30 535,28 0,00 0,00 1.166,58 8.992,03 30/06/2020
289 332400 ANTONIA MARIA MAMEDE OFICIAL DO MP UBERLÂNDIA - COMARCA; COORD REG PP TRIANGULO MINEIRO UBERLANDIA 9.444,70 2.833,41 0,00 4.885,50 0,00 1.523,77 0,00 1.550,00 20.237,38 1.350,59 2.507,12 0,00 0,00 3.857,71 16.379,67 30/06/2020
290 401600 ANTONIO CARLOS GUEDES AROUCA ANALISTA DO MP BELO HORIZONTE - COMARCA; COORD EST DEF DIR FAM PESSOAS DEFICI IDOSOS 11.446,46 2.289,29 0,00 6.867,88 0,00 0,00 0,00 1.550,00 22.153,63 1.510,93 2.492,47 0,00 0,00 4.003,40 18.150,23 30/06/2020
291 333900 ANTONIO GONCALVES DE SOUZA FILHO OFICIAL DO MP BELO HORIZONTE - COMARCA; DIRETORIA DE CONTABILIDADE 9.444,70 2.833,41 0,00 6.139,06 0,00 0,00 0,00 1.550,00 19.967,17 1.350,59 2.135,71 0,00 0,00 3.486,30 16.480,87 30/06/2020
292 176100 ANTONIO MARCELO CAMPOS CAMPANELLA OFICIAL DO MP BELO HORIZONTE - COMARCA; COORD DE GABINETE DO PGJ 14.790,66 7.395,33 0,00 11.093,00 0,00 0,00 0,00 1.550,00 34.828,99 2.440,46 4.560,66 0,00 0,00 7.001,12 27.827,87 30/06/2020
293 321001 ANTONIO OLINTO VIEIRA MACHADO ANALISTA DO MP BELO HORIZONTE - COMARCA; CENTRAL DE APOIO TECN-SETOR DE MEIO AMBIENTE 13.011,52 2.602,30 0,00 7.806,91 0,00 0,00 0,00 1.550,00 24.970,73 1.717,52 2.847,85 0,00 0,00 4.565,37 20.405,36 30/06/2020
294 356200 ANTONIO PAULA DA SILVA OFICIAL DO MP JUIZ DE FORA - COMARCA; JUIZ DE FORA-PJ-20PJ 8.436,53 2.530,96 0,00 5.483,75 0,00 0,00 0,00 1.550,00 18.001,24 1.206,42 1.814,93 0,00 0,00 3.021,35 14.979,89 30/06/2020
295 119900 ANTONIO RODRIGUES DE PINHO OFICIAL DO MP GUANHÃES - COMARCA; GUANHAES-PJ-01PJ 14.324,23 10.026,96 0,00 0,00 0,00 0,00 0,00 2.319,39 26.670,58 2.678,63 4.986,32 0,00 0,00 7.664,95 19.005,63 30/06/2020
296 373300 ANTONIO SERGIO ANANIAS OFICIAL DO MP AIURUOCA - COMARCA; AIURUOCA-PJ-UNPJ 7.912,85 1.582,57 0,00 4.747,71 0,00 0,00 0,00 1.550,00 15.793,13 1.044,50 1.350,37 0,00 0,00 2.394,87 13.398,26 30/06/2020
297 608100 ANTONIO SIDINEY VIEIRA LEMOS ANALISTA DO MP PIRAPORA - COMARCA; PIRAPORA-PJ-01PJ 8.170,49 3.268,20 0,00 5.719,35 0,00 0,00 0,00 1.550,00 18.708,04 1.258,26 1.930,26 0,00 0,00 3.188,52 15.519,52 30/06/2020
298 374700 ANTONIO SILVA NETO OFICIAL DO MP BELO HORIZONTE - COMARCA; GAECO - SECRETARIA 8.579,10 1.715,82 0,00 5.147,46 0,00 0,00 0,00 1.550,00 16.992,38 1.132,44 1.650,32 0,00 0,00 2.782,76 14.209,62 30/06/2020
299 636700 ANTONIUS VITORIANO FERNANDES OFICIAL DO MP BELO HORIZONTE - COMARCA; ASSESSORIA JURIDICA DO PROCON-MG 4.376,03 437,60 0,00 0,00 0,00 0,00 0,00 1.550,00 6.363,63 529,50 327,80 0,00 0,00 857,30 5.506,33 30/06/2020
300 413200 ANY PEREIRA SILVA ANALISTA DO MP TRÊS PONTAS - COMARCA; TRES PONTAS-PJ-01PJ 12.204,02 2.440,80 0,00 7.322,41 0,00 0,00 0,00 1.550,00 23.517,23 1.610,93 2.662,82 0,00 0,00 4.273,75 19.243,48 30/06/2020
301 151401 APARECIDA DE FATIMA MENDES DE ALMEIDA ASSESSOR JUIZ DE FORA - COMARCA; JUIZ DE FORA-PJ-SECRETARIA 0,00 0,00 5.136,32 2.568,16 0,00 0,00 0,00 1.550,00 9.254,48 713,09 649,53 0,00 0,00 1.362,62 7.891,86 30/06/2020
302 329300 APARECIDA MARIA MELO DE ASSIS OFICIAL DO MP BELO HORIZONTE - COMARCA; BH-18PJ DIREITOS HUMANOS-SECRETARIA 10.069,62 3.020,89 0,00 6.545,26 0,00 0,00 0,00 1.550,00 21.185,77 1.439,96 2.334,54 0,00 0,00 3.774,50 17.411,27 30/06/2020
303 475300 APARECIDA MARLENE FREIRE ROSA ANALISTA DO MP BELO HORIZONTE - COMARCA; BH-02PJ FAMILIA-SECRETARIA 11.085,56 9.977,00 0,00 10.531,28 0,00 2.508,40 0,00 1.550,00 35.652,24 2.316,88 4.922,84 0,00 0,00 7.239,72 28.412,52 30/06/2020
304 240300 APARECIDA PEREIRA DO NASCIMENTO OFICIAL DO MP ITURAMA - COMARCA; ITURAMA-PJ-01PJ 12.601,30 8.820,91 0,00 10.711,11 0,00 2.536,83 0,00 1.550,00 36.220,15 2.356,44 5.021,75 0,00 0,00 7.378,19 28.841,96 30/06/2020
305 653000 APARECIDA ROSA DE LIMA ASSESSOR BELO HORIZONTE - COMARCA; SECRETARIA PROCESSOS DISCIPES ADMINISTRATIVOS 0,00 0,00 8.170,49 4.085,25 0,00 0,00 0,00 1.550,00 13.805,74 713,09 1.483,92 0,00 0,00 2.197,01 11.608,73 30/06/2020
306 354500 APARECIDA VIEIRA DE CARVALHO OFICIAL DO MP BELO HORIZONTE - COMARCA; DIVISÃO DE EDUCAÇÃO PARA O CONSUMO 7.421,79 1.484,36 0,00 4.453,08 0,00 0,00 0,00 1.550,00 14.909,23 979,68 1.310,42 0,00 0,00 2.290,10 12.619,13 30/06/2020
307 551000 ARACELES BICALHO FELIX ANALISTA DO MP MANHUAÇU - COMARCA; MANHUACU-PJ-02PJ 8.436,53 843,65 0,00 4.640,09 0,00 0,00 0,00 2.319,39 16.239,66 1.020,82 1.401,96 0,00 0,00 2.422,78 13.816,88 30/06/2020
308 286200 ARACELI MEDRADO DOS SANTOS LIMA OFICIAL DO MP PARACATU - COMARCA; PARACATU-PJ-03PJ 6.123,79 1.837,14 0,00 3.980,47 0,00 0,00 0,00 1.550,00 13.491,40 875,70 1.079,08 0,00 0,00 1.954,78 11.536,62 30/06/2020
309 189000 ARAHY MARQUES SILVA OFICIAL DO MP BELO HORIZONTE - COMARCA; BH-13ª PJ JUÍZO DE TÓXICOS-SECRETARIA 6.123,79 2.449,52 0,00 4.286,66 0,00 0,00 0,00 1.550,00 14.409,97 943,06 1.228,96 0,00 0,00 2.172,02 12.237,95 30/06/2020
310 112200 ARAQUEM AUGUSTO DE MATOS AGENTE DO MP BELO HORIZONTE - COMARCA; BH-23PJ CIVEL-SEC EXP CIVEIS 6.741,63 5.393,30 0,00 6.067,47 0,00 1.441,00 0,00 1.550,00 21.193,40 1.334,84 2.311,33 0,00 0,00 3.646,17 17.547,23 30/06/2020
311 280600 ARDUINO FRATTEZI ANALISTA DO MP BELO HORIZONTE - COMARCA; CENTRAL DE APOIO TECNICO-SETOR CONTABIL 16.750,82 5.025,25 0,00 10.888,04 0,00 0,00 0,00 1.550,00 34.214,11 2.395,37 4.460,33 0,00 0,00 6.855,70 27.358,41 30/06/2020
312 520201 ARIANE DE FATIMA CARVALHO ALMEIDA RODRIGUES ANALISTA DO MP VESPASIANO - COMARCA; VESPASIANO-PJ-04PJ 8.170,49 817,05 0,00 3.412,48 0,00 0,00 0,00 2.319,39 14.719,41 988,63 1.173,93 0,00 0,00 2.162,56 12.556,85 30/06/2020
313 537600 ARIELA FREIRE MONTIJO ANALISTA DO MP ARCOS - COMARCA; ARCOS-PJ-01PJ 8.436,53 843,65 0,00 4.640,09 0,00 0,00 0,00 2.319,39 16.239,66 1.020,82 1.297,69 0,00 0,00 2.318,51 13.921,15 30/06/2020
314 182000 ARILSON ALEXANDRE MARTINS MAGALHAES OFICIAL DO MP JOÃO MONLEVADE - COMARCA; JOAO MONLEVADE-PJ-01PJ 14.324,23 7.162,12 0,00 10.743,18 0,00 0,00 0,00 3.088,78 35.318,31 2.363,50 4.180,87 0,00 0,00 6.544,37 28.773,94 30/06/2020
315 511000 ARISLANE CAROLINA DA SILVA ANALISTA DO MP CAMPINA VERDE - COMARCA; CAMPINA VERDE-PJ-UNPJ 10.069,62 1.006,96 0,00 5.538,29 0,00 0,00 0,00 3.088,78 19.703,65 1.218,42 1.841,63 0,00 0,00 3.060,05 16.643,60 30/06/2020
316 170000 ARLEY BRITES DA SILVA ASSESSOR BELO HORIZONTE - COMARCA; BH-14PJ DEFESA CONSUMIDOR-SECRETARIA 0,00 2.054,53 5.136,32 3.595,43 0,00 0,00 0,00 1.550,00 12.336,28 713,09 554,58 0,00 0,00 1.267,67 11.068,61 30/06/2020
317 120400 ARLINDO CASSIO DA CRUZ OFICIAL DO MP SÃO GONÇALO DO SAPUCAÍ - COMARCA; SAO GONCALO DO SAPUCAI-PJ-01PJ 18.820,14 15.056,11 0,00 16.938,13 0,00 10.433,89 0,00 1.550,00 62.798,27 3.726,39 10.186,90 0,00 0,00 13.913,29 48.884,98 30/06/2020
318 243700 ARLINDO MARCIO LACERDA OFICIAL DO MP CONTAGEM - COMARCA; CONTAGEM-PJ-03PJ 12.204,02 4.881,61 0,00 9.265,45 0,00 0,00 1.445,27 1.550,00 29.346,35 1.879,42 3.709,80 0,00 0,00 5.589,22 23.757,13 30/06/2020
319 392100 ARNALDO DE ANDRADE OFICIAL DO MP DIVINÓPOLIS - COMARCA; DIVINOPOLIS-PJ-02PJ 8.579,10 1.715,82 0,00 5.870,10 0,00 0,00 1.445,27 2.319,39 19.929,68 1.132,44 1.995,63 0,00 0,00 3.128,07 16.801,61 30/06/2020
320 642400 ARTANE INARDE DE SIQUEIRA DAMASCENO ANALISTA DO MP BELO HORIZONTE - COMARCA; PROC JUST RECURSOS ESP E EXTRAORD CRIMINAIS 7.421,79 445,31 0,00 3.933,55 0,00 0,00 0,00 2.319,39 14.120,04 671,12 1.109,54 0,00 0,00 1.780,66 12.339,38 30/06/2020
321 302100 AUGUSTO ROUSSEAU DE CASTRO ANALISTA DO MP CATAGUASES - COMARCA; CATAGUASES-PJ-02PJ 16.750,82 5.025,25 0,00 10.888,04 0,00 0,00 0,00 1.550,00 34.214,11 2.395,37 4.460,33 0,00 0,00 6.855,70 27.358,41 30/06/2020
322 540200 AUREA AVELAR BITTENCOURT OFICIAL DO MP BELO HORIZONTE - COMARCA; GRUPO ESP PROM JUST DEF PROB ADM PAT PUB 4.974,42 497,44 0,00 2.735,93 0,00 0,00 0,00 1.550,00 9.757,79 601,90 374,30 0,00 0,00 976,20 8.781,59 30/06/2020
323 183200 AURELIANO MAGELA DE REZENDE COORDENADOR/OFICIAL BELO HORIZONTE - COMARCA; COORD DE GABINETE DO PGJ 14.324,23 5.729,69 2.687,03 11.370,48 0,00 0,00 0,00 1.550,00 35.661,43 2.205,93 4.777,77 0,00 0,00 6.983,70 28.677,73 30/06/2020
324 629400 AYESKA DA COSTA VAL MOURA DABIEN OFICIAL DO MP BELO HORIZONTE - COMARCA; SUPERINTENDENCIA DE RECURSOS HUMANOS 5.217,34 521,73 0,00 2.869,54 1.913,02 0,00 0,00 1.550,00 12.071,63 631,30 1.061,36 0,00 0,00 1.692,66 10.378,97 30/06/2020
325 652800 BARBARA JULIANNE MOREIRA CASTRO ASSESSOR BELO HORIZONTE - COMARCA; ASSESS TECNICO-JUR JUNTO AS PROC. DE JUST 0,00 0,00 8.170,49 4.085,25 0,00 0,00 0,00 1.550,00 13.805,74 713,09 1.483,92 0,00 0,00 2.197,01 11.608,73 30/06/2020
326 663600 BARBARA REGINA PEREIRA DE PINHO MAGALHAES ASSESSOR BELO HORIZONTE - COMARCA; CAO-DH CONT EXT ATIV POLIC E AP COMUNIT-REC 0,00 0,00 8.170,49 3.137,99 0,00 0,00 0,00 1.550,00 12.858,48 713,09 1.483,92 0,00 0,00 2.197,01 10.661,47 30/06/2020
327 546500 BARBARA ZACARONI GOULART OFICIAL DO MP BETIM - COMARCA; BETIM-PJ-08PJ 4.974,42 497,44 0,00 2.200,04 0,00 0,00 0,00 1.550,00 9.221,90 601,90 469,88 0,00 0,00 1.071,78 8.150,12 30/06/2020
328 316500 BEATRIZ ABILVIA DA SILVA ANALISTA DO MP GOVERNADOR VALADARES - COMARCA; GOVERNADOR VALADARES-PJ-07PJ 15.272,02 4.581,61 0,00 9.926,82 0,00 0,00 0,00 1.550,00 31.330,45 2.183,90 3.989,82 0,00 0,00 6.173,72 25.156,73 30/06/2020
329 311800 BEATRIZ APARECIDA SOARES GANEM OFICIAL DO MP ITAMBACURI - COMARCA; ITAMBACURI-PJ-02PJ 10.069,62 3.020,89 0,00 6.545,26 0,00 0,00 0,00 1.550,00 21.185,77 1.439,96 2.178,13 0,00 0,00 3.618,09 17.567,68 30/06/2020
330 266800 BEATRIZ AUGUSTA VILACA GOMES DE HUBER OFICIAL DO MP BELO HORIZONTE - COMARCA; BH-05PJ-JUÍZO SUCESSÕES-SEC 8.858,43 2.657,53 0,00 0,00 0,00 0,00 0,00 1.550,00 13.065,96 1.266,76 1.949,17 0,00 0,00 3.215,93 9.850,03 30/06/2020
331 235200 BEATRIZ BOTELHO BATISTA OFICIAL DO MP BELO HORIZONTE - COMARCA; BH-21PJ TUTELA FUNDACOES-SECRETARIA 10.069,62 4.027,85 0,00 7.048,74 0,00 0,00 0,00 1.550,00 22.696,21 1.550,72 2.581,00 0,00 0,00 4.131,72 18.564,49 30/06/2020
332 182300 BEATRIZ PAULA SOUSA RAMOS OFICIAL DO MP MARIANA - COMARCA; MARIANA-PJ-01PJ 14.324,23 7.162,12 0,00 0,00 0,00 0,00 0,00 1.550,00 23.036,35 2.363,50 4.337,29 0,00 0,00 6.700,79 16.335,56 30/06/2020
333 507000 BELCHIOR FRANKLIN AMARAL LEITE ANALISTA DO MP BELO HORIZONTE - COMARCA; CENTRAL DE APOIO TECNICO 10.069,62 1.006,96 0,00 4.086,47 0,00 0,00 0,00 2.319,39 17.482,44 1.218,42 1.685,22 0,00 0,00 2.903,64 14.578,80 30/06/2020
334 345100 BENITO ELIAS RODRIGUES ANALISTA DO MP BARBACENA - COMARCA; BARBACENA - SECRETARIA DAS PJS CRIMINAIS 14.790,66 2.958,13 0,00 8.874,40 0,00 0,00 0,00 1.550,00 28.173,19 1.952,37 3.474,66 0,00 0,00 5.427,03 22.746,16 30/06/2020
335 207300 BENITO VIEIRA DOS SANTOS ANALISTA DO MP BELO HORIZONTE - COMARCA; COMB CRIMES PRAT POR AG POL MUN-ASSESSORIA 18.820,14 7.528,06 0,00 13.174,10 0,00 3.046,66 0,00 1.550,00 44.118,96 2.898,30 4.516,81 0,00 0,00 7.415,11 36.703,85 30/06/2020
336 480200 BERNADETE NUNES DOS SANTOS ANALISTA DO MP GUANHÃES - COMARCA; GUANHAES-PJ-02PJ 10.069,62 3.020,89 0,00 4.658,01 0,00 0,00 0,00 1.550,00 19.298,52 1.439,96 2.334,54 0,00 0,00 3.774,50 15.524,02 30/06/2020
337 378400 BETANIA FARNESI DE SOUZA E SILVA OFICIAL DO MP SETE LAGOAS - COMARCA; SETE LAGOAS-PJ-SEC CRIMINAIS 8.579,10 3.431,64 0,00 6.005,37 0,00 0,00 0,00 1.550,00 19.566,11 1.321,18 2.018,13 0,00 0,00 3.339,31 16.226,80 30/06/2020
338 387400 BETANIA MENDONCA DE ASSIS CARVALHO ANALISTA DO MP JUIZ DE FORA - COMARCA; JUIZ DE FORA-PJ-03PJ 13.011,52 2.602,30 0,00 7.806,91 0,00 0,00 0,00 2.319,39 25.740,12 1.717,52 2.899,99 0,00 0,00 4.617,51 21.122,61 30/06/2020
339 450300 BIANCA OLIVEIRA DE ALBUQUERQUE ANALISTA DO MP BELO HORIZONTE - COMARCA; BH-10PJ EXECUÇÃO PENAL-SECRETARIA 10.069,62 2.013,92 0,00 6.041,77 0,00 0,00 0,00 2.319,39 20.444,70 1.329,19 2.088,09 0,00 0,00 3.417,28 17.027,42 30/06/2020
340 535400 BIANCA SALOTO ROSSI ANALISTA DO MP SANTOS DUMONT - COMARCA; SANTOS DUMONT-PJ-01PJ 8.436,53 843,65 0,00 4.640,09 0,00 0,00 0,00 1.550,00 15.470,27 1.020,82 1.401,96 0,00 0,00 2.422,78 13.047,49 30/06/2020
341 120800 BRAS MARQUES DE SOUZA ANALISTA DO MP BELO HORIZONTE - COMARCA; SUPERINTENDENCIA DE GESTAO ADMINISTRATIVA 23.757,25 19.005,81 0,00 17.731,11 0,00 3.900,84 520,11 7.223,96 72.139,08 3.900,84 8.778,48 7.300,84 0,00 19.980,16 52.158,92 30/06/2020
342 460900 BRENO CRISTIANO DE SOUZA REZENDE ANALISTA DO MP ITAÚNA - COMARCA; ITAUNA-PJ-02PJ 9.444,70 944,47 0,00 5.194,59 0,00 0,00 0,00 1.550,00 17.133,76 1.142,81 1.673,39 0,00 0,00 2.816,20 14.317,56 30/06/2020
343 239000 BRENO VENANCIO ROMANINI OFICIAL DO MP BELO HORIZONTE - COMARCA; BH-20PJ ORD ECON TRIBUTARIA-SECRETARIA 10.069,62 3.020,89 0,00 0,00 0,00 0,00 0,00 1.550,00 14.640,51 1.439,96 2.334,54 0,00 0,00 3.774,50 10.866,01 30/06/2020
344 202201 BRIGITTE AMARALINA DE CALDAS LIMA OFICIAL DO MP NANUQUE - COMARCA; NANUQUE-PJ-03PJ 10.069,62 4.027,85 0,00 7.048,74 0,00 0,00 0,00 1.550,00 22.696,21 1.550,72 2.320,31 0,00 0,00 3.871,03 18.825,18 30/06/2020
345 642300 BRUNA IZABELITA DE FATIMA OLIVEIRA COSTA OFICIAL DO MP BELO HORIZONTE - COMARCA; BH-02PJ FAMILIA-SECRETARIA 4.817,57 289,05 0,00 0,00 0,00 0,00 0,00 1.550,00 6.656,62 561,73 386,47 0,00 0,00 948,20 5.708,42 30/06/2020
346 513600 BRUNA KARLA MARTINS CARVALHO ANALISTA DO MP GOVERNADOR VALADARES - COMARCA; GOVERNADOR VALADARES-PJ-01PJ 10.069,62 1.006,96 0,00 5.538,29 0,00 0,00 0,00 1.550,00 18.164,87 1.218,42 1.841,63 0,00 0,00 3.060,05 15.104,82 30/06/2020
347 415100 BRUNA MARIA SOARES OLIVEIRA COSTA RAMOS ANALISTA DO MP UBÁ - COMARCA; COORD REG BACIA DO RIO PARAIBA DO SUL 12.601,30 2.520,26 0,00 5.313,27 0,00 0,00 0,00 1.550,00 21.984,83 1.663,37 2.831,64 0,00 0,00 4.495,01 17.489,82 30/06/2020
348 470000 BRUNA MORAES ANALISTA DO MP TOMBOS - COMARCA; TOMBOS-PJ-UNPJ 11.085,56 1.108,56 0,00 6.097,06 0,00 0,00 0,00 2.319,39 20.610,57 1.341,35 1.958,74 0,00 0,00 3.300,09 17.310,48 30/06/2020
349 614700 BRUNA NATTANY DE LIMA OFICIAL DO MP MANTENA - COMARCA; MANTENA-PJ-01PJ 5.217,34 521,73 0,00 2.869,54 0,00 0,00 0,00 1.550,00 10.158,61 631,30 535,28 0,00 0,00 1.166,58 8.992,03 30/06/2020
350 631800 BRUNA RAPOSO JORGE OFICIAL DO MP JUIZ DE FORA - COMARCA; JUIZ DE FORA-PJ-06PJ 5.217,34 521,73 0,00 2.869,54 0,00 0,00 0,00 1.550,00 10.158,61 631,30 535,28 0,00 0,00 1.166,58 8.992,03 30/06/2020
351 463800 BRUNO ALVES TEIXEIRA ANALISTA DO MP UBERLÂNDIA - COMARCA; UBERLANDIA-PJ-04PJ 10.069,62 1.006,96 0,00 5.538,29 0,00 0,00 0,00 1.550,00 18.164,87 1.218,42 1.841,63 0,00 0,00 3.060,05 15.104,82 30/06/2020
352 538500 BRUNO AUGUSTO DA SILVA OFICIAL DO MP SANTA LUZIA - COMARCA; SANTA LUZIA-PJ-03PJ 5.387,19 538,72 0,00 0,00 0,00 0,00 0,00 2.319,39 8.245,30 651,85 581,01 0,00 0,00 1.232,86 7.012,44 30/06/2020
353 318200 BRUNO BARROS DE SOUZA OFICIAL DO MP UBÁ - COMARCA; UBA-PJ-04PJ 10.069,62 3.020,89 0,00 6.545,26 0,00 0,00 0,00 1.550,00 21.185,77 1.439,96 1.779,75 0,00 0,00 3.219,71 17.966,06 30/06/2020
354 459600 BRUNO CASTELAR LUGAO MENDES OFICIAL DO MP GOVERNADOR VALADARES - COMARCA; GOVERNADOR VALADARES-PJ-05PJ 7.663,37 766,34 0,00 0,00 0,00 0,00 0,00 1.550,00 9.979,71 927,27 1.193,81 0,00 0,00 2.121,08 7.858,63 30/06/2020
355 427400 BRUNO CESAR RIBEIRO DE PAIVA ANALISTA DO MP BELO HORIZONTE - COMARCA; ASSESS JUR DO CONS SUPERIOR DO MINISTERIO PUB 12.601,30 2.520,26 0,00 7.560,78 0,00 0,00 0,00 1.550,00 24.232,34 1.663,37 2.831,64 0,00 0,00 4.495,01 19.737,33 30/06/2020
356 380900 BRUNO CIRILO ANTUNES OFICIAL DO MP VARGINHA - COMARCA; VARGINHA-PJ-05PJ 8.436,53 1.687,31 0,00 5.061,92 0,00 0,00 0,00 1.550,00 16.735,76 1.113,62 1.608,45 0,00 0,00 2.722,07 14.013,69 30/06/2020
357 329000 BRUNO DE MELO REIS ANALISTA DO MP PATROCÍNIO - COMARCA; PATROCINIO-PJ-02PJ 15.272,02 4.581,61 0,00 9.926,82 0,00 0,00 0,00 3.088,78 32.869,23 2.183,90 3.885,54 0,00 0,00 6.069,44 26.799,79 30/06/2020
358 378300 BRUNO HERDY LOPES DE OLIVEIRA ANALISTA DO MP GOVERNADOR VALADARES - COMARCA; GOVERNADOR VALADARES-PJ-SECRETARIA 13.011,52 2.602,30 0,00 7.806,91 0,00 0,00 0,00 1.550,00 24.970,73 1.717,52 2.952,12 0,00 0,00 4.669,64 20.301,09 30/06/2020
359 529700 BRUNO JOSE BUENO DIAS OFICIAL DO MP SÃO SEBASTIÃO DO PARAÍSO - COMARCA; SAO SEBASTIAO DO PARAISO-PJ-02PJ 5.387,19 538,72 0,00 2.962,96 0,00 0,00 0,00 1.550,00 10.438,87 651,85 528,87 0,00 0,00 1.180,72 9.258,15 30/06/2020
360 350100 BRUNO LAUD SERRANO DOS REIS OFICIAL DO MP UBÁ - COMARCA; UBA-PJ-02PJ 8.579,10 2.573,73 0,00 5.576,42 0,00 0,00 0,00 1.550,00 18.279,25 1.226,81 1.808,16 0,00 0,00 3.034,97 15.244,28 30/06/2020
361 373800 BRUNO MARTINO DE ALBUQUERQUE ANALISTA DO MP PONTE NOVA - COMARCA; PONTE NOVA-PJ-03PJ 13.011,52 2.602,30 0,00 7.806,91 0,00 0,00 0,00 1.550,00 24.970,73 1.717,52 2.847,85 0,00 0,00 4.565,37 20.405,36 30/06/2020
362 470400 BRUNO NOVAIS CABRAL ANALISTA DO MP MUTUM - COMARCA; MUTUM-PJ-UNPJ 10.069,62 1.006,96 0,00 5.538,29 0,00 0,00 0,00 1.550,00 18.164,87 1.218,42 1.841,63 0,00 0,00 3.060,05 15.104,82 30/06/2020
363 648600 BRUNO RIBEIRO E MELO ASSESSOR BELO HORIZONTE - COMARCA; CENTRO CERIMONIAL 0,00 0,00 8.170,49 4.085,25 0,00 0,00 0,00 1.550,00 13.805,74 713,09 1.483,92 0,00 0,00 2.197,01 11.608,73 30/06/2020
364 369200 BRUNO ROBERTO DIAS DE OLIVEIRA OFICIAL DO MP BELO HORIZONTE - COMARCA; BH-22PJ PES COM DEF E IDOSOS-SECRETARIA 8.858,43 1.771,69 0,00 5.315,06 0,00 0,00 0,00 1.550,00 17.495,18 1.169,31 1.732,36 0,00 0,00 2.901,67 14.593,51 30/06/2020
365 547700 BRUNO ROBERTO SOUZA GONCALVES ANALISTA DO MP PARACATU - COMARCA; PARACATU-PJ-03PJ 8.436,53 843,65 0,00 4.640,09 0,00 0,00 0,00 3.088,78 17.009,05 1.020,82 1.401,96 0,00 0,00 2.422,78 14.586,27 30/06/2020
366 546100 BRUNO SA VIEIRA ANALISTA DO MP ERVÁLIA - COMARCA; ERVALIA-PJ-UNPJ 8.436,53 843,65 0,00 4.640,09 0,00 0,00 0,00 1.550,00 15.470,27 1.020,82 1.349,83 0,00 0,00 2.370,65 13.099,62 30/06/2020
367 438200 BRUNO SALES PEREIRA ANALISTA DO MP BELO HORIZONTE - COMARCA; CENTRAL DE APOIO TECNICO-SETOR CONTABIL 11.085,56 2.217,11 0,00 6.651,34 0,00 0,00 0,00 2.319,39 22.273,40 1.463,29 2.334,33 0,00 0,00 3.797,62 18.475,78 30/06/2020
368 537400 BRUNO SANT'ANA CESAR ANALISTA DO MP CONTAGEM - COMARCA; CONTAGEM-PJ-19PJ 8.436,53 843,65 0,00 4.640,09 0,00 0,00 0,00 1.550,00 15.470,27 1.020,82 1.401,96 0,00 0,00 2.422,78 13.047,49 30/06/2020
369 405800 CAIO FERNANDO RODRIGUES DE OLIVEIRA ANALISTA DO MP BELO HORIZONTE - COMARCA; ASSESS TECNICO-JUR JUNTO AS PROC. DE JUST 12.601,30 2.520,26 0,00 7.560,78 0,00 0,00 0,00 1.550,00 24.232,34 1.663,37 2.831,64 0,00 0,00 4.495,01 19.737,33 30/06/2020
370 530000 CAIO GUEDES DE OLIVEIRA ANALISTA DO MP DIAMANTINA - COMARCA; DIAMANTINA-PJ-02PJ 8.436,53 843,65 0,00 3.454,76 0,00 0,00 0,00 2.319,39 15.054,33 1.020,82 1.349,83 0,00 0,00 2.370,65 12.683,68 30/06/2020
371 491400 CAIO MIRANDA JUNQUEIRA ANALISTA DO MP BUENO BRANDAO - COMARCA; BUENO BRANDAO-PJ-UNPJ 9.444,70 944,47 0,00 5.194,59 0,00 0,00 0,00 2.319,39 17.903,15 1.142,81 1.569,11 0,00 0,00 2.711,92 15.191,23 30/06/2020
372 415800 CAMILA ALVES DA SILVA ANALISTA DO MP CAETÉ - COMARCA; CAETE-PJ-01PJ 12.601,30 2.520,26 0,00 7.560,78 0,00 0,00 0,00 1.550,00 24.232,34 1.663,37 2.831,64 0,00 0,00 4.495,01 19.737,33 30/06/2020
373 555800 CAMILA CAROLINE ROCHA CHAVES OFICIAL DO MP SALINAS - COMARCA; SALINAS-PJ-01PJ 5.387,19 538,72 0,00 2.346,52 0,00 0,00 0,00 1.550,00 9.822,43 651,85 581,01 0,00 0,00 1.232,86 8.589,57 30/06/2020
374 445200 CAMILA CONDE ROCHA ANALISTA DO MP CONTAGEM - COMARCA; CONTAGEM-PJ-08PJ 10.069,62 2.013,92 0,00 6.041,77 0,00 0,00 0,00 2.319,39 20.444,70 1.329,19 2.088,09 0,00 0,00 3.417,28 17.027,42 30/06/2020
375 419900 CAMILA CUNNINGHAM PIMENTA DE PADUA ANALISTA DO MP BELO HORIZONTE - COMARCA; ASSESSORIA PSICOSSOCIAL 12.601,30 2.520,26 0,00 7.560,78 0,00 0,00 0,00 1.550,00 24.232,34 1.663,37 2.831,64 0,00 0,00 4.495,01 19.737,33 30/06/2020
376 507700 CAMILA ELIZABETH RODRIGUES ANALISTA DO MP BELO HORIZONTE - COMARCA; BH-02PJ FAMILIA-SECRETARIA 10.397,52 1.039,75 0,00 5.718,64 0,00 0,00 0,00 1.550,00 18.705,91 1.258,10 1.929,91 0,00 0,00 3.188,01 15.517,90 30/06/2020
377 372700 CAMILA FONSECA LIMONGE ANALISTA DO MP BETIM - COMARCA; BETIM-PJ-01PJ 13.011,52 2.602,30 0,00 7.806,91 0,00 0,00 0,00 2.319,39 25.740,12 1.717,52 2.952,12 0,00 0,00 4.669,64 21.070,48 30/06/2020
378 621300 CAMILA GOLFETO DE SOUSA VALENTE OFICIAL DO MP ESPERA FELIZ - COMARCA; ESPERA FELIZ-PJ-UNPJ 5.217,34 521,73 0,00 2.361,31 0,00 0,00 0,00 2.319,39 10.419,77 631,30 385,15 0,00 0,00 1.016,45 9.403,32 30/06/2020
379 409800 CAMILA GONCALVES COSTA RIBEIRO ANALISTA DO MP INHAPIM - COMARCA; INHAPIM-PJ-02PJ 10.069,62 2.013,92 0,00 6.041,77 0,00 0,00 0,00 2.319,39 20.444,70 1.329,19 2.035,95 0,00 0,00 3.365,14 17.079,56 30/06/2020
380 335000 CAMILA GONTIJO DE PAIVA ANALISTA DO MP BELO HORIZONTE - COMARCA; COORD DE CONTROLE DA CONSTITUCIONALIDADE 15.499,20 3.099,84 0,00 0,00 0,00 0,00 0,00 2.319,39 20.918,43 2.045,89 3.630,62 0,00 0,00 5.676,51 15.241,92 30/06/2020
381 547800 CAMILA MATTARELLI DE ABREU E SILVA ANALISTA DO MP BELO HORIZONTE - COMARCA; CAO-VIOLENCIA DOMESTICA E FAMILIAR 8.436,53 843,65 0,00 4.640,09 0,00 0,00 0,00 1.550,00 15.470,27 1.020,82 1.401,96 0,00 0,00 2.422,78 13.047,49 30/06/2020
382 430000 CANDIDA MARINA COSTA ANALISTA DO MP BELO HORIZONTE - COMARCA; DIVISAO DE DOCUMENTACAO JURIDICA 12.601,30 2.520,26 0,00 7.560,78 0,00 0,00 0,00 1.550,00 24.232,34 1.663,37 2.831,64 0,00 0,00 4.495,01 19.737,33 30/06/2020
383 614300 CARINA CORTIELHA OFICIAL DO MP BELO HORIZONTE - COMARCA; BH-23PJ CIVEL-SEC EXP CIVEIS 4.817,57 481,76 0,00 2.144,37 0,00 0,00 0,00 1.550,00 8.993,70 582,93 427,65 0,00 0,00 1.010,58 7.983,12 30/06/2020
384 380400 CARINA DIAS FACANHA DE SOUZA ANALISTA DO MP SANTA RITA DO SAPUCAÍ - COMARCA; SANTA RITA DO SAPUCAI-PJ-SECRETARIA 13.011,52 2.602,30 0,00 7.806,91 0,00 0,00 0,00 1.550,00 24.970,73 1.717,52 2.952,12 0,00 0,00 4.669,64 20.301,09 30/06/2020
385 255000 CARLA ADRIANA DE MENEZES OFICIAL DO MP BELO HORIZONTE - COMARCA; CENT DE APOIO TEC-SETOR DEF,IDOSO E INFANC 10.069,62 3.020,89 0,00 6.545,26 0,00 0,00 0,00 1.550,00 21.185,77 1.439,96 2.334,54 0,00 0,00 3.774,50 17.411,27 30/06/2020
386 425100 CARLA ADRIANA DINIZ AMARAL OFICIAL DO MP CONTAGEM - COMARCA; CONTAGEM-PJ-08PJ 7.912,85 1.582,57 0,00 4.747,71 0,00 0,00 0,00 1.550,00 15.793,13 1.044,50 1.454,64 0,00 0,00 2.499,14 13.293,99 30/06/2020
387 508100 CARLA ALESSANDRA FONSECA ANALISTA DO MP BELO HORIZONTE - COMARCA; CAO-ORDEM ECONOMICA E TRIBUTARIA-SECRETARIA 10.069,62 1.006,96 0,00 0,00 0,00 0,00 0,00 1.550,00 12.626,58 1.218,42 1.841,63 0,00 0,00 3.060,05 9.566,53 30/06/2020
388 607100 CARLA ANGELICA DIAS MIRANDA OFICIAL DO MP JABOTICATUBAS - COMARCA; JABOTICATUBAS-PJ-UNPJ 5.387,19 538,72 0,00 2.424,73 0,00 0,00 0,00 1.550,00 9.900,64 651,85 424,59 0,00 0,00 1.076,44 8.824,20 30/06/2020
389 351500 CARLA APARECIDA MENDES RAMIRIO OFICIAL DO MP PASSOS - COMARCA; PASSOS-PJ-01PJ 8.858,43 1.771,69 0,00 5.315,06 0,00 0,00 0,00 1.550,00 17.495,18 1.169,31 1.680,23 0,00 0,00 2.849,54 14.645,64 30/06/2020
390 442800 CARLA GONCALVES COSTA SOALHEIRO ANALISTA DO MP GOVERNADOR VALADARES - COMARCA; GOVERNADOR VALADARES-PJ-11PJ 10.069,62 2.013,92 0,00 6.041,77 0,00 0,00 0,00 2.319,39 20.444,70 1.329,19 2.035,95 0,00 0,00 3.365,14 17.079,56 30/06/2020
391 321500 CARLA GONCALVES MASSOTE OFICIAL DO MP CAMPO BELO - COMARCA; CAMPO BELO-PJ-01PJ 10.069,62 3.020,89 0,00 6.545,26 0,00 0,00 0,00 1.550,00 21.185,77 1.439,96 2.334,54 0,00 0,00 3.774,50 17.411,27 30/06/2020
392 429200 CARLA HAUTEQUESTT BECHARA COORDENADOR/ANALISTA BELO HORIZONTE - COMARCA; DIRET DE INFORMACAO E CONHECIMENTO-DINC/CEAF 12.601,30 2.520,26 2.687,03 8.904,30 0,00 0,00 0,00 1.550,00 28.262,89 1.663,37 3.570,58 0,00 0,00 5.233,95 23.028,94 30/06/2020
393 247500 CARLA MATILDE GUIMARAES DE OLIVEIRA OFICIAL DO MP ITAJUBA - COMARCA; ITAJUBA-PJ-SECRETARIA 10.069,62 4.027,85 0,00 7.048,74 0,00 0,00 0,00 1.550,00 22.696,21 1.550,72 2.528,86 0,00 0,00 4.079,58 18.616,63 30/06/2020
394 226100 CARLA MERLI DA CONCEICAO ANALISTA DO MP BELO HORIZONTE - COMARCA; CENTRAL DE APOIO TECNICO-SETOR CONTABIL 18.820,14 5.646,04 0,00 12.233,09 0,00 0,00 0,00 1.550,00 38.249,27 2.691,28 5.066,60 0,00 0,00 7.757,88 30.491,39 30/06/2020
395 181401 CARLO MICHEL GAUDENSI COELHO ANALISTA DO MP BELO HORIZONTE - COMARCA; BH-08PJ JUIZADO ESPECIAL-SECRETARIA 12.204,02 4.881,61 0,00 8.542,82 0,00 0,00 0,00 1.550,00 27.178,45 1.879,42 3.312,35 0,00 0,00 5.191,77 21.986,68 30/06/2020
396 634000 CARLOS ALBERTO AMORMINO TRIGUEIRO ANALISTA DO MP BELO HORIZONTE - COMARCA; DIRET DE APOIO AS PROCURADORIAS DE JUSTICA 7.421,79 742,18 0,00 4.081,99 0,00 0,00 0,00 2.319,39 14.565,35 898,04 1.076,63 0,00 0,00 1.974,67 12.590,68 30/06/2020
397 637900 CARLOS ALBERTO DE MOURA OFICIAL DO MP SETE LAGOAS - COMARCA; SETE LAGOAS-PJ-07PJ 4.817,57 481,76 0,00 0,00 0,00 0,00 0,00 2.319,39 7.618,72 582,93 382,40 0,00 0,00 965,33 6.653,39 30/06/2020
398 638700 CARLOS ALBERTO FERREIRA BRAGA ANALISTA DO MP RIBEIRÃO DAS NEVES - COMARCA; SEC PJ EXECUCAO PENAL RIBEIRAO NEVES 6.741,63 674,16 0,00 3.707,90 0,00 0,00 0,00 1.550,00 12.673,69 671,12 881,15 0,00 0,00 1.552,27 11.121,42 30/06/2020
399 375801 CARLOS ALBERTO ROCHA ANALISTA DO MP ELOI MENDES - COMARCA; ELOI MENDES-PJ-SECRETARIA 9.146,93 914,69 0,00 0,00 0,00 0,00 0,00 1.550,00 11.611,62 1.106,78 1.593,22 0,00 0,00 2.700,00 8.911,62 30/06/2020
400 462800 CARLOS ANDREI SOARES FAGUNDES ANALISTA DO MP MONTES CLAROS - COMARCA; MONTES CLAROS-PJ-09PJ 10.069,62 1.006,96 0,00 0,00 0,00 0,00 0,00 2.319,39 13.395,97 1.218,42 1.789,50 0,00 0,00 3.007,92 10.388,05 30/06/2020
401 370300 CARLOS AUGUSTO BUENO DIAS ASSESSOR BELO HORIZONTE - COMARCA; SUPERINTENDÊNCIA DE ENGENHARIA E ARQUITETURA 0,00 0,00 10.397,52 5.198,76 0,00 0,00 0,00 1.550,00 17.146,28 713,09 1.401,48 0,00 0,00 2.114,57 15.031,71 30/06/2020
402 505100 CARLOS CEZAR CARVALHO ANALISTA DO MP RIBEIRÃO DAS NEVES - COMARCA; RIBEIRAO DAS NEVES-PJ-04PJ 9.444,70 3.777,88 0,00 4.752,75 0,00 0,00 0,00 1.550,00 19.525,33 1.454,48 2.262,59 0,00 0,00 3.717,07 15.808,26 30/06/2020
403 195900 CARLOS DE SOUZA FERREIRA OFICIAL DO MP COROMANDEL - COMARCA; COROMANDEL-PJ-UNPJ 10.069,62 8.055,69 0,00 0,00 0,00 0,00 0,00 1.550,00 19.675,31 1.993,78 3.566,81 0,00 0,00 5.560,59 14.114,72 30/06/2020
404 196800 CARLOS EDUARDO DE OLIVEIRA MARINHO OFICIAL DO MP ALPINÓPOLIS - COMARCA; ALPINOPOLIS-PJ-UNPJ 14.790,66 10.353,47 0,00 12.572,07 0,00 0,00 0,00 1.550,00 39.266,20 2.765,85 5.232,53 0,00 0,00 7.998,38 31.267,82 30/06/2020
405 650800 CARLOS EDUARDO NIZA DA SILVA OFICIAL DO MP IGARAPÉ - COMARCA; IGARAPE-PJ-01PJ 4.238,09 254,29 0,00 2.246,19 0,00 0,00 0,00 1.550,00 8.288,57 494,16 220,81 0,00 0,00 714,97 7.573,60 30/06/2020
406 491800 CARLOS EDUARDO ROMAN OFICIAL DO MP BARBACENA - COMARCA; BARBACENA-PJ-09PJ 7.421,79 1.484,36 0,00 4.453,08 0,00 0,00 0,00 1.550,00 14.909,23 979,68 1.310,42 0,00 0,00 2.290,10 12.619,13 30/06/2020
407 299300 CARLOS HENRIQUE BICALHO ANALISTA DO MP BELO HORIZONTE - COMARCA; BH-17PJ PATRIMONIO PUBLICO-SECRETARIA 16.750,82 6.700,33 0,00 11.725,58 0,00 0,00 0,00 2.319,39 37.496,12 2.579,63 4.870,31 0,00 0,00 7.449,94 30.046,18 30/06/2020
408 205100 CARLOS HENRIQUE ESTEVES OFICIAL DO MP ITAMBACURI - COMARCA; ITAMBACURI-PJ-01PJ 14.790,66 5.916,26 0,00 10.353,46 0,00 0,00 0,00 1.550,00 32.610,38 2.277,76 4.146,52 0,00 0,00 6.424,28 26.186,10 30/06/2020
409 351600 CARLOS HENRIQUE FELICIO DA FONSECA OFICIAL DO MP JUIZ DE FORA - COMARCA; JUIZ DE FORA-PJ-21PJ 9.444,70 2.833,41 0,00 6.139,06 0,00 0,00 0,00 1.550,00 19.967,17 1.350,59 2.083,57 0,00 0,00 3.434,16 16.533,01 30/06/2020
410 85400 CARLOS JOSE VIEIRA OFICIAL DO MP BELO HORIZONTE - COMARCA; DIRETORIA DO COLEGIO E DA CAMARA DE PJ 23.757,25 19.005,81 0,00 17.731,11 0,00 0,00 520,11 7.223,96 68.238,24 3.900,84 7.810,02 7.300,84 0,00 19.011,70 49.226,54 30/06/2020
411 229100 CARLOS MERCES DE OLIVEIRA ANALISTA DO MP BELO HORIZONTE - COMARCA; CENTRAL DE APOIO TECN-SETOR DE MEIO AMBIENTE 18.820,14 7.528,06 0,00 13.174,10 0,00 0,00 0,00 1.550,00 41.072,30 2.898,30 4.255,40 0,00 0,00 7.153,70 33.918,60 30/06/2020
412 538300 CARLOS RANGEL SILVA DE MELO ANALISTA DO MP BELO HORIZONTE - COMARCA; DIVISAO DE CONTROLE IMOBILIARIO 8.436,53 2.530,96 0,00 3.973,07 0,00 0,00 0,00 2.319,39 17.259,95 1.206,42 1.814,93 0,00 0,00 3.021,35 14.238,60 30/06/2020
413 265100 CARLOS REIFF MIRANDA ANALISTA DO MP BELO HORIZONTE - COMARCA; BH-19PJ SAUDE-SECRETARIA 150PJ 15.272,02 4.581,61 0,00 9.926,82 0,00 0,00 0,00 1.550,00 31.330,45 2.183,90 3.989,82 0,00 0,00 6.173,72 25.156,73 30/06/2020
414 305400 CARLOS ROCHA DE SOUZA OFICIAL DO MP MONTALVÂNIA - COMARCA; MONTALVANIA-PJ-SECRETARIA 6.123,79 1.837,14 0,00 3.980,47 0,00 0,00 0,00 1.673,50 13.614,90 875,70 870,53 0,00 0,00 1.746,23 11.868,67 30/06/2020
415 365100 CARLOS WAGNER SANDER MORAIS COORDENADOR/OFICIAL BELO HORIZONTE - COMARCA; DIRETORIA DE ADMINISTRACAO FINANCEIRA 0,00 2.687,03 13.435,16 8.061,10 0,00 4.809,66 0,00 1.550,00 30.542,95 1.887,70 4.329,12 0,00 0,00 6.216,82 24.326,13 30/06/2020
416 399900 CARMELITA EVANGELISTA DE SOUZA OFICIAL DO MP JOÃO PINHEIRO - COMARCA; JOAO PINHEIRO-PJ-01PJ 7.663,37 1.532,67 0,00 0,00 0,00 0,00 0,00 1.550,00 10.746,04 1.011,56 1.381,37 0,00 0,00 2.392,93 8.353,11 30/06/2020
417 202000 CARMEN LUCIA MARIZ DE MACEDO OFICIAL DO MP BELO HORIZONTE - COMARCA; DIRETORIA GESTAO COMPRAS LICITACOES 14.324,23 10.026,96 0,00 12.175,60 0,00 0,00 535,73 7.394,29 44.456,81 2.678,63 4.986,32 0,00 0,00 7.664,95 36.791,86 30/06/2020
418 228500 CAROLINA CHIARELLA DOS SANTOS RIBEIRO ASSESSOR/OFICIAL BELO HORIZONTE - COMARCA; PROCURADORIA-GERAL ADJUNTA INSTITUCIONAL 0,00 3.119,26 10.397,52 6.758,39 0,00 0,00 0,00 1.550,00 21.825,17 1.206,42 2.411,71 0,00 0,00 3.618,13 18.207,04 30/06/2020
419 446500 CAROLINA COSTA VAL RODRIGUES ANALISTA DO MP CONTAGEM - COMARCA; CONTAGEM-PJ-05PJ 12.204,02 2.440,80 0,00 7.322,41 0,00 0,00 0,00 1.550,00 23.517,23 1.610,93 2.714,96 0,00 0,00 4.325,89 19.191,34 30/06/2020
420 603501 CAROLINA DOMINGOS BRANDAO RABELLO ANALISTA DO MP CARATINGA - COMARCA; CARATINGA-PJ-01PJ 8.436,53 843,65 0,00 3.428,70 0,00 0,00 0,00 1.550,00 14.258,88 1.020,82 1.401,96 0,00 0,00 2.422,78 11.836,10 30/06/2020
421 404300 CAROLINA DOS SANTOS VIEIRA ANALISTA DO MP BELO HORIZONTE - COMARCA; BH-08PJ JUIZADO ESPECIAL-SECRETARIA 13.011,52 2.602,30 0,00 7.806,91 0,00 0,00 0,00 1.550,00 24.970,73 1.717,52 2.847,85 0,00 0,00 4.565,37 20.405,36 30/06/2020
422 551200 CAROLINA LOPES ARANTES MASCARENHAS ANALISTA DO MP BELO HORIZONTE - COMARCA; COORD EST DEF DIR FAM PESSOAS DEFICI IDOSOS 8.436,53 843,65 0,00 0,00 0,00 0,00 0,00 2.319,39 11.599,57 1.020,82 1.297,69 0,00 0,00 2.318,51 9.281,06 30/06/2020
423 622600 CAROLINA LOREDO LOPES CATIZANI OFICIAL DO MP RIBEIRÃO DAS NEVES - COMARCA; RIBEIRAO DAS NEVES-PJ-12PJ 4.817,57 481,76 0,00 2.649,67 0,00 0,00 0,00 1.550,00 9.499,00 582,93 427,65 0,00 0,00 1.010,58 8.488,42 30/06/2020
424 382200 CAROLINA MENDES CHAVES LIN ANALISTA DO MP BELO HORIZONTE - COMARCA; BH-12PJ JUIZO CRIMINAL-GAB 088PJ 10.069,62 2.013,92 0,00 6.041,77 0,00 0,00 0,00 2.319,39 20.444,70 1.329,19 2.035,95 0,00 0,00 3.365,14 17.079,56 30/06/2020
425 461900 CAROLINA MURTA TEIXEIRA DIAS ASSESSOR/ANALISTA BELO HORIZONTE - COMARCA; PROCURADOR-GERAL DE JUSTIÇA 0,00 1.260,13 12.601,30 6.930,72 0,00 0,00 0,00 1.550,00 22.342,15 1.218,42 2.607,47 0,00 0,00 3.825,89 18.516,26 30/06/2020
426 509600 CAROLINA PINTO DE OLIVEIRA SOUZA ANALISTA DO MP MURIAÉ - COMARCA; MURIAE-PJ-01PJ 10.069,62 1.006,96 0,00 4.086,47 0,00 0,00 0,00 3.472,93 18.635,98 1.218,42 1.685,22 0,00 0,00 2.903,64 15.732,34 30/06/2020
427 629100 CAROLINA RODRIGUES AMARAL ANALISTA DO MP BELO HORIZONTE - COMARCA; PROC. JUSTICA DIR. DIFUSOS E COLETIVOS-SEC 8.170,49 817,05 0,00 4.493,77 0,00 0,00 0,00 1.550,00 15.031,31 988,63 1.330,34 0,00 0,00 2.318,97 12.712,34 30/06/2020
428 502600 CAROLINA RODRIGUES RUBEN ANALISTA DO MP BELO HORIZONTE - COMARCA; BH-18PJ VIOLENCIA DOMESTICA-SECRETARIA 10.069,62 1.006,96 0,00 5.538,29 0,00 0,00 0,00 3.088,78 19.703,65 1.218,42 1.737,36 0,00 0,00 2.955,78 16.747,87 30/06/2020
429 529600 CAROLINA VAZ DE MELO MAMBRINI ANALISTA DO MP MINAS NOVAS - COMARCA; MINAS NOVAS-PJ-UNPJ 8.436,53 843,65 0,00 4.640,09 0,00 0,00 0,00 1.550,00 15.470,27 1.020,82 1.401,96 0,00 0,00 2.422,78 13.047,49 30/06/2020
430 619100 CAROLINA ZAKHIA NARDELLI RODRIGUES ANALISTA DO MP NEPOMUCENO - COMARCA; NEPOMUCENO-PJ-UNPJ 8.170,49 817,05 0,00 4.493,77 2.995,85 0,00 0,00 2.319,39 18.796,55 988,63 2.154,20 0,00 0,00 3.142,83 15.653,72 30/06/2020
431 517600 CAROLINE ALVES DE OLIVEIRA MULLER ANALISTA DO MP VISCONDE DO RIO BRANCO - COMARCA; VISCONDE DO RIO BRANCO-PJ-01PJ 10.069,62 1.006,96 0,00 5.538,29 0,00 0,00 0,00 2.319,39 18.934,26 1.218,42 1.789,50 0,00 0,00 3.007,92 15.926,34 30/06/2020
432 373200 CAROLINE ANTUNES RIBEIRO OFICIAL DO MP JACUI - COMARCA; JACUI-PJ-UNPJ 8.579,10 1.715,82 0,00 5.147,46 0,00 0,00 0,00 1.550,00 16.992,38 1.132,44 1.493,91 0,00 0,00 2.626,35 14.366,03 30/06/2020
433 556800 CAROLINE DE SOUZA CARDOSO DOMINGUES OFICIAL DO MP BRASÍLIA DE MINAS - COMARCA; BRASILIA DE MINAS-PJ-02PJ 5.387,19 538,72 0,00 2.962,96 0,00 0,00 0,00 1.550,00 10.438,87 651,85 581,01 0,00 0,00 1.232,86 9.206,01 30/06/2020
434 499400 CAROLINE MARQUES DE LOURDES MARZULLO OFICIAL DO MP JUIZ DE FORA - COMARCA; JUIZ DE FORA-PJ-08PJ 7.421,79 742,18 0,00 4.081,99 0,00 0,00 0,00 2.703,54 14.949,50 898,04 1.128,77 0,00 0,00 2.026,81 12.922,69 30/06/2020
435 616800 CAROLINE MONTEIRO DE BARROS ANALISTA DO MP CONTAGEM - COMARCA; CONTAGEM-PJ-11PJ 8.170,49 817,05 0,00 4.493,77 0,00 0,00 0,00 1.550,00 15.031,31 988,63 1.330,34 0,00 0,00 2.318,97 12.712,34 30/06/2020
436 618100 CAROLINE VASCONCELOS COSTA LANZA ANALISTA DO MP PARAOPEBA - COMARCA; PARAOPEBA-PJ-UNPJ 8.170,49 817,05 0,00 3.334,28 0,00 0,00 0,00 4.627,56 16.949,38 988,63 1.330,34 0,00 0,00 2.318,97 14.630,41 30/06/2020
437 604000 CASSIA APARECIDA DA SILVA OFICIAL DO MP PARACATU - COMARCA; PARACATU-PJ-01PJ 5.387,19 538,72 0,00 2.962,96 0,00 0,00 0,00 1.550,00 10.438,87 651,85 581,01 0,00 0,00 1.232,86 9.206,01 30/06/2020
438 268800 CASSIA BEATRIZ TEIXEIRA OFICIAL DO MP BELO HORIZONTE - COMARCA; COMB CRIMES PRAT POR AG POL MUN-SECRETARIA 12.204,02 3.661,21 0,00 7.932,62 0,00 0,00 0,00 1.550,00 25.347,85 1.745,18 3.013,65 0,00 0,00 4.758,83 20.589,02 30/06/2020
439 500000 CASSIA DE OLIVEIRA COSTA VIANA ANALISTA DO MP SETE LAGOAS - COMARCA; SETE LAGOAS-PJ-09PJ 10.069,62 5.034,81 0,00 0,00 5.034,81 0,00 0,00 1.550,00 21.689,24 1.661,49 4.212,02 0,00 0,00 5.873,51 15.815,73 30/06/2020
440 368800 CASSIA LUISA BATISTA MENDONCA WEBER OFICIAL DO MP BELO HORIZONTE - COMARCA; DIVISÃO DE EDUCAÇÃO PARA O CONSUMO 7.421,79 1.484,36 0,00 4.453,08 0,00 0,00 0,00 1.550,00 14.909,23 979,68 1.308,10 0,00 0,00 2.287,78 12.621,45 30/06/2020
441 622200 CASSIA VAZ DE AZEVEDO LISBOA MARZANO ASSESSOR BELO HORIZONTE - COMARCA; CGMP-SECRETARIA DA CORREGEDORIA-GERAL DO MP 0,00 0,00 3.076,28 1.538,14 0,00 0,00 0,00 2.319,39 6.933,81 465,67 116,48 0,00 0,00 582,15 6.351,66 30/06/2020
442 121000 CASSIO HENRIQUE AFONSO DA SILVA OFICIAL DO MP BELO HORIZONTE - COMARCA; ASSESS TECNICA DA CORREGEDORIA-GERAL DO MP 16.750,82 11.725,57 0,00 14.238,20 0,00 0,00 0,00 1.550,00 44.264,59 3.132,40 5.995,96 0,00 0,00 9.128,36 35.136,23 30/06/2020
443 121100 CASSIO MOREIRA DE MIRANDA AGENTE DO MP BELO HORIZONTE - COMARCA; DIVISÃO DE FISCALIZAÇÃO DAS RELAÇÕES DE CONSU 4.376,03 3.500,82 0,00 4.661,06 0,00 910,81 1.445,27 1.550,00 16.443,99 866,45 854,27 0,00 0,00 1.720,72 14.723,27 30/06/2020
444 512001 CATARINA NATALINO CALIXTO COORDENADOR/ANALISTA BELO HORIZONTE - COMARCA; DIRETORIA GESTAO TRANSPORTES 0,00 1.343,52 13.435,16 7.389,34 0,00 0,00 0,00 1.550,00 23.718,02 1.082,63 2.897,05 0,00 0,00 3.979,68 19.738,34 30/06/2020
445 606200 CATARINE DE SIQUEIRA DE QUADROS ANALISTA DO MP RIBEIRÃO DAS NEVES - COMARCA; RIBEIRAO DAS NEVES-PJ-09PJ 7.663,37 766,34 0,00 3.180,38 0,00 0,00 0,00 1.550,00 13.160,09 927,27 1.141,67 0,00 0,00 2.068,94 11.091,15 30/06/2020
446 622300 CECILIA APARECIDA PEREIRA ASSUNCAO OFICIAL DO MP TRÊS PONTAS - COMARCA; TRES PONTAS-PJ-SECRETARIA 5.217,34 521,73 0,00 2.869,54 0,00 0,00 0,00 2.319,39 10.928,00 631,30 483,14 0,00 0,00 1.114,44 9.813,56 30/06/2020
447 538000 CECILIA FONTES DE MATOS PIMENTEL ANALISTA DO MP PALMA - COMARCA; PALMA-PJ-UNPJ 8.436,53 843,65 0,00 4.640,09 0,00 0,00 0,00 2.319,39 16.239,66 1.020,82 1.401,96 0,00 0,00 2.422,78 13.816,88 30/06/2020
448 261300 CECILIO ANTONIO CAMPOS DOS REIS ANALISTA DO MP BELO HORIZONTE - COMARCA; AUDITORIA INTERNA 17.413,92 5.224,18 0,00 11.319,05 0,00 0,00 0,00 1.550,00 35.507,15 2.490,19 4.671,32 0,00 0,00 7.161,51 28.345,64 30/06/2020
449 386400 CEFAS AMORELI DE FIGUEIREDO OFICIAL DO MP CABO VERDE - COMARCA; CABO VERDE-PJ-SECRETARIA 6.123,79 1.224,76 0,00 3.674,28 0,00 0,00 0,00 1.550,00 12.572,83 808,34 929,20 0,00 0,00 1.737,54 10.835,29 30/06/2020
450 149000 CELIA MAGALHAES CLAROS SOSSI OFICIAL DO MP GOVERNADOR VALADARES - COMARCA; GAECO REGIONAL DE GOVERNADOR VALADARES 15.272,02 10.690,41 0,00 12.981,22 0,00 3.064,15 0,00 1.550,00 43.557,80 2.855,87 6.270,31 0,00 0,00 9.126,18 34.431,62 30/06/2020
451 421000 CELINA BENEDITA DE SOUZA ALMEIDA OFICIAL DO MP CAMBUÍ - COMARCA; CAMBUI-PJ-01PJ 7.912,85 3.956,43 0,00 5.934,64 0,00 0,00 0,00 1.550,00 19.353,92 1.305,62 1.983,51 0,00 0,00 3.289,13 16.064,79 30/06/2020
452 252900 CELIO DE MELO CASTOR ANALISTA DO MP BELO HORIZONTE - COMARCA; BH-20PJ ORD ECON TRIBUTARIA-SECRETARIA 17.413,92 5.224,18 0,00 11.319,05 0,00 0,00 0,00 1.550,00 35.507,15 2.490,19 4.671,32 0,00 0,00 7.161,51 28.345,64 30/06/2020
453 395700 CELIO FERREIRA LIMA OFICIAL DO MP CONTAGEM - COMARCA; CONTAGEM-PJ-07PJ 8.436,53 1.687,31 0,00 5.061,92 0,00 0,00 0,00 2.319,39 17.505,15 1.113,62 1.556,31 0,00 0,00 2.669,93 14.835,22 30/06/2020
454 281300 CELMA REGINA PEREIRA SANTOS ANALISTA DO MP BELO HORIZONTE - COMARCA; DIVISAO DE DOCUMENTACAO JURIDICA 16.750,82 5.025,25 0,00 10.888,04 0,00 0,00 0,00 1.550,00 34.214,11 2.395,37 4.460,33 0,00 0,00 6.855,70 27.358,41 30/06/2020
455 535600 CELSO MEDEIROS DE PAIVA OFICIAL DO MP RIO PRETO - COMARCA; RIO PRETO-PJ-SECRETARIA 4.974,42 497,44 0,00 2.735,93 0,00 0,00 0,00 1.550,00 9.757,79 601,90 417,74 0,00 0,00 1.019,64 8.738,15 30/06/2020
456 367000 CESAR NARVAES DE AVELAR COORDENADOR/OFICIAL BELO HORIZONTE - COMARCA; DIVISAO DE MEMORIA INSTITUCIONAL 0,00 2.363,83 11.819,15 5.152,13 0,00 0,00 0,00 1.550,00 20.885,11 1.206,18 2.698,02 0,00 0,00 3.904,20 16.980,91 30/06/2020
457 226500 CESAR SILVEIRA BARROUIN OFICIAL DO MP BELO HORIZONTE - COMARCA; DIRETORIA DE ADMINISTRACAO FINANCEIRA 12.204,02 4.881,61 0,00 8.542,82 0,00 0,00 0,00 1.550,00 27.178,45 1.879,42 3.312,35 0,00 0,00 5.191,77 21.986,68 30/06/2020
458 121400 CEZAR MORENO CONCEICAO TAVARES OFICIAL DO MP BELO HORIZONTE - COMARCA; COORD EST DEF DIR FAM PESSOAS DEFICI IDOSOS 15.272,02 10.690,41 0,00 12.981,22 0,00 0,00 0,00 2.319,39 41.263,04 2.855,87 5.380,67 0,00 0,00 8.236,54 33.026,50 30/06/2020
459 243800 CHARLES MARTINS MUNIZ OFICIAL DO MP BELO HORIZONTE - COMARCA; LAB TECNOLOGIA CONTRA LAVAGEM DINHEIRO 12.204,02 4.881,61 0,00 8.542,82 0,00 0,00 0,00 1.100,00 26.728,45 1.879,42 3.312,35 0,00 0,00 5.191,77 21.536,68 30/06/2020
460 193500 CHARLIN CESAR KOURLY OFICIAL DO MP ARAGUARI - COMARCA; ARAGUARI-PJ-07PJ 14.790,66 5.916,26 0,00 10.353,46 0,00 0,00 1.489,91 1.668,32 34.218,61 2.440,46 4.560,66 0,00 0,00 7.001,12 27.217,49 30/06/2020
461 385500 CHILLEN PEIXOTO DE MOURA OFICIAL DO MP BELO HORIZONTE - COMARCA; DIVISÃO DE FISCALIZAÇÃO DAS RELAÇÕES DE CONSU 8.436,53 1.687,31 0,00 4.224,80 0,00 0,00 1.445,27 1.550,00 17.343,91 1.113,62 2.005,90 0,00 0,00 3.119,52 14.224,39 30/06/2020
462 534500 CHRISTIAN DOUGLAS BRITO RUAS OFICIAL DO MP SÃO JOÃO DA PONTE - COMARCA; SAO JOAO DA PONTE-PJ-SECRETARIA 5.387,19 538,72 0,00 2.346,52 0,00 0,00 0,00 1.550,00 9.822,43 651,85 581,01 0,00 0,00 1.232,86 8.589,57 30/06/2020
463 370600 CHRISTIAN KARINE FELIX PRATES ASSESSOR BELO HORIZONTE - COMARCA; SUPRIN DE PLANEJAMENTO E COORDENACAO 0,00 0,00 10.397,52 5.198,76 0,00 0,00 0,00 1.550,00 17.146,28 713,09 2.096,36 0,00 0,00 2.809,45 14.336,83 30/06/2020
464 435800 CHRISTIANA BAHIA ANDRADE PINA ANALISTA DO MP BELO HORIZONTE - COMARCA; LABORATORIO TECNOLOGIA INTELIGENCIA 12.601,30 2.520,26 0,00 7.560,78 0,00 0,00 0,00 2.319,39 25.001,73 1.663,37 2.831,64 0,00 0,00 4.495,01 20.506,72 30/06/2020
465 516800 CHRISTIANE FERREIRA DO NASCIMENTO ANALISTA DO MP ESTRELA DO SUL - COMARCA; ESTRELA DO SUL-PJ-UNPJ 10.069,62 1.006,96 0,00 4.008,26 0,00 0,00 0,00 1.550,00 16.634,84 1.218,42 1.841,63 0,00 0,00 3.060,05 13.574,79 30/06/2020
466 176000 CHRISTIANE JUNQUEIRA PULITI ANDRADE DE BARROS ASSESSOR BELO HORIZONTE - COMARCA; CAO-VIOLENCIA DOMESTICA E FAMILIAR 0,00 9.157,17 11.446,46 10.301,82 0,00 2.385,62 0,00 1.550,00 34.841,07 2.266,40 4.796,64 0,00 0,00 7.063,04 27.778,03 30/06/2020
467 319200 CHRISTIANE MARIA DE ASSIS RUSSO OFICIAL DO MP BELO HORIZONTE - COMARCA; CAO-ORDEM ECONOMICA E TRIBUTARIA-SECRETARIA 10.736,08 3.220,82 0,00 0,00 0,00 0,00 0,00 2.319,39 16.276,29 1.535,26 2.494,45 0,00 0,00 4.029,71 12.246,58 30/06/2020
468 510300 CHRISTIANE MARY DE CARVALHO FERREIRA ANALISTA DO MP BELO HORIZONTE - COMARCA; DIRETORIA DE SISTEMAS DE INFORMACAO 10.069,62 1.006,96 0,00 5.538,29 0,00 0,00 0,00 1.550,00 18.164,87 1.218,42 1.789,50 0,00 0,00 3.007,92 15.156,95 30/06/2020
469 424900 CHRISTIANE PEREIRA TURNER DE ARAUJO OFICIAL DO MP BELO HORIZONTE - COMARCA; CAO-PATRIMONIO PUBLICO 7.912,85 1.582,57 0,00 4.747,71 0,00 0,00 0,00 2.319,39 16.562,52 1.044,50 1.350,37 0,00 0,00 2.394,87 14.167,65 30/06/2020
470 513700 CHRISTIANE VIEIRA SOARES PEDERSOLI ASSESSOR/ANALISTA BELO HORIZONTE - COMARCA; ASSESSORIA JURIDICA DO PROCON-MG 0,00 1.144,65 11.446,46 6.295,56 0,00 0,00 0,00 2.319,39 21.206,06 1.218,42 2.258,13 0,00 0,00 3.476,55 17.729,51 30/06/2020
471 412300 CHRYSTIAN MACHADO RIBEIRO ANALISTA DO MP VARGINHA - COMARCA; VARGINHA-PJ-04PJ 12.601,30 2.520,26 0,00 5.313,27 0,00 0,00 0,00 1.550,00 21.984,83 1.663,37 2.831,64 0,00 0,00 4.495,01 17.489,82 30/06/2020
472 513800 CHRYSTIANE DO NASCIMENTO DE MAGALHAES OFICIAL DO MP UBERLÂNDIA - COMARCA; UBERLANDIA-PJ-10PJ 6.741,63 674,16 0,00 3.707,90 0,00 0,00 0,00 2.319,39 13.443,08 815,74 841,38 0,00 0,00 1.657,12 11.785,96 30/06/2020
473 497900 CIBELE DE FREITAS SANCHES DIAS ANALISTA DO MP SABARÁ - COMARCA; SABARA-PJ-03PJ 9.444,70 944,47 0,00 3.812,55 0,00 0,00 0,00 1.550,00 15.751,72 1.142,81 1.621,25 0,00 0,00 2.764,06 12.987,66 30/06/2020
474 500900 CIBELLE SILVA PRADO ALVARENGA ANALISTA DO MP ITANHANDU - COMARCA; ITANHANDU-PJ-UNPJ 10.069,62 1.006,96 0,00 0,00 0,00 0,00 0,00 3.088,78 14.165,36 1.218,42 1.841,63 0,00 0,00 3.060,05 11.105,31 30/06/2020
475 296400 CINTIA APARECIDA MOREIRA NAVES E RODRIGUES ANALISTA DO MP CAMPO BELO - COMARCA; CAMPO BELO-PJ-02PJ 16.750,82 5.025,25 0,00 10.888,04 0,00 0,00 0,00 1.550,00 34.214,11 2.395,37 4.460,33 0,00 0,00 6.855,70 27.358,41 30/06/2020
476 407900 CINTIA NETO COMELLI ANALISTA DO MP BELO HORIZONTE - COMARCA; CENTRAL DE APOIO TECNICO-SETOR CONTABIL 12.601,30 2.520,26 0,00 7.560,78 5.040,52 0,00 0,00 2.319,39 30.042,25 1.663,37 4.165,65 0,00 0,00 5.829,02 24.213,23 30/06/2020
477 304700 CINTIA QUEIROZ OFICIAL DO MP BELO HORIZONTE - COMARCA; OUVIDORIA DO MPMG 10.069,62 3.020,89 0,00 6.545,26 0,00 0,00 0,00 1.550,00 21.185,77 1.439,96 2.334,54 0,00 0,00 3.774,50 17.411,27 30/06/2020
478 286100 CIRO CANGUSSU CORDEIRO OFICIAL DO MP IPATINGA - COMARCA; IPATINGA-PJ-09PJ 7.421,79 2.226,54 0,00 4.824,17 0,00 0,00 0,00 2.319,39 16.791,89 1.061,32 1.387,79 0,00 0,00 2.449,11 14.342,78 30/06/2020
479 412500 CLARICE GOMES MAROTTA ANALISTA DO MP BELO HORIZONTE - COMARCA; PROMOT ESTADUAL DE DEF PATRI CULT E TUR DE MG 12.601,30 3.780,39 0,00 8.190,85 0,00 0,00 0,00 1.550,00 26.122,54 1.801,99 3.140,06 0,00 0,00 4.942,05 21.180,49 30/06/2020
480 605300 CLARISSA AZEVEDO ROCHA OFICIAL DO MP BELO HORIZONTE - COMARCA; ASSESSORIA PSICOSSOCIAL 5.387,19 538,72 0,00 2.962,96 0,00 0,00 0,00 1.550,00 10.438,87 651,85 581,01 0,00 0,00 1.232,86 9.206,01 30/06/2020
481 308100 CLARISSA DUARTE BELLONI DIRETOR/ANALISTA BELO HORIZONTE - COMARCA; DIRETORIA-GERAL 0,00 7.409,35 24.697,83 16.053,59 0,00 0,00 470,91 8.994,23 57.625,91 2.505,50 7.218,52 0,00 0,00 9.724,02 47.901,89 30/06/2020
482 497100 CLARISSA ROCHA GUIDI ANALISTA DO MP BELO HORIZONTE - COMARCA; BH-02PJ FAMILIA-SECRETARIA 10.397,52 1.039,75 0,00 5.718,64 0,00 0,00 0,00 2.319,39 19.475,30 1.258,10 1.877,77 0,00 0,00 3.135,87 16.339,43 30/06/2020
483 641800 CLARISSE TAVARES GONCALVES OFICIAL DO MP BELO HORIZONTE - COMARCA; BH-07PJ 01 TRIBUNAL JURI-SECRETARIA 4.817,57 289,05 0,00 2.553,31 0,00 0,00 0,00 1.550,00 9.209,93 561,73 386,47 0,00 0,00 948,20 8.261,73 30/06/2020
484 463700 CLAUDIA ADRIANA FERRAO DIAS ANALISTA DO MP SETE LAGOAS - COMARCA; SETE LAGOAS-PJ-06PJ 10.069,62 1.006,96 0,00 0,00 0,00 0,00 0,00 1.550,00 12.626,58 1.218,42 1.841,63 0,00 0,00 3.060,05 9.566,53 30/06/2020
485 415400 CLAUDIA ALMEIDA DE VASCONCELLOS BARROS ASSESSOR/OFICIAL BELO HORIZONTE - COMARCA; DIVISAO DE SERVICOS 0,00 2.079,50 10.397,52 6.238,51 0,00 0,00 0,00 1.550,00 20.265,53 1.404,36 2.174,46 0,00 0,00 3.578,82 16.686,71 30/06/2020
486 207000 CLAUDIA APARECIDA VILELA MACHADO ANALISTA DO MP BELO HORIZONTE - COMARCA; CENTRAL DE APOIO TECNICO-SETOR CONTABIL 18.820,14 7.528,06 0,00 13.174,10 0,00 0,00 386,44 5.765,71 45.674,45 2.898,30 5.422,95 0,00 0,00 8.321,25 37.353,20 30/06/2020
487 365700 CLAUDIA BREGUEZ CUNHA ANALISTA DO MP VARGINHA - COMARCA; VARGINHA-PJ-07PJ 14.324,23 2.864,85 0,00 8.594,54 0,00 0,00 0,00 1.550,00 27.333,62 1.890,80 3.337,67 0,00 0,00 5.228,47 22.105,15 30/06/2020
488 430500 CLAUDIA CECILIA SANTANA VENCESLAU OFICIAL DO MP BELO HORIZONTE - COMARCA; DIR ANALISES TECNOLOGIA INTELIGENCIA 7.912,85 1.582,57 0,00 4.747,71 0,00 0,00 0,00 1.934,69 16.177,82 1.044,50 1.402,51 0,00 0,00 2.447,01 13.730,81 30/06/2020
489 112400 CLAUDIA CRISTINA FIUZA DE AVELAR AGENTE DO MP BELO HORIZONTE - COMARCA; SERVICO MEDICO-DEPTO PERIC MEDICA SAUDE OCUP 9.752,14 6.826,50 0,00 8.289,32 0,00 0,00 0,00 1.550,00 26.417,96 1.823,65 3.188,26 0,00 0,00 5.011,91 21.406,05 30/06/2020
490 480400 CLAUDIA GOULART DE SOUZA OFICIAL DO MP PASSOS - COMARCA; PASSOS-PJ-06PJ 7.421,79 1.484,36 0,00 4.453,08 0,00 0,00 0,00 1.550,00 14.909,23 979,68 1.310,42 0,00 0,00 2.290,10 12.619,13 30/06/2020
491 519800 CLAUDIA HELENA CORREA DE ALMEIDA ANALISTA DO MP BELO HORIZONTE - COMARCA; BH-12PJ JUIZO CRIMINAL-GAB 102PJ 10.069,62 1.006,96 0,00 4.008,26 0,00 0,00 0,00 1.550,00 16.634,84 1.218,42 1.841,63 0,00 0,00 3.060,05 13.574,79 30/06/2020
492 422100 CLAUDIA IACOMINI CABRAL ANALISTA DO MP BELO HORIZONTE - COMARCA; CENT DE APOIO TEC-SETOR DEF,IDOSO E INFANC 12.601,30 8.820,91 0,00 10.711,11 0,00 0,00 0,00 1.550,00 33.683,32 2.356,44 4.373,73 0,00 0,00 6.730,17 26.953,15 30/06/2020
493 258200 CLAUDIA LAGE MICHALAROS ANALISTA DO MP BELO HORIZONTE - COMARCA; CENTRAL DE APOIO TECN-SETOR DE MEIO AMBIENTE 17.413,92 12.189,74 0,00 11.192,07 0,00 3.554,90 0,00 1.550,00 45.900,63 3.256,40 7.219,51 0,00 0,00 10.475,91 35.424,72 30/06/2020
494 284600 CLAUDIA LENI DE FREITAS OFICIAL DO MP CONTAGEM - COMARCA; CONTAGEM-PJ-22PJ 6.123,79 2.449,52 0,00 4.286,66 0,00 0,00 0,00 1.550,00 14.409,97 943,06 1.228,96 0,00 0,00 2.172,02 12.237,95 30/06/2020
495 433600 CLAUDIA LUIZA SANTIAGO FELICIO ANALISTA DO MP BELO HORIZONTE - COMARCA; CENT DE APOIO TEC-SETOR DEF,IDOSO E INFANC 12.601,30 2.520,26 0,00 0,00 0,00 0,00 0,00 1.550,00 16.671,56 1.663,37 2.727,37 0,00 0,00 4.390,74 12.280,82 30/06/2020
496 317000 CLAUDIA MACHADO ALVES ASSESSOR/OFICIAL BELO HORIZONTE - COMARCA; DIRETORIA DE SISTEMAS DE INFORMACAO 0,00 3.119,26 10.397,52 6.758,39 0,00 0,00 0,00 1.550,00 21.825,17 1.164,47 2.527,53 0,00 0,00 3.692,00 18.133,17 30/06/2020
497 155300 CLAUDIA MACIEL MIRANDA E BELO OFICIAL DO MP CONGONHAS - COMARCA; CONGONHAS-PJ-02PJ 15.272,02 7.636,01 0,00 7.877,52 0,00 0,00 0,00 1.550,00 32.335,55 2.519,88 4.633,11 0,00 0,00 7.152,99 25.182,56 30/06/2020
498 242200 CLAUDIA MICHELLE DIAS MUNIZ BALEEIRO OFICIAL DO MP MONTE AZUL - COMARCA; MONTE AZUL-PJ-SECRETARIA 12.204,02 4.881,61 0,00 8.542,82 0,00 0,00 501,18 7.017,40 33.147,03 1.879,42 3.260,21 0,00 0,00 5.139,63 28.007,40 30/06/2020
499 623000 CLAUDIA PATRICIA SILVA RODRIGUES RAPOSEIRAS OFICIAL DO MP PARÁ DE MINAS - COMARCA; PARA DE MINAS-PJ-02PJ 4.817,57 481,76 0,00 2.649,67 0,00 0,00 0,00 2.319,39 10.268,39 582,93 382,40 0,00 0,00 965,33 9.303,06 30/06/2020
500 418400 CLAUDIA REGINA MARTINS BONIFACIO OFICIAL DO MP ITUIUTABA - COMARCA; ITUIUTABA-PJ-06PJ 7.912,85 1.582,57 0,00 4.747,71 0,00 0,00 0,00 1.550,00 15.793,13 1.044,50 1.350,37 0,00 0,00 2.394,87 13.398,26 30/06/2020
501 498300 CLAUDIA SOUTO FARIAS BRAUN OFICIAL DO MP TEÓFILO OTONI - COMARCA; TEOFILO OTONI-PJ-SECRETARIA 6.123,79 612,38 0,00 2.660,08 0,00 0,00 0,00 1.550,00 10.946,25 740,98 675,04 0,00 0,00 1.416,02 9.530,23 30/06/2020
502 206500 CLAUDIA VALERIA FONSECA ANDRADE ANALISTA DO MP BELO HORIZONTE - COMARCA; BH-23PJ INF-FISC MED SOC FEC 18.820,14 9.410,07 0,00 14.115,11 0,00 3.699,52 310,53 4.937,63 51.293,00 3.105,32 7.007,81 0,00 0,00 10.113,13 41.179,87 30/06/2020
503 277500 CLAUDIO ANTONIO BORGES BRUNSWICK ALVARES OFICIAL DO MP BELO HORIZONTE - COMARCA; SUPERINTENDENCIA DE RECURSOS HUMANOS 10.069,62 3.020,89 0,00 6.545,26 0,00 0,00 0,00 1.550,00 21.185,77 1.439,96 2.334,54 0,00 0,00 3.774,50 17.411,27 30/06/2020
504 444800 CLAUDIO ARESIO DO CARMO ANALISTA DO MP SETE LAGOAS - COMARCA; SETE LAGOAS-PJ-01PJ 10.069,62 4.027,85 0,00 7.048,74 0,00 0,00 0,00 1.550,00 22.696,21 1.550,72 2.528,86 0,00 0,00 4.079,58 18.616,63 30/06/2020
505 541600 CLAUDIO DE OLIVEIRA MELO OFICIAL DO MP CANÁPOLIS - COMARCA; CANAPOLIS-PJ-UNPJ 4.376,03 262,56 0,00 2.319,30 0,00 0,00 0,00 2.319,39 9.277,28 510,24 207,58 0,00 0,00 717,82 8.559,46 30/06/2020
506 545100 CLAUDIO HENRIQUE MACEDO DE SOUZA FRANSOZO ANALISTA DO MP OURO PRETO - COMARCA; OURO PRETO-PJ-01PJ 8.436,53 843,65 0,00 0,00 0,00 0,00 0,00 2.319,39 11.599,57 1.020,82 1.401,96 0,00 0,00 2.422,78 9.176,79 30/06/2020
507 353500 CLAUDIO HENRIQUE PEDRO DA ROCHA OFICIAL DO MP BELO HORIZONTE - COMARCA; DIVISAO TRANSPORTES 9.444,70 1.888,94 0,00 5.666,82 0,00 0,00 0,00 1.550,00 18.550,46 1.246,70 1.800,27 0,00 0,00 3.046,97 15.503,49 30/06/2020
508 265800 CLAUDIO KUPIDLOWSKY FERNANDES OFICIAL DO MP BELO HORIZONTE - COMARCA; SECRETARIA DO PROCON-MG 10.069,62 3.020,89 0,00 6.545,26 0,00 0,00 0,00 1.550,00 21.185,77 1.439,96 1.459,69 0,00 0,00 2.899,65 18.286,12 30/06/2020
509 193600 CLAUDIO LEITE FONTES OFICIAL DO MP ITUIUTABA - COMARCA; ITUIUTABA-PJ-02PJ 8.858,43 3.543,37 0,00 6.200,90 0,00 0,00 0,00 1.550,00 20.152,70 1.364,20 1.878,61 0,00 0,00 3.242,81 16.909,89 30/06/2020
510 329400 CLAUDIO MARCIO BERNARDES OFICIAL DO MP ITAÚNA - COMARCA; ITAUNA-PJ-03PJ 10.069,62 7.048,73 0,00 5.983,56 0,00 0,00 0,00 2.319,39 25.421,30 1.883,02 3.268,22 0,00 0,00 5.151,24 20.270,06 30/06/2020
511 270200 CLAUDIO RABELO ALVES OFICIAL DO MP FORMIGA - COMARCA; FORMIGA-PJ-03PJ 10.397,52 3.119,26 0,00 6.758,39 0,00 0,00 0,00 1.550,00 21.825,17 1.486,85 2.230,32 0,00 0,00 3.717,17 18.108,00 30/06/2020
512 264700 CLAUDIO ROBERTO KFURI DE ARAUJO ANALISTA DO MP BELO HORIZONTE - COMARCA; CENTRAL DE APOIO TECNICO-SETOR DE INFORMATICA 17.413,92 5.224,18 0,00 11.319,05 0,00 0,00 0,00 1.550,00 35.507,15 2.490,19 4.567,04 0,00 0,00 7.057,23 28.449,92 30/06/2020
513 188600 CLAUDIO SALES OFICIAL DO MP NEPOMUCENO - COMARCA; NEPOMUCENO-PJ-SECRETARIA 14.324,23 11.459,38 0,00 12.891,81 0,00 0,00 0,00 1.550,00 40.225,42 2.836,20 5.441,18 0,00 0,00 8.277,38 31.948,04 30/06/2020
514 543300 CLAUDIO SILVA DE CARVALHO ANALISTA DO MP CAMPO BELO - COMARCA; CAMPO BELO-PJ-03PJ 7.663,37 766,34 0,00 4.214,86 0,00 0,00 0,00 1.550,00 14.194,57 927,27 1.141,67 0,00 0,00 2.068,94 12.125,63 30/06/2020
515 160700 CLAUDIO VICENTE HESS ASSESSOR BELO HORIZONTE - COMARCA; CENTRAL DE APOIO TECNICO-SETOR DE INFORMATICA 0,00 6.717,58 13.435,16 10.076,37 0,00 0,00 0,00 1.550,00 31.779,11 713,09 4.674,77 0,00 0,00 5.387,86 26.391,25 30/06/2020
516 312900 CLAUDIO VIEIRA FIRPE OFICIAL DO MP BELO HORIZONTE - COMARCA; CENTRO CERIMONIAL 9.752,14 2.925,64 0,00 6.338,89 0,00 0,00 0,00 2.319,39 21.336,06 1.394,56 2.233,53 0,00 0,00 3.628,09 17.707,97 30/06/2020
517 634100 CLEA CRISTINA GUERRA DE FREITAS COSTA OFICIAL DO MP BELO HORIZONTE - COMARCA; BH-18PJ VIOLENCIA DOMESTICA-SECRETARIA 4.817,57 481,76 0,00 0,00 0,00 0,00 0,00 2.319,39 7.618,72 582,93 382,40 0,00 0,00 965,33 6.653,39 30/06/2020
518 653100 CLEBER SOUZA SCALIONI ASSESSOR BELO HORIZONTE - COMARCA; CENTRAL DE APOIO TECNICO-SETOR CONTABIL 0,00 0,00 8.170,49 4.085,25 0,00 0,00 0,00 1.550,00 13.805,74 713,09 1.483,92 0,00 0,00 2.197,01 11.608,73 30/06/2020
519 459200 CLEIA ZILLE PEREIRA ANALISTA DO MP BELO HORIZONTE - COMARCA; ASSESS TECNICO-JUR JUNTO AS PROC. DE JUST 10.069,62 1.006,96 0,00 5.538,29 0,00 0,00 0,00 1.550,00 18.164,87 1.218,42 1.841,63 0,00 0,00 3.060,05 15.104,82 30/06/2020
520 481800 CLEIDE CARDOSO DA SILVA ANALISTA DO MP MANHUAÇU - COMARCA; MANHUACU-PJ-04PJ 10.069,62 1.006,96 0,00 5.538,29 0,00 0,00 0,00 1.550,00 18.164,87 1.218,42 1.737,36 0,00 0,00 2.955,78 15.209,09 30/06/2020
521 347600 CLEIDIMAR DE OLIVEIRA SILVA OFICIAL DO MP PATOS DE MINAS - COMARCA; PATOS DE MINAS-PJ-07PJ 8.579,10 2.573,73 0,00 5.576,42 0,00 0,00 0,00 1.550,00 18.279,25 1.226,81 1.651,75 0,00 0,00 2.878,56 15.400,69 30/06/2020
522 396500 CLEIDISON BATISTA DE ANDRADE OFICIAL DO MP RESPLENDOR - COMARCA; RESPLENDOR-PJ-UNPJ 6.529,10 1.305,82 0,00 0,00 0,00 0,00 0,00 2.319,39 10.154,31 861,84 943,96 0,00 0,00 1.805,80 8.348,51 30/06/2020
523 535100 CLEISON ALVES DA SILVA ANALISTA DO MP BOA ESPERANÇA - COMARCA; BOA ESPERANCA-PJ-01PJ 8.436,53 843,65 0,00 4.640,09 0,00 0,00 0,00 1.626,94 15.547,21 1.020,82 1.297,69 0,00 0,00 2.318,51 13.228,70 30/06/2020
524 298100 CLEONICE AUGUSTA BARROS DE OLIVEIRA ANALISTA DO MP JUIZ DE FORA - COMARCA; JUIZ DE FORA-PJ-08PJ 16.750,82 5.025,25 0,00 10.888,04 0,00 0,00 0,00 1.550,00 34.214,11 2.395,37 4.460,33 0,00 0,00 6.855,70 27.358,41 30/06/2020
525 114300 CLERES PEREIRA DA SILVA JUNIOR ASSESSOR BELO HORIZONTE - COMARCA; GAECO - SECRETARIA 0,00 2.568,16 5.136,32 3.852,24 0,00 0,00 0,00 1.550,00 13.106,72 713,09 864,16 0,00 0,00 1.577,25 11.529,47 30/06/2020
526 264100 CLETO HENRIQUE ANDRADE SILVA ANALISTA DO MP BELO HORIZONTE - COMARCA; DIRETORIA DE SISTEMAS DE INFORMACAO 17.413,92 5.224,18 0,00 11.319,05 0,00 0,00 0,00 1.550,00 35.507,15 2.490,19 4.567,04 0,00 0,00 7.057,23 28.449,92 30/06/2020
527 334400 CLEUBA DE OLIVEIRA BARCELOS GONCALVES OFICIAL DO MP DIVINÓPOLIS - COMARCA; COORD REG SAUDE MACRORREGIAO SANITARIA OESTE 10.069,62 3.020,89 0,00 4.710,14 0,00 0,00 0,00 1.550,00 19.350,65 1.439,96 2.230,27 0,00 0,00 3.670,23 15.680,42 30/06/2020
528 347500 CLEUSA CORDEIRO DA MATA PIMENTA OFICIAL DO MP CAMPO BELO - COMARCA; CAMPO BELO-PJ-02PJ 9.146,93 7.317,55 0,00 8.232,24 0,00 1.955,17 0,00 1.550,00 28.201,89 1.811,09 3.554,10 0,00 0,00 5.365,19 22.836,70 30/06/2020
529 510200 CLEZIO SALES SILVA OFICIAL DO MP BRASÓPOLIS - COMARCA; BRASOPOLIS-PJ-UNPJ 5.562,64 556,26 0,00 2.408,79 0,00 0,00 0,00 2.319,39 10.847,08 673,08 628,24 0,00 0,00 1.301,32 9.545,76 30/06/2020
530 323000 CLOTILDE DE PADUA VIEIRA OFICIAL DO MP BELO HORIZONTE - COMARCA; BH-19PJ SAUDE-SECRETARIA 129PJ 7.187,72 2.156,32 0,00 4.672,02 0,00 0,00 0,00 1.550,00 15.566,06 1.027,84 1.417,60 0,00 0,00 2.445,44 13.120,62 30/06/2020
531 285200 CLOVIS ANDRE LUDTKE OFICIAL DO MP BELO HORIZONTE - COMARCA; DIVISAO DE MANUTENCAO PREDIAL 10.069,62 3.020,89 0,00 6.545,26 0,00 0,00 0,00 1.550,00 21.185,77 1.439,96 2.334,54 0,00 0,00 3.774,50 17.411,27 30/06/2020
532 381100 CONCEICAO APARECIDA TEIXEIRA ARANTES ANALISTA DO MP BELO HORIZONTE - COMARCA; BH-23PJ INFRACIONAL-ASS JURIDICA 13.435,16 2.687,03 0,00 8.061,10 0,00 0,00 3.316,80 2.319,39 29.819,48 2.138,29 3.836,20 0,00 0,00 5.974,49 23.844,99 30/06/2020
533 249900 CONSTANTINO CEZAR GOMES MOTA OFICIAL DO MP MONTES CLAROS - COMARCA; COORD REG BACIA RIOS VERDE GRANDE E PARDO 9.146,93 2.744,08 0,00 5.945,51 0,00 0,00 0,00 2.319,39 20.155,91 1.308,01 1.936,69 0,00 0,00 3.244,70 16.911,21 30/06/2020
534 481000 CRISHMA ANALIA LOMBELLO ANALISTA DO MP JUIZ DE FORA - COMARCA; JUIZ DE FORA-PJ-13PJ 10.069,62 1.006,96 0,00 5.538,29 0,00 0,00 0,00 1.550,00 18.164,87 1.218,42 1.789,50 0,00 0,00 3.007,92 15.156,95 30/06/2020
535 523900 CRISTHYANE BAZOLI COSTA GUEDES COUTO OFICIAL DO MP BELO HORIZONTE - COMARCA; BH-04PJ JUIZO REG PÚBLICOS-SECRETARIA 6.741,63 674,16 0,00 3.707,90 0,00 0,00 0,00 1.550,00 12.673,69 815,74 945,65 0,00 0,00 1.761,39 10.912,30 30/06/2020
536 187000 CRISTIAN DAYVSON EVANGELISTA OFICIAL DO MP JUIZ DE FORA - COMARCA; JUIZ DE FORA-PJ-13PJ 14.324,23 5.729,69 0,00 10.026,96 0,00 0,00 0,00 1.550,00 31.630,88 2.205,93 3.986,70 0,00 0,00 6.192,63 25.438,25 30/06/2020
537 319800 CRISTIANA GONCALVES DOS SANTOS GUSMAO OFICIAL DO MP SETE LAGOAS - COMARCA; SETE LAGOAS-PJ-10PJ 9.146,93 2.744,08 0,00 5.945,51 0,00 0,00 0,00 1.550,00 19.386,52 1.308,01 2.040,97 0,00 0,00 3.348,98 16.037,54 30/06/2020
538 520600 CRISTIANA JANAINA BARBOZA JUVENCIO DOS SANTOS ANALISTA DO MP BELO HORIZONTE - COMARCA; BH-02PJ FAMILIA-SECRETARIA 10.069,62 1.006,96 0,00 5.538,29 0,00 0,00 0,00 1.550,00 18.164,87 1.218,42 1.841,63 0,00 0,00 3.060,05 15.104,82 30/06/2020
539 195600 CRISTIANA SOARES HALABI OFICIAL DO MP UBERABA - COMARCA; UBERABA-PJ-01PJ 14.324,23 5.729,69 0,00 10.026,96 6.684,64 0,00 0,00 1.550,00 38.315,52 2.205,93 5.877,11 0,00 0,00 8.083,04 30.232,48 30/06/2020
540 218900 CRISTIANE ALVES BELLES OFICIAL DO MP JUIZ DE FORA - COMARCA; JUIZ DE FORA-PJ-10PJ 6.123,79 1.837,14 0,00 3.980,47 0,00 0,00 0,00 2.703,54 14.644,94 875,70 974,80 0,00 0,00 1.850,50 12.794,44 30/06/2020
541 263600 CRISTIANE CARVALHO COUTINHO OFICIAL DO MP BELO HORIZONTE - COMARCA; BH-23PJ INFRACIONAL-SEC EXP 10.069,62 3.020,89 0,00 6.545,26 0,00 0,00 0,00 1.550,00 21.185,77 1.439,96 2.282,40 0,00 0,00 3.722,36 17.463,41 30/06/2020
542 541000 CRISTIANE COELHO ALVES OFICIAL DO MP ITABIRA - COMARCA; ITABIRA-PJ-03PJ 4.974,42 497,44 0,00 2.735,93 0,00 0,00 0,00 1.550,00 9.757,79 601,90 417,74 0,00 0,00 1.019,64 8.738,15 30/06/2020
543 441700 CRISTIANE CORRADO DE ANDRADE ANALISTA DO MP BELO HORIZONTE - COMARCA; DIRETORIA DE SISTEMAS DE INFORMACAO 12.601,30 2.520,26 0,00 7.560,78 0,00 0,00 0,00 1.550,00 24.232,34 1.663,37 2.831,64 0,00 0,00 4.495,01 19.737,33 30/06/2020
544 375100 CRISTIANE DAS DORES ERCIO DE LIMA OFICIAL DO MP GOVERNADOR VALADARES - COMARCA; COOR REG INCLUSAO MOBILIZ VALE DO RIO DOCE 8.170,49 1.634,10 0,00 4.902,30 0,00 0,00 0,00 1.550,00 16.256,89 1.078,50 1.530,31 0,00 0,00 2.608,81 13.648,08 30/06/2020
545 178800 CRISTIANE DE LIMA HOSKEN OFICIAL DO MP BELO HORIZONTE - COMARCA; BH-14PJ DEFESA CONSUMIDOR-GAB 110PJ 14.790,66 5.916,26 0,00 10.353,46 0,00 0,00 0,00 1.550,00 32.610,38 2.277,76 4.094,38 0,00 0,00 6.372,14 26.238,24 30/06/2020
546 494000 CRISTIANE DE MELO MARQUEZ OLIVEIRA ANALISTA DO MP UBERLÂNDIA - COMARCA; UBERLANDIA-PJ-06PJ 10.736,08 1.073,61 0,00 5.904,85 0,00 0,00 0,00 3.088,78 20.803,32 1.299,07 2.021,06 0,00 0,00 3.320,13 17.483,19 30/06/2020
547 266100 CRISTIANE DE OLIVEIRA CASTRO OFICIAL DO MP BELO HORIZONTE - COMARCA; BH-14PJ DEFESA CONSUMIDOR-SECRETARIA 12.204,02 3.661,21 0,00 8.655,25 0,00 0,00 1.445,27 1.550,00 27.515,75 1.745,18 3.306,83 0,00 0,00 5.052,01 22.463,74 30/06/2020
548 329500 CRISTIANE DOS REIS SILVA OFICIAL DO MP ARAXÁ - COMARCA; ARAXA-PJ-04PJ 9.146,93 2.744,08 0,00 5.945,51 0,00 0,00 0,00 1.550,00 19.386,52 1.308,01 1.936,69 0,00 0,00 3.244,70 16.141,82 30/06/2020
549 301600 CRISTIANE GODINHO PIRES ANALISTA DO MP BETIM - COMARCA; BETIM-PJ-07PJ 16.112,82 4.833,85 0,00 10.473,34 0,00 0,00 0,00 1.550,00 32.970,01 2.304,13 4.257,34 0,00 0,00 6.561,47 26.408,54 30/06/2020
550 406100 CRISTIANE GONCALVES CHAVES ANALISTA DO MP BELO HORIZONTE - COMARCA; BH-14PJ DEFESA CONSUMIDOR-GAB 112PJ 13.011,52 3.903,46 0,00 8.457,49 0,00 0,00 0,00 1.550,00 26.922,47 1.860,65 3.270,58 0,00 0,00 5.131,23 21.791,24 30/06/2020
551 487600 CRISTIANE LOPES DE OLIVEIRA OFICIAL DO MP DIVINÓPOLIS - COMARCA; DIVINOPOLIS-PJ-03PJ 6.123,79 612,38 0,00 3.368,09 0,00 0,00 0,00 1.550,00 11.654,26 740,98 779,32 0,00 0,00 1.520,30 10.133,96 30/06/2020
552 502500 CRISTIANE MACIEL DE OLIVEIRA GOMES ANALISTA DO MP JUIZ DE FORA - COMARCA; JUIZ DE FORA-PJ-05PJ 10.069,62 1.006,96 0,00 5.538,29 0,00 0,00 0,00 2.319,39 18.934,26 1.218,42 1.841,63 0,00 0,00 3.060,05 15.874,21 30/06/2020
553 285500 CRISTIANE MAGALHAES LOURENCO ANALISTA DO MP BELO HORIZONTE - COMARCA; CENTRAL DE APOIO TECNICO-SETOR CONTABIL 16.750,82 5.025,25 0,00 10.888,04 0,00 0,00 0,00 1.550,00 34.214,11 2.395,37 4.408,20 0,00 0,00 6.803,57 27.410,54 30/06/2020
554 536500 CRISTIANE MICHELE DE SOUZA ANALISTA DO MP BARÃO DE COCAIS - COMARCA; BARAO DE COCAIS-PJ-UNPJ 8.436,53 843,65 0,00 4.640,09 3.093,39 0,00 0,00 2.319,39 19.333,05 1.020,82 2.148,37 0,00 0,00 3.169,19 16.163,86 30/06/2020
555 346600 CRISTIANE NOGUEIRA ANDRADE ANALISTA DO MP BELO HORIZONTE - COMARCA; CENTRAL DE APOIO TECNICO-SETOR CONTABIL 14.790,66 2.958,13 0,00 8.874,40 0,00 0,00 0,00 1.550,00 28.173,19 1.952,37 3.474,66 0,00 0,00 5.427,03 22.746,16 30/06/2020
556 234000 CRISTIANE OLIVEIRA TOSTES OFICIAL DO MP JUIZ DE FORA - COMARCA; JUIZ DE FORA-PJ-08PJ 13.011,52 3.903,46 0,00 8.457,49 0,00 0,00 0,00 2.319,39 27.691,86 1.860,65 3.270,58 0,00 0,00 5.131,23 22.560,63 30/06/2020
557 445800 CRISTIANE ORZIL COSTA OFICIAL DO MP SANTA LUZIA - COMARCA; SANTA LUZIA-PJ-05PJ 6.123,79 1.224,76 0,00 0,00 0,00 0,00 0,00 2.319,39 9.667,94 808,34 929,20 0,00 0,00 1.737,54 7.930,40 30/06/2020
558 616100 CRISTIANE PAES RODRIGUES MARCICANO ANALISTA DO MP CATAGUASES - COMARCA; CATAGUASES-PJ-05PJ 7.421,79 742,18 0,00 4.081,99 0,00 0,00 0,00 3.088,78 15.334,74 898,04 1.128,77 0,00 0,00 2.026,81 13.307,93 30/06/2020
559 612300 CRISTIANE RIBEIRO DOS REIS ARCANJO OFICIAL DO MP BELO HORIZONTE - COMARCA; DIRETORIA DE PAGAMENTO DE PESSOAL-DPAG 5.217,34 521,73 0,00 2.869,54 0,00 0,00 0,00 0,00 8.608,61 679,68 417,70 0,00 0,00 1.097,38 7.511,23 30/06/2020
560 257700 CRISTIANE RODRIGUES PAES NUNES ANALISTA DO MP BELO HORIZONTE - COMARCA; BH-22PJ PES COM DEF E IDOSOS-ORIENTACAO PSIC 16.750,82 5.025,25 0,00 10.888,04 0,00 0,00 0,00 2.319,39 34.983,50 2.395,37 4.408,20 0,00 0,00 6.803,57 28.179,93 30/06/2020
561 510800 CRISTIANE SANTOS FERNANDES ORNELES ANALISTA DO MP BELO HORIZONTE - COMARCA; COORD ESTADUAL DAS PJS DE HAB. E URBANISMO 10.069,62 1.006,96 0,00 5.538,29 0,00 0,00 0,00 1.550,00 18.164,87 1.218,42 1.841,63 0,00 0,00 3.060,05 15.104,82 30/06/2020
562 535701 CRISTIANE SANTOS MIRANDA ANALISTA DO MP BETIM - COMARCA; BETIM-PJ-12PJ 7.187,72 431,26 0,00 3.809,49 0,00 0,00 0,00 1.550,00 12.978,47 838,09 943,25 0,00 0,00 1.781,34 11.197,13 30/06/2020
563 536200 CRISTIANO DE OLIVEIRA ANALISTA DO MP CONCEIÇÃO DO MATO DENTRO - COMARCA; CONCEICAO DO MATO DENTRO-PJ-UNPJ 9.146,93 914,69 0,00 5.030,81 0,00 0,00 0,00 1.550,00 16.642,43 1.106,78 1.541,08 0,00 0,00 2.647,86 13.994,57 30/06/2020
564 477400 CRISTIANO SOARES ELEUTERIO ANALISTA DO MP BELO HORIZONTE - COMARCA; BH-17PJ PATRIMONIO PUBLICO-SECRETARIA 10.736,08 1.073,61 0,00 5.904,85 0,00 0,00 0,00 1.550,00 19.264,54 1.299,07 2.021,06 0,00 0,00 3.320,13 15.944,41 30/06/2020
565 449400 CRISTIANO TEIXEIRA RODRIGUES LANA ANALISTA DO MP BELO HORIZONTE - COMARCA; ASSESS TECNICO-JUR JUNTO AS PROC. DE JUST 10.069,62 2.013,92 0,00 6.041,77 0,00 0,00 0,00 1.550,00 19.675,31 1.329,19 2.088,09 0,00 0,00 3.417,28 16.258,03 30/06/2020
566 239400 CRISTINA DE FATIMA CRUZ E SILVA OFICIAL DO MP MONTE SANTO DE MINAS - COMARCA; MONTE SANTO DE MINAS-PJ-SECRETARIA 12.204,02 3.661,21 0,00 7.932,62 0,00 0,00 0,00 1.550,00 25.347,85 1.745,18 3.013,65 0,00 0,00 4.758,83 20.589,02 30/06/2020
567 544000 CRISTINA DE OLIVEIRA TERRA ANALISTA DO MP MATOZINHOS - COMARCA; MATOZINHOS-PJ-01PJ 8.436,53 843,65 0,00 0,00 0,00 0,00 0,00 1.550,00 10.830,18 1.020,82 1.401,96 0,00 0,00 2.422,78 8.407,40 30/06/2020
568 356800 CRISTINA DE PINHO BARROSO OFICIAL DO MP SABINÓPOLIS - COMARCA; SABINOPOLIS-PJ-UNPJ 7.421,79 2.226,54 0,00 4.824,17 0,00 0,00 0,00 2.319,39 16.791,89 1.061,32 1.387,79 0,00 0,00 2.449,11 14.342,78 30/06/2020
569 649500 CRISTINA DO DIVINO ESPIRITO SANTOS OFICIAL DO MP DIVINÓPOLIS - COMARCA; DIVINOPOLIS-PJ-12PJ 4.665,64 279,94 0,00 2.044,99 0,00 0,00 0,00 1.550,00 8.540,57 544,01 311,57 0,00 0,00 855,58 7.684,99 30/06/2020
570 348201 CRISTINA MARIA DA SILVA ANALISTA DO MP PATOS DE MINAS - COMARCA; PATOS DE MINAS-PJ-07PJ 10.069,62 2.013,92 0,00 6.041,77 0,00 0,00 0,00 2.319,39 20.444,70 1.329,19 2.088,09 0,00 0,00 3.417,28 17.027,42 30/06/2020
571 434900 CRISTINA MELO DE MADUREIRA ANALISTA DO MP BELO HORIZONTE - COMARCA; BH-07PJ 01 TRIBUNAL JURI-SECRETARIA 12.601,30 2.520,26 0,00 7.560,78 0,00 0,00 0,00 1.550,00 24.232,34 1.663,37 2.831,64 0,00 0,00 4.495,01 19.737,33 30/06/2020
572 307700 CRISTINA TEIXEIRA MARQUES OFICIAL DO MP BELO HORIZONTE - COMARCA; CENTRAL DE APOIO TECNICO-SETOR CONTABIL 8.579,10 2.573,73 0,00 5.576,42 0,00 0,00 0,00 1.550,00 18.279,25 1.226,81 1.860,30 0,00 0,00 3.087,11 15.192,14 30/06/2020
573 265300 CRISTOVAO SANCHES DE MEDEIROS ANALISTA DO MP BELO HORIZONTE - COMARCA; DIRETORIA DE CONTABILIDADE 15.272,02 4.581,61 0,00 9.926,82 0,00 0,00 0,00 1.550,00 31.330,45 2.183,90 3.989,82 0,00 0,00 6.173,72 25.156,73 30/06/2020
574 349800 CROZEIR LUIZ DA SILVA OFICIAL DO MP UNAÍ - COMARCA; UNAI-PJ-SECRETARIA 8.579,10 1.715,82 0,00 5.147,46 0,00 0,00 0,00 1.550,00 16.992,38 1.132,44 1.598,18 0,00 0,00 2.730,62 14.261,76 30/06/2020
575 490500 CYNTHIA CRISTINA DE SOUZA OLIVEIRA VALENTE ANALISTA DO MP BELO HORIZONTE - COMARCA; BH-09PJ AUDITORIA MILITAR-SECRETARIA 10.069,62 1.006,96 0,00 4.008,26 0,00 0,00 0,00 1.550,00 16.634,84 1.218,42 1.841,63 0,00 0,00 3.060,05 13.574,79 30/06/2020
576 389800 CYNTHIA GARIGLIO DOS SANTOS OFICIAL DO MP PERDIZES - COMARCA; PERDIZES-PJ-SECRETARIA 6.323,20 1.264,64 0,00 3.793,92 0,00 0,00 0,00 2.319,39 13.701,15 834,66 831,35 0,00 0,00 1.666,01 12.035,14 30/06/2020
577 335101 CYNTHIA GONTIJO D ASSUNCAO ANALISTA DO MP BELO HORIZONTE - COMARCA; PROC. JUSTICA DIR. DIFUSOS E COLETIVOS-SEC 10.069,62 1.006,96 0,00 5.538,29 0,00 0,00 0,00 2.319,39 18.934,26 1.218,42 1.841,63 0,00 0,00 3.060,05 15.874,21 30/06/2020
578 154000 CYNTHIA LOPES DOS SANTOS LAGES ASSESSOR BELO HORIZONTE - COMARCA; PROCURADOR-GERAL DE JUSTICA- GABINETE 0,00 9.404,62 13.435,16 11.419,89 0,00 2.640,96 0,00 1.550,00 38.450,63 2.512,38 5.411,58 0,00 0,00 7.923,96 30.526,67 30/06/2020
579 269700 CYNTIA ROCHA CAVALCANTI OFICIAL DO MP UBERLÂNDIA - COMARCA; UBERLANDIA-PJ-06PJ 12.204,02 3.661,21 0,00 7.932,62 0,00 0,00 0,00 2.319,39 26.117,24 1.745,18 3.013,65 0,00 0,00 4.758,83 21.358,41 30/06/2020
580 278000 DAIRTON LOPES MARTINS FILHO COORDENADOR/ANALISTA BELO HORIZONTE - COMARCA; DIRETORIA DE SISTEMAS DE INFORMACAO 0,00 4.030,55 13.435,16 8.732,86 0,00 0,00 0,00 1.550,00 27.748,57 1.439,96 3.537,72 0,00 0,00 4.977,68 22.770,89 30/06/2020
581 392700 DALIANA CHAVES IBRAIM MARINHO OFICIAL DO MP ITAÚNA - COMARCA; ITAUNA-PJ-04PJ 6.961,05 1.392,21 0,00 4.176,63 0,00 0,00 0,00 1.550,00 14.079,89 918,86 1.175,10 0,00 0,00 2.093,96 11.985,93 30/06/2020
582 558101 DALLEY TASSIA SILVA ANALISTA DO MP MORADA NOVA DE MINAS - COMARCA; MORADA NOVA DE MINAS-PJ-UNPJ 8.170,49 817,05 0,00 0,00 0,00 0,00 0,00 3.088,78 12.076,32 988,63 1.226,07 0,00 0,00 2.214,70 9.861,62 30/06/2020
583 476700 DALTON DAUD ANALISTA DO MP ARAGUARI - COMARCA; ARAGUARI-PJ-05PJ 10.069,62 1.006,96 0,00 5.538,29 0,00 0,00 0,00 1.550,00 18.164,87 1.218,42 1.737,36 0,00 0,00 2.955,78 15.209,09 30/06/2020
584 426900 DANIEL ALVES DA SILVA OFICIAL DO MP BELO HORIZONTE - COMARCA; DIVISAO TRANSPORTES 6.123,79 1.224,76 0,00 0,00 0,00 0,00 0,00 1.550,00 8.898,55 808,34 824,92 0,00 0,00 1.633,26 7.265,29 30/06/2020
585 122000 DANIEL ANTONIO VIEIRA OFICIAL DO MP ENTRE-RIOS DE MINAS - COMARCA; ENTRE RIOS DE MINAS-PJ-SECRETARIA 10.069,62 8.055,69 0,00 0,00 0,00 0,00 0,00 1.550,00 19.675,31 1.993,78 3.358,26 0,00 0,00 5.352,04 14.323,27 30/06/2020
586 411000 DANIEL FERREIRA DA SILVA ANALISTA DO MP GOVERNADOR VALADARES - COMARCA; GOVERNADOR VALADARES-PJ-15PJ 12.204,02 3.661,21 0,00 7.932,62 0,00 0,00 523,55 8.030,87 32.352,27 1.745,18 2.857,24 0,00 0,00 4.602,42 27.749,85 30/06/2020
587 309000 DANIEL GOMES DOS SANTOS ANALISTA DO MP POÇOS DE CALDAS - COMARCA; POCOS DE CALDAS-PJ-03PJ 15.499,20 4.649,76 0,00 10.074,48 0,00 0,00 0,00 1.550,00 31.773,44 2.216,39 4.062,10 0,00 0,00 6.278,49 25.494,95 30/06/2020
588 554500 DANIEL GOMES PEREIRA OFICIAL DO MP NANUQUE - COMARCA; NANUQUE-PJ-02PJ 5.387,19 538,72 0,00 2.962,96 0,00 0,00 0,00 1.550,00 10.438,87 651,85 581,01 0,00 0,00 1.232,86 9.206,01 30/06/2020
589 453000 DANIEL GONCALVES PEREIRA ANALISTA DO MP UNAÍ - COMARCA; UNAI-PJ-02PJ 10.069,62 2.013,92 0,00 6.041,77 0,00 0,00 0,00 2.703,54 20.828,85 1.329,19 2.088,09 0,00 0,00 3.417,28 17.411,57 30/06/2020
590 495500 DANIEL GUIMARAES CABRAL OFICIAL DO MP BELO HORIZONTE - COMARCA; BH-17PJ PATRIMONIO PUBLICO-SECRETARIA 6.123,79 612,38 0,00 3.368,09 0,00 0,00 0,00 1.550,00 11.654,26 740,98 779,32 0,00 0,00 1.520,30 10.133,96 30/06/2020
591 442900 DANIEL GUIMARAES GONCALVES ANALISTA DO MP UBERLÂNDIA - COMARCA; UBERLANDIA-PJ-03PJ 12.204,02 2.440,80 0,00 7.322,41 0,00 0,00 0,00 1.550,00 23.517,23 1.610,93 2.714,96 0,00 0,00 4.325,89 19.191,34 30/06/2020
592 655900 DANIEL LUIZ DA SILVA ASSESSOR BELO HORIZONTE - COMARCA; DIV FISCAL ADM CONT TERCEIRIZACAO 0,00 0,00 3.076,28 1.538,14 0,00 0,00 0,00 1.550,00 6.164,42 465,67 201,79 0,00 0,00 667,46 5.496,96 30/06/2020
593 464600 DANIEL PIACENTINI STIVANIN ANALISTA DO MP ANDRADAS - COMARCA; ANDRADAS-PJ-02PJ 10.069,62 1.006,96 0,00 5.538,29 0,00 0,00 0,00 1.550,00 18.164,87 1.218,42 1.841,63 0,00 0,00 3.060,05 15.104,82 30/06/2020
594 417000 DANIEL QUEIROZ FERREIRA ANALISTA DO MP SÃO SEBASTIÃO DO PARAÍSO - COMARCA; SAO SEBASTIAO DO PARAISO-PJ-05PJ 12.204,02 2.440,80 0,00 7.322,41 0,00 0,00 0,00 1.550,00 23.517,23 1.610,93 2.714,96 0,00 0,00 4.325,89 19.191,34 30/06/2020
595 396700 DANIEL SILVA CARNEVALLI DIRETOR/ANALISTA BELO HORIZONTE - COMARCA; SUPERINTENDENCIA DE TECNOLOGIA DA INFORMACAO 0,00 3.482,78 17.413,92 10.448,35 0,00 0,00 306,48 5.662,86 37.314,39 1.717,52 4.404,91 0,00 0,00 6.122,43 31.191,96 30/06/2020
596 489300 DANIEL TABOZA ROCHA ANALISTA DO MP IPATINGA - COMARCA; IPATINGA-PJ-08PJ 10.069,62 1.006,96 0,00 5.538,29 0,00 0,00 0,00 2.319,39 18.934,26 1.218,42 1.841,63 0,00 0,00 3.060,05 15.874,21 30/06/2020
597 414100 DANIEL TARDELI VALADAO ANALISTA DO MP TRÊS CORACOES - COMARCA; TRES CORACOES-PJ-02PJ 12.204,02 2.440,80 0,00 7.322,41 0,00 0,00 0,00 3.088,78 25.056,01 1.610,93 2.506,41 0,00 0,00 4.117,34 20.938,67 30/06/2020
598 446601 DANIEL VIEIRA BUENO ANALISTA DO MP SÃO DOMINGOS DO PRATA - COMARCA; SAO DOMINGOS DO PRATA-PJ-UNPJ 8.170,49 490,23 0,00 4.330,36 0,00 0,00 0,00 2.319,39 15.310,47 952,68 1.198,21 0,00 0,00 2.150,89 13.159,58 30/06/2020
599 253200 DANIELA BATISTA LIMA BARBOSA ASSESSOR BELO HORIZONTE - COMARCA; CENTRAL DE APOIO TECN-SETOR DE MEIO AMBIENTE 0,00 1.540,90 5.136,32 3.338,61 0,00 0,00 0,00 1.550,00 11.565,83 713,09 1.073,27 0,00 0,00 1.786,36 9.779,47 30/06/2020
600 505800 DANIELA BORGES DE MATTOS RESENDE ANALISTA DO MP JUIZ DE FORA - COMARCA; JUIZ DE FORA-PJ-20PJ 10.069,62 1.006,96 0,00 4.008,26 0,00 0,00 0,00 2.319,39 17.404,23 1.218,42 1.841,63 0,00 0,00 3.060,05 14.344,18 30/06/2020
601 478000 DANIELA CARVALHO SOARES ANALISTA DO MP SÃO JOÃO DEL REI - COMARCA; SAO JOAO DEL REI-PJ-01PJ 10.069,62 1.006,96 0,00 4.008,26 0,00 0,00 0,00 1.550,00 16.634,84 1.218,42 1.841,63 0,00 0,00 3.060,05 13.574,79 30/06/2020
602 275900 DANIELA CHAGAS SODRE ANALISTA DO MP BELO HORIZONTE - COMARCA; CENTRAL DE APOIO TECNICO-SETOR CONTABIL 16.750,82 5.025,25 0,00 10.888,04 0,00 0,00 0,00 1.550,00 34.214,11 2.395,37 4.408,20 0,00 0,00 6.803,57 27.410,54 30/06/2020
603 234301 DANIELA CRUZ SOARES ANALISTA DO MP BELO HORIZONTE - COMARCA; LABORATORIO TECNOLOGIA INTELIGENCIA 17.413,92 5.224,18 0,00 11.319,05 0,00 0,00 0,00 1.550,00 35.507,15 2.490,19 4.671,32 0,00 0,00 7.161,51 28.345,64 30/06/2020
604 638000 DANIELA DE ALMEIDA BATISTA ANALISTA DO MP ANDRELÂNDIA - COMARCA; ANDRELANDIA-PJ-UNPJ 7.421,79 742,18 0,00 4.081,99 0,00 0,00 0,00 2.319,39 14.565,35 671,12 1.191,17 0,00 0,00 1.862,29 12.703,06 30/06/2020
605 301000 DANIELA DE ALMEIDA E OLIVEIRA ANALISTA DO MP BELO HORIZONTE - COMARCA; DIRETORIA DE SISTEMAS DE INFORMACAO 16.750,82 5.025,25 0,00 10.888,04 0,00 0,00 0,00 1.550,00 34.214,11 2.395,37 4.460,33 0,00 0,00 6.855,70 27.358,41 30/06/2020
606 296000 DANIELA DE AZEVEDO SILVA ANALISTA DO MP BRASÓPOLIS - COMARCA; BRASOPOLIS-PJ-UNPJ 16.112,82 4.833,85 0,00 10.473,34 0,00 0,00 0,00 1.550,00 32.970,01 2.304,13 4.257,34 0,00 0,00 6.561,47 26.408,54 30/06/2020
607 453500 DANIELA DE CASTRO SOUSA BARBOSA ANALISTA DO MP BELO HORIZONTE - COMARCA; BH-08PJ JUIZADO ESPECIAL-SECRETARIA 10.069,62 2.013,92 0,00 6.041,77 0,00 0,00 0,00 1.550,00 19.675,31 1.329,19 2.088,09 0,00 0,00 3.417,28 16.258,03 30/06/2020
608 506000 DANIELA DE OLIVEIRA CAVALIERI ANALISTA DO MP BELO HORIZONTE - COMARCA; BH-14PJ DEFESA CONSUMIDOR-GAB 005PJ 9.444,70 944,47 0,00 5.194,59 0,00 0,00 0,00 1.550,00 17.133,76 1.142,81 1.673,39 0,00 0,00 2.816,20 14.317,56 30/06/2020
609 546200 DANIELA DE VILHENA LEMES GONCALVES OFICIAL DO MP TRÊS CORACOES - COMARCA; TRES CORACOES-PJ-05PJ 5.217,34 521,73 0,00 2.338,39 0,00 0,00 0,00 1.550,00 9.627,46 631,30 431,00 0,00 0,00 1.062,30 8.565,16 30/06/2020
610 356400 DANIELA LEAL FERRAZ ANALISTA DO MP MONTES CLAROS - COMARCA; COORD REG PJ DEF EDUC DIR CRIANCA ADOL NORTE 14.324,23 2.864,85 0,00 8.594,54 0,00 0,00 0,00 1.550,00 27.333,62 1.890,80 3.337,67 0,00 0,00 5.228,47 22.105,15 30/06/2020
611 501000 DANIELA LOURENCO SANTOS DA SILVA GUIMARAES ANALISTA DO MP BELO HORIZONTE - COMARCA; BH-12PJ JUIZO CRIMINAL-GAB 095PJ 10.069,62 1.006,96 0,00 5.538,29 0,00 0,00 0,00 2.319,39 18.934,26 1.218,42 1.789,50 0,00 0,00 3.007,92 15.926,34 30/06/2020
612 195801 DANIELA MARIA DE OLIVEIRA QUEIROZ ANALISTA DO MP ARAGUARI - COMARCA; ARAGUARI-PJ-06PJ 12.601,30 5.040,52 0,00 8.820,91 0,00 0,00 0,00 1.550,00 28.012,73 1.940,60 3.448,48 0,00 0,00 5.389,08 22.623,65 30/06/2020
613 511400 DANIELA MARIA LARA DE OLIVEIRA ANALISTA DO MP BOA ESPERANÇA - COMARCA; BOA ESPERANCA-PJ-02PJ 10.069,62 1.006,96 0,00 4.034,33 0,00 0,00 0,00 2.319,39 17.430,30 1.218,42 1.789,50 0,00 0,00 3.007,92 14.422,38 30/06/2020
614 252101 DANIELA PAULA ALVES PENA ANALISTA DO MP CONTAGEM - COMARCA; CONTAGEM-PJ-APO TECNICO 13.011,52 5.204,61 0,00 9.108,07 0,00 0,00 0,00 1.550,00 28.874,20 2.003,77 3.589,04 0,00 0,00 5.592,81 23.281,39 30/06/2020
615 604700 DANIELA PEIXOTO NOGUEIRA COORDENADOR/OFICIAL BELO HORIZONTE - COMARCA; DIRET DE FORMACAO, APERFEIC. E POS-GRADUACAO 0,00 1.181,92 11.819,15 4.911,27 0,00 0,00 0,00 2.319,39 20.231,73 672,40 2.521,02 0,00 0,00 3.193,42 17.038,31 30/06/2020
616 429600 DANIELA PIMENTA NUNES MACHADO ANALISTA DO MP BELO HORIZONTE - COMARCA; BH-05PJ-JUÍZO SUCESSÕES-SEC 12.601,30 2.520,26 0,00 0,00 0,00 0,00 0,00 2.319,39 17.440,95 1.663,37 2.779,51 0,00 0,00 4.442,88 12.998,07 30/06/2020
617 662000 DANIELA RIBAS DE AVILA ASSESSOR I BELO HORIZONTE - COMARCA; DIRETORIA DE SEGURANCA 0,00 0,00 8.170,49 4.085,25 0,00 0,00 0,00 1.550,00 13.805,74 713,09 1.483,92 0,00 0,00 2.197,01 11.608,73 30/06/2020
618 462000 DANIELA SOUSA GOMES DO AMARAL ANALISTA DO MP BETIM - COMARCA; BETIM-PJ-04PJ 10.069,62 1.006,96 0,00 4.008,26 0,00 0,00 0,00 1.550,00 16.634,84 1.218,42 1.841,63 0,00 0,00 3.060,05 13.574,79 30/06/2020
619 427000 DANIELA TEIXEIRA DINIZ ANDRADE ANALISTA DO MP BELO HORIZONTE - COMARCA; DIRETORIA DE PROJETOS DE EDIFICACOES 10.069,62 2.013,92 0,00 6.041,77 0,00 0,00 0,00 1.550,00 19.675,31 1.329,19 2.035,95 0,00 0,00 3.365,14 16.310,17 30/06/2020
620 337200 DANIELA TOLEDO SENIUK ANALISTA DO MP BELO HORIZONTE - COMARCA; GABINETE DE PROCURADOR DE JUSTIÇA - SALA 412 13.011,52 3.903,46 0,00 5.891,87 0,00 0,00 0,00 1.550,00 24.356,85 1.860,65 3.270,58 0,00 0,00 5.131,23 19.225,62 30/06/2020
621 605600 DANIELE ALZIRA SILVA CABRAL MOREIRA OFICIAL DO MP BELO HORIZONTE - COMARCA; BH-10PJ EXECUÇÃO PENAL-SECRETARIA 5.387,19 538,72 0,00 2.962,96 0,00 0,00 0,00 2.319,39 11.208,26 651,85 581,01 0,00 0,00 1.232,86 9.975,40 30/06/2020
622 195500 DANIELE CHAVES FONSECA OFICIAL DO MP BELO HORIZONTE - COMARCA; ASSESSORIA ESPECIAL DO PGJ 14.324,23 5.729,69 0,00 10.026,96 0,00 0,00 0,00 1.550,00 31.630,88 2.205,93 4.038,84 0,00 0,00 6.244,77 25.386,11 30/06/2020
623 323400 DANIELE MEGALE SANTINI OFICIAL DO MP BELO HORIZONTE - COMARCA; ASSESS TECNICO-JUR JUNTO AS PROC. DE JUST 9.752,14 2.925,64 0,00 6.338,89 0,00 0,00 0,00 1.550,00 20.566,67 1.394,56 2.181,39 0,00 0,00 3.575,95 16.990,72 30/06/2020
624 357900 DANIELE REJANE PINTO VERSIEUX OFICIAL DO MP PEDRO LEOPOLDO - COMARCA; PEDRO LEOPOLDO-PJ-03PJ 8.858,43 1.771,69 0,00 5.315,06 0,00 0,00 0,00 1.550,00 17.495,18 1.169,31 1.732,36 0,00 0,00 2.901,67 14.593,51 30/06/2020
625 389500 DANIELE VASCONCELOS AMORIM PRADO OFICIAL DO MP SÃO SEBASTIÃO DO PARAÍSO - COMARCA; SAO SEBASTIAO DO PARAISO-PJ-04PJ 8.579,10 1.715,82 0,00 5.147,46 0,00 0,00 0,00 1.550,00 16.992,38 1.132,44 1.650,32 0,00 0,00 2.782,76 14.209,62 30/06/2020
626 629700 DANIELLA BASTOS MARTINS BICALHO OFICIAL DO MP GOVERNADOR VALADARES - COMARCA; GOVERNADOR VALADARES-PJ-16PJ 5.217,34 521,73 0,00 0,00 0,00 0,00 0,00 1.550,00 7.289,07 631,30 535,28 0,00 0,00 1.166,58 6.122,49 30/06/2020
627 265000 DANIELLE CASTANHEIRA SCALABRINI OFICIAL DO MP BELO HORIZONTE - COMARCA; JUNTA RECURSAL DO PROCON ESTADUAL 10.069,62 3.020,89 0,00 6.545,26 0,00 0,00 0,00 1.550,00 21.185,77 1.439,96 2.230,27 0,00 0,00 3.670,23 17.515,54 30/06/2020
628 490100 DANIELLE DE AVILA SILVA LOPES ANALISTA DO MP BELO HORIZONTE - COMARCA; PROC. JUSTICA DIR. DIFUSOS E COLETIVOS-SEC 10.069,62 3.020,89 0,00 6.545,26 4.363,50 0,00 0,00 3.088,78 27.088,05 1.439,96 3.534,50 0,00 0,00 4.974,46 22.113,59 30/06/2020
629 549600 DANIELLE GOMES LOPES RODRIGUES OFICIAL DO MP VESPASIANO - COMARCA; VESPASIANO-PJ-02PJ 5.387,19 538,72 0,00 0,00 1.975,30 0,00 0,00 1.550,00 9.451,21 651,85 1.124,21 0,00 0,00 1.776,06 7.675,15 30/06/2020
630 613000 DANIELLE SILVA OLIVEIRA FRANKLIN ASSESSOR/OFICIAL BELO HORIZONTE - COMARCA; DIRETORIA DE ORCAMENTO-DIOR/SPC 0,00 1.039,75 10.397,52 0,00 0,00 0,00 0,00 3.088,78 14.526,05 679,68 2.088,98 0,00 0,00 2.768,66 11.757,39 30/06/2020
631 380800 DANILLO RIBEIRO ANTUNES ANALISTA DO MP MONTES CLAROS - COMARCA; MONTES CLAROS-PJ-SECRETARIA 13.011,52 2.602,30 0,00 7.806,91 0,00 0,00 0,00 1.550,00 24.970,73 1.717,52 2.899,99 0,00 0,00 4.617,51 20.353,22 30/06/2020
632 453700 DANILO BOTELHO DE CARVALHO ASSESSOR/ANALISTA BELO HORIZONTE - COMARCA; SUPERINTENDENCIA DE FINANCAS 0,00 4.939,57 24.697,83 14.818,70 0,00 0,00 0,00 2.319,39 46.775,49 1.746,26 6.800,70 0,00 0,00 8.546,96 38.228,53 30/06/2020
633 391200 DANILO D'AVILA MENDES ANALISTA DO MP SÃO ROMÃO - COMARCA; SAO ROMAO-PJ-UNPJ 13.011,52 2.602,30 0,00 7.806,91 0,00 0,00 0,00 2.319,39 25.740,12 1.717,52 2.952,12 0,00 0,00 4.669,64 21.070,48 30/06/2020
634 494900 DANILO GAVIAO AVELINO DE MELLO ANALISTA DO MP POUSO ALEGRE - COMARCA; GAECO REGIONAL DE POUSO ALEGRE 10.069,62 1.006,96 0,00 4.008,26 0,00 0,00 0,00 2.319,39 17.404,23 1.218,42 1.841,63 0,00 0,00 3.060,05 14.344,18 30/06/2020
635 604300 DANILO NASCIMENTO SALGADO ANALISTA DO MP JANAÚBA - COMARCA; JANAUBA-PJ-01PJ 8.436,53 843,65 0,00 4.640,09 0,00 0,00 0,00 1.550,00 15.470,27 1.020,82 1.401,96 0,00 0,00 2.422,78 13.047,49 30/06/2020
636 550800 DANTE MENDES BIANCHETTI FILHO ANALISTA DO MP BARBACENA - COMARCA; BARBACENA-PJ-SECRETARIA 8.436,53 843,65 0,00 0,00 0,00 0,00 0,00 1.550,00 10.830,18 1.020,82 1.401,96 0,00 0,00 2.422,78 8.407,40 30/06/2020
637 298300 DANUZA MONICA DE SOUZA DINIZ ANALISTA DO MP BELO HORIZONTE - COMARCA; ASSESSORIA ESPECIAL DO PGJ 12.601,30 3.780,39 0,00 8.190,85 0,00 0,00 0,00 1.550,00 26.122,54 1.801,99 3.087,92 0,00 0,00 4.889,91 21.232,63 30/06/2020
638 398700 DARCY LUIZ MILEO GREGATTI OFICIAL DO MP LAMBARI - COMARCA; LAMBARI-PJ-SECRETARIA 8.436,53 1.687,31 0,00 3.700,88 0,00 0,00 0,00 1.550,00 15.374,72 1.113,62 1.608,45 0,00 0,00 2.722,07 12.652,65 30/06/2020
639 406200 DARIANA AUGUSTA DE TOLEDO PATROCINIO RUIZ COORDENADOR/OFICIAL BELO HORIZONTE - COMARCA; DIRETORIA GESTAO COMPRAS LICITACOES 0,00 2.687,03 13.435,16 8.061,10 0,00 0,00 0,00 1.550,00 25.733,29 1.220,38 3.228,64 0,00 0,00 4.449,02 21.284,27 30/06/2020
640 586901 DARIO VITORINO DE CARVALHO SILVA ASSESSOR BELO HORIZONTE - COMARCA; DIRETORIA DE SEGURANCA 0,00 0,00 17.413,92 0,00 5.804,64 0,00 0,00 1.550,00 24.768,56 713,09 5.570,01 0,00 0,00 6.283,10 18.485,46 30/06/2020
641 305000 DARLI LEITE DE OLIVEIRA OFICIAL DO MP ARAÇUAÍ - COMARCA; ARACUAI-PJ-01PJ 6.123,79 1.837,14 0,00 3.980,47 0,00 0,00 0,00 1.550,00 13.491,40 875,70 922,67 0,00 0,00 1.798,37 11.693,03 30/06/2020
642 122200 DAVID RIBEIRO DOS SANTOS ANALISTA DO MP BORDA DA MATA - COMARCA; BORDA DA MATA-PJ-UNPJ 18.820,14 15.056,11 0,00 16.938,13 0,00 3.726,39 496,85 6.970,20 62.007,82 3.726,39 8.446,61 0,00 0,00 12.173,00 49.834,82 30/06/2020
643 389400 DAWSON CANEDO MARQUES OFICIAL DO MP TRÊS CORACOES - COMARCA; TRES CORACOES-PJ-02PJ 8.579,10 1.715,82 0,00 5.147,46 0,00 0,00 0,00 1.550,00 16.992,38 1.132,44 960,62 0,00 0,00 2.093,06 14.899,32 30/06/2020
644 537200 DAYANE TEIXEIRA DE OLIVEIRA CASELLI ANALISTA DO MP BELO HORIZONTE - COMARCA; ASSESS TECNICO-JUR JUNTO AS PROC. DE JUST 7.421,79 445,31 0,00 3.933,55 0,00 0,00 0,00 1.550,00 13.350,65 865,38 1.056,11 0,00 0,00 1.921,49 11.429,16 30/06/2020
645 256100 DAYSE ROSALY PEREIRA BATISTA OFICIAL DO MP BELO HORIZONTE - COMARCA; BH-08PJ JUIZADO ESPECIAL-SECRETARIA 10.069,62 3.020,89 0,00 6.545,26 0,00 0,00 0,00 1.550,00 21.185,77 1.439,96 2.334,54 0,00 0,00 3.774,50 17.411,27 30/06/2020
646 311901 DEBORA APARECIDA DA SILVA ASSESSOR BELO HORIZONTE - COMARCA; BH-23PJ CIVEL-SETOR ATEND PUB 0,00 0,00 3.076,28 1.538,14 0,00 0,00 0,00 1.550,00 6.164,42 465,67 201,79 0,00 0,00 667,46 5.496,96 30/06/2020
647 194301 DEBORA APARECIDA DOS SANTOS ANALISTA DO MP UBERLÂNDIA - COMARCA; UBERLANDIA-PJ-SEC FAMILIA 16.750,82 6.700,33 0,00 11.725,58 0,00 0,00 0,00 1.550,00 36.726,73 2.579,63 4.818,17 0,00 0,00 7.397,80 29.328,93 30/06/2020
648 518800 DEBORA CARVALHO FIORATTO COORDENADOR/OFICIAL BELO HORIZONTE - COMARCA; DIRETORIA MATERIAIS E SERVICOS 0,00 1.343,52 13.435,16 7.389,34 0,00 0,00 0,00 2.319,39 24.487,41 841,46 2.963,02 0,00 0,00 3.804,48 20.682,93 30/06/2020
649 444900 DEBORA CLAUDIA PEREIRA ALVES ANALISTA DO MP BELO HORIZONTE - COMARCA; BH-08PJ JUIZADO ESPECIAL-SECRETARIA 10.069,62 2.013,92 0,00 4.333,12 0,00 0,00 0,00 1.550,00 17.966,66 1.329,19 2.088,09 0,00 0,00 3.417,28 14.549,38 30/06/2020
650 617700 DEBORA COMANDUCI SCHREIDER ANALISTA DO MP BICAS - COMARCA; BICAS-PJ-UNPJ 8.170,49 817,05 0,00 4.493,77 0,00 0,00 0,00 1.550,00 15.031,31 988,63 1.278,20 0,00 0,00 2.266,83 12.764,48 30/06/2020
651 555700 DEBORA CRISTINA BUITRAGO PEREIRA ANALISTA DO MP BELO HORIZONTE - COMARCA; DIRETORIA GESTAO CONTRATOS CONVENIOS 8.436,53 843,65 0,00 4.640,09 0,00 0,00 0,00 3.088,78 17.009,05 1.020,82 1.401,96 0,00 0,00 2.422,78 14.586,27 30/06/2020
652 513100 DEBORA CRISTINA PEREIRA DE OLIVEIRA ANALISTA DO MP BELO HORIZONTE - COMARCA; BH-23PJ CIVEL-SETOR JURIDICO 10.069,62 1.006,96 0,00 5.538,29 0,00 0,00 0,00 2.319,39 18.934,26 1.218,42 1.841,63 0,00 0,00 3.060,05 15.874,21 30/06/2020
653 612100 DEBORA DUARTE SILVA DE SOUZA OFICIAL DO MP RIBEIRÃO DAS NEVES - COMARCA; RIBEIRAO DAS NEVES-PJ-06PJ 5.217,34 1.565,20 0,00 3.391,27 0,00 0,00 0,00 1.550,00 11.723,81 746,08 686,39 0,00 0,00 1.432,47 10.291,34 30/06/2020
654 539700 DEBORA SALES CARVALHO ANALISTA DO MP PATOS DE MINAS - COMARCA; COORD REG PJ DEF EDU DIR CRI ADO AL PAR NOROE 8.436,53 843,65 0,00 4.640,09 0,00 0,00 0,00 1.550,00 15.470,27 1.020,82 1.401,96 0,00 0,00 2.422,78 13.047,49 30/06/2020
655 424100 DEBORA SANTOS E ALVES ANALISTA DO MP JANUÁRIA - COMARCA; JANUARIA-PJ-01PJ 12.601,30 2.520,26 0,00 7.560,78 0,00 0,00 0,00 3.088,78 25.771,12 1.663,37 2.831,64 0,00 0,00 4.495,01 21.276,11 30/06/2020
656 426301 DEBORA SCUCATO MACHADO SOARES OFICIAL DO MP ITABIRITO - COMARCA; ITABIRITO-PJ-01PJ 5.387,19 1.077,44 0,00 0,00 0,00 0,00 0,00 2.319,39 8.784,02 711,11 712,86 0,00 0,00 1.423,97 7.360,05 30/06/2020
657 550200 DEBORA TRINDADE LEITE ANALISTA DO MP MANHUAÇU - COMARCA; MANHUACU-PJ-05PJ 8.436,53 843,65 0,00 4.640,09 0,00 0,00 0,00 1.550,00 15.470,27 1.020,82 1.297,69 0,00 0,00 2.318,51 13.151,76 30/06/2020
658 438000 DEBORAH COSTA LAGE ANALISTA DO MP BELO HORIZONTE - COMARCA; ASSESS TECNICO-JUR JUNTO AS PROC. DE JUST 12.601,30 2.520,26 0,00 7.560,78 0,00 0,00 0,00 1.550,00 24.232,34 1.663,37 2.831,64 0,00 0,00 4.495,01 19.737,33 30/06/2020
659 475700 DEBORAH LOBAO LACERDA ASSESSOR/OFICIAL BELO HORIZONTE - COMARCA; BH-17PJ PATRIMONIO PUBLICO-SECRETARIA 0,00 817,05 8.170,49 4.493,77 0,00 0,00 0,00 1.550,00 15.031,31 740,98 1.398,44 0,00 0,00 2.139,42 12.891,89 30/06/2020
660 613700 DEISER MARIA FERREIRA ROSCOE OFICIAL DO MP BELO HORIZONTE - COMARCA; DIVISAO FROTA 5.217,34 521,73 0,00 2.869,54 0,00 0,00 0,00 1.550,00 10.158,61 631,30 535,28 0,00 0,00 1.166,58 8.992,03 30/06/2020
661 551900 DEISY ROCHA DA SILVA ANALISTA DO MP JOÃO PINHEIRO - COMARCA; JOAO PINHEIRO-PJ-01PJ 8.436,53 843,65 0,00 3.428,70 0,00 0,00 0,00 1.550,00 14.258,88 1.020,82 1.401,96 0,00 0,00 2.422,78 11.836,10 30/06/2020
662 501900 DELI RAQUEL RODRIGUES ANALISTA DO MP ITUIUTABA - COMARCA; ITUIUTABA-PJ-04PJ 10.069,62 1.006,96 0,00 0,00 0,00 0,00 0,00 1.550,00 12.626,58 1.218,42 1.841,63 0,00 0,00 3.060,05 9.566,53 30/06/2020
663 378600 DELIANE LOPES VIEIRA BREIJAO ANALISTA DO MP JUIZ DE FORA - COMARCA; JUIZ DE FORA-PJ-12PJ 13.011,52 2.602,30 0,00 7.806,91 0,00 0,00 0,00 1.550,00 24.970,73 1.717,52 2.899,99 0,00 0,00 4.617,51 20.353,22 30/06/2020
664 487700 DENIA FERREIRA MAIA SILVA OFICIAL DO MP TRÊS CORACOES - COMARCA; TRES CORACOES-PJ-01PJ 6.123,79 612,38 0,00 2.660,08 0,00 0,00 0,00 2.319,39 11.715,64 740,98 675,04 0,00 0,00 1.416,02 10.299,62 30/06/2020
665 424800 DENIS APARECIDO CAMPOS DELFINO ANALISTA DO MP LUZ - COMARCA; LUZ-PJ-UNPJ 12.204,02 2.440,80 0,00 7.322,41 0,00 0,00 0,00 2.319,39 24.286,62 1.610,93 2.506,41 0,00 0,00 4.117,34 20.169,28 30/06/2020
666 381400 DENISE ANGELICA MELLO DE PAULA OFICIAL DO MP BELO HORIZONTE - COMARCA; BH-18PJ DIREITOS HUMANOS-SECRETARIA 8.579,10 1.715,82 0,00 5.147,46 0,00 0,00 0,00 2.319,39 17.761,77 1.132,44 1.650,32 0,00 0,00 2.782,76 14.979,01 30/06/2020
667 196300 DENISE DE ALMEIDA VILELA FURTADO OFICIAL DO MP BELO HORIZONTE - COMARCA; CENTRAL DE APOIO TECNICO-SECRETARIA 11.819,15 4.727,66 0,00 8.273,41 0,00 0,00 0,00 2.703,54 27.523,76 1.820,15 3.180,47 0,00 0,00 5.000,62 22.523,14 30/06/2020
668 336900 DENISE DE SOUSA MORAES SILVA OFICIAL DO MP MATEUS LEME - COMARCA; MATEUS LEME-PJ-02PJ 6.123,79 1.224,76 0,00 3.674,28 0,00 0,00 0,00 1.550,00 12.572,83 808,34 929,20 0,00 0,00 1.737,54 10.835,29 30/06/2020
669 271100 DENISE ELOY PEIXOTO OFICIAL DO MP BELO HORIZONTE - COMARCA; DIRETORIA DE INTELIGENCIA 12.204,02 3.661,21 0,00 7.932,62 0,00 0,00 0,00 1.550,00 25.347,85 1.745,18 3.013,65 0,00 0,00 4.758,83 20.589,02 30/06/2020
670 385400 DENISE FREITAS DE ASSIS OFICIAL DO MP CARATINGA - COMARCA; CARATINGA-PJ-SECRETARIA 7.912,85 1.582,57 0,00 4.747,71 0,00 0,00 0,00 1.550,00 15.793,13 1.044,50 1.454,64 0,00 0,00 2.499,14 13.293,99 30/06/2020
671 437100 DENISE NOGUEIRA MAGRI MENDES ANALISTA DO MP BELO HORIZONTE - COMARCA; LAB TECNOLOGIA CONTRA LAVAGEM DINHEIRO 12.601,30 3.780,39 0,00 0,00 0,00 0,00 0,00 1.550,00 17.931,69 1.801,99 2.983,65 0,00 0,00 4.785,64 13.146,05 30/06/2020
672 524700 DENISE RAMOS GUIMARAES OFICIAL DO MP BELO HORIZONTE - COMARCA; BH-07PJ 01 TRIBUNAL JURI-SECRETARIA 5.930,75 593,08 0,00 3.261,92 0,00 0,00 0,00 1.550,00 11.335,75 717,62 727,35 0,00 0,00 1.444,97 9.890,78 30/06/2020
673 239100 DENISE RIBEIRO DOS SANTOS CAETANO OFICIAL DO MP ITANHANDU - COMARCA; ITANHANDU-PJ-SECRETARIA 12.204,02 3.661,21 0,00 7.932,62 0,00 0,00 0,00 1.550,00 25.347,85 1.745,18 2.961,52 0,00 0,00 4.706,70 20.641,15 30/06/2020
674 325500 DENISE ROSA TORRES OFICIAL DO MP BELO HORIZONTE - COMARCA; DIRETORIA DE PESSOAL ADMINISTRATIVO - DPAD 10.069,62 3.020,89 0,00 6.545,26 0,00 0,00 0,00 1.550,00 21.185,77 1.561,75 2.300,52 0,00 0,00 3.862,27 17.323,50 30/06/2020
675 437200 DENISE VIVIANE DOS SANTOS ANALISTA DO MP BELO HORIZONTE - COMARCA; ASSESS TECNICA DA CORREGEDORIA-GERAL DO MP 10.736,08 2.147,22 0,00 6.441,65 0,00 0,00 0,00 2.703,54 22.028,49 1.417,16 2.179,55 0,00 0,00 3.596,71 18.431,78 30/06/2020
676 267900 DENISIA DE ALMEIDA SALES OFICIAL DO MP BELO HORIZONTE - COMARCA; BH-18PJ DIREITOS HUMANOS-SECRETARIA 9.146,93 2.744,08 0,00 5.945,51 0,00 0,00 0,00 1.550,00 19.386,52 1.308,01 1.988,83 0,00 0,00 3.296,84 16.089,68 30/06/2020
677 480300 DESIREE ARANTES FERREIRA GOUVEA OFICIAL DO MP PRATÁPOLIS - COMARCA; PRATAPOLIS-PJ-UNPJ 6.123,79 612,38 0,00 2.607,94 0,00 0,00 0,00 1.550,00 10.894,11 740,98 779,32 0,00 0,00 1.520,30 9.373,81 30/06/2020
678 355300 DEYSE CRISTINA MORAIS OFICIAL DO MP PASSOS - COMARCA; PASSOS-PJ-02PJ 8.579,10 1.715,82 0,00 5.147,46 0,00 0,00 0,00 1.550,00 16.992,38 1.132,44 1.650,32 0,00 0,00 2.782,76 14.209,62 30/06/2020
679 523700 DIANA CAMPOS RESENDE OFICIAL DO MP SÃO JOÃO DEL REI - COMARCA; SAO JOAO DEL REI-PJ-04PJ 6.741,63 3.370,82 0,00 5.056,23 0,00 0,00 0,00 1.550,00 16.718,68 1.112,37 1.553,52 0,00 0,00 2.665,89 14.052,79 30/06/2020
680 241900 DIANA CARDOSO MARTINS OFICIAL DO MP BELO HORIZONTE - COMARCA; CAO-CRIMINAL 8.858,43 2.657,53 0,00 5.757,98 0,00 0,00 0,00 1.550,00 18.823,94 1.266,76 1.949,17 0,00 0,00 3.215,93 15.608,01 30/06/2020
681 410100 DIANA GORDILHO SILVEIRA SENA ANALISTA DO MP BELO HORIZONTE - COMARCA; ASSESS TECNICO-JUR JUNTO AS PROC. DE JUST 12.601,30 2.520,26 0,00 7.560,78 0,00 0,00 0,00 1.550,00 24.232,34 1.663,37 2.831,64 0,00 0,00 4.495,01 19.737,33 30/06/2020
682 553000 DIANA MARIA MARQUES ANALISTA DO MP BETIM - COMARCA; BETIM-PJ-13PJ 8.436,53 843,65 0,00 4.640,09 0,00 0,00 0,00 1.550,00 15.470,27 1.020,82 1.349,83 0,00 0,00 2.370,65 13.099,62 30/06/2020
683 520000 DIARLE TOSTE DOS SANTOS ANALISTA DO MP RIO POMBA - COMARCA; RIO POMBA-PJ-UNPJ 10.069,62 1.006,96 0,00 5.538,29 0,00 0,00 0,00 1.550,00 18.164,87 1.218,42 1.214,75 0,00 0,00 2.433,17 15.731,70 30/06/2020
684 539800 DIEGO CAMARGOS RODRIGUES OFICIAL DO MP CONTAGEM - COMARCA; CONTAGEM-PJ-19PJ 5.387,19 538,72 0,00 2.962,96 0,00 0,00 0,00 1.550,00 10.438,87 651,85 581,01 0,00 0,00 1.232,86 9.206,01 30/06/2020
685 607300 DIEGO CERVEIRA DE SOUZA ANALISTA DO MP PATOS DE MINAS - COMARCA; COORD REG BACIAS PARACATU,URUCUIA E ABAETE 8.436,53 843,65 0,00 4.640,09 0,00 0,00 0,00 1.550,00 15.470,27 1.020,82 1.401,96 0,00 0,00 2.422,78 13.047,49 30/06/2020
686 669300 DIEGO DA CUNHA SOARES ASSESSOR ADMINISTRATIVO I BELO HORIZONTE - COMARCA; DIRET DE INFORMACAO E EXPEDICAO DE PROCESSOS 0,00 0,00 3.076,28 1.359,68 0,00 0,00 0,00 1.550,00 5.985,96 443,62 205,10 0,00 0,00 648,72 5.337,24 30/06/2020
687 446900 DIEGO DE FREITAS OFICIAL DO MP UBERABA - COMARCA; UBERABA-PJ-06PJ 7.421,79 1.484,36 0,00 4.453,08 0,00 0,00 0,00 1.550,00 14.909,23 979,68 1.310,42 0,00 0,00 2.290,10 12.619,13 30/06/2020
688 288800 DILENE NEPOMUCENO ALVES OFICIAL DO MP BELO HORIZONTE - COMARCA; DIRETORIA DE PESSOAL ADMINISTRATIVO - DPAD 10.069,62 3.020,89 0,00 4.658,01 0,00 0,00 0,00 1.550,00 19.298,52 1.439,96 2.334,54 0,00 0,00 3.774,50 15.524,02 30/06/2020
689 270101 DILSON DO AMARAL ANALISTA DO MP RIO CASCA - COMARCA; RIO CASCA-PJ-UNPJ 8.436,53 843,65 0,00 4.640,09 0,00 0,00 0,00 1.550,00 15.470,27 1.020,82 1.401,96 0,00 0,00 2.422,78 13.047,49 30/06/2020
690 466000 DIMITRI GUDE MARCIAL ANALISTA DO MP NANUQUE - COMARCA; NANUQUE-PJ-02PJ 10.069,62 1.006,96 0,00 5.538,29 0,00 0,00 0,00 2.319,39 18.934,26 1.218,42 1.737,36 0,00 0,00 2.955,78 15.978,48 30/06/2020
691 516300 DINORA APARECIDA MACEDO BRANDAO ANALISTA DO MP BELO HORIZONTE - COMARCA; SUPERINTENDENCIA DE RECURSOS HUMANOS 8.579,10 857,91 0,00 4.718,51 0,00 0,00 0,00 1.550,00 15.705,52 1.038,07 1.440,35 0,00 0,00 2.478,42 13.227,10 30/06/2020
692 511700 DIOGENES HENRIQUES PEREIRA LOURENCO ANALISTA DO MP CONTAGEM - COMARCA; CONTAGEM-PJ-13PJ 10.069,62 1.006,96 0,00 5.538,29 0,00 0,00 0,00 1.550,00 18.164,87 1.218,42 1.841,63 0,00 0,00 3.060,05 15.104,82 30/06/2020
693 604100 DIOGO CESAR DE OLIVEIRA HONORIO ASSESSOR PIUMHI - COMARCA; PIUMHI-PJ-02PJ 0,00 0,00 5.136,32 0,00 0,00 0,00 0,00 1.550,00 6.686,32 713,09 649,53 0,00 0,00 1.362,62 5.323,70 30/06/2020
694 387800 DIOGO FELIX DA SILVA OFICIAL DO MP CONSELHEIRO PENA - COMARCA; CONSELHEIRO PENA-PJ-01PJ 7.421,79 1.484,36 0,00 3.308,03 0,00 0,00 0,00 1.855,44 14.069,62 979,68 1.310,42 0,00 0,00 2.290,10 11.779,52 30/06/2020
695 259600 DIOGO MESQUITA MAIA ANALISTA DO MP BELO HORIZONTE - COMARCA; DIRET DE APOIO AS PROCURADORIAS DE JUSTICA 15.272,02 12.217,62 0,00 13.744,82 0,00 3.273,79 0,00 1.550,00 46.058,25 3.023,86 6.638,15 0,00 0,00 9.662,01 36.396,24 30/06/2020
696 386700 DIRCIMAR FERNANDES CARNEIRO OFICIAL DO MP VISCONDE DO RIO BRANCO - COMARCA; VISCONDE DO RIO BRANCO-PJ-03PJ 8.579,10 6.005,37 0,00 7.292,24 0,00 0,00 0,00 1.596,48 23.473,19 1.604,29 2.700,19 0,00 0,00 4.304,48 19.168,71 30/06/2020
697 113800 DIRSON APARECIDO GUIMARAES ASSESSOR BELO HORIZONTE - COMARCA; DIVISAO DE MANUTENCAO PREDIAL 0,00 4.622,69 5.136,32 4.879,51 0,00 0,00 0,00 1.550,00 16.188,52 713,09 1.920,77 0,00 0,00 2.633,86 13.554,66 30/06/2020
698 216700 DOMICIO VALDETE PEREIRA OFICIAL DO MP TEÓFILO OTONI - COMARCA; COORD REG PJ DEF EDU DIR CRIAN ADOL JEQUI MUC 14.324,23 5.729,69 0,00 10.026,96 0,00 0,00 0,00 1.550,00 31.630,88 2.205,93 3.934,56 0,00 0,00 6.140,49 25.490,39 30/06/2020
699 192701 DONIZETTI APARECIDO AMORIM ANALISTA DO MP PRATÁPOLIS - COMARCA; PRATAPOLIS-PJ-UNPJ 9.444,70 3.777,88 0,00 6.611,29 0,00 0,00 0,00 1.550,00 21.383,87 1.454,48 2.314,73 0,00 0,00 3.769,21 17.614,66 30/06/2020
700 558700 DORCILIA FATIMA DE OLIVEIRA OFICIAL DO MP DIVINÓPOLIS - COMARCA; DIVINOPOLIS-PJ-02PJ 5.387,19 538,72 0,00 2.962,96 0,00 0,00 0,00 1.550,00 10.438,87 651,85 528,87 0,00 0,00 1.180,72 9.258,15 30/06/2020
701 555300 DOUGLAS CUNHA DE SOUZA ANALISTA DO MP VARZEA DA PALMA - COMARCA; VARZEA DA PALMA-PJ-01PJ 8.436,53 843,65 0,00 3.428,70 0,00 0,00 306,25 4.890,86 17.905,99 1.020,82 1.401,96 0,00 0,00 2.422,78 15.483,21 30/06/2020
702 265900 DOUGLAS GOMES MOREIRA ANALISTA DO MP BELO HORIZONTE - COMARCA; CENTRAL DE APOIO TECNICO-SETOR DE ENGENHARIA 16.750,82 5.025,25 0,00 10.888,04 0,00 0,00 0,00 1.550,00 34.214,11 2.395,37 4.460,33 0,00 0,00 6.855,70 27.358,41 30/06/2020
703 241000 DOUGLAS MEIRELLES DE CASTRO OFICIAL DO MP CONCEIÇÃO DO RIO VERDE - COMARCA; CONCEICAO DO RIO VERDE-PJ-UNPJ 12.204,02 4.881,61 0,00 8.542,82 0,00 0,00 0,00 1.550,00 27.178,45 1.879,42 3.208,07 0,00 0,00 5.087,49 22.090,96 30/06/2020
704 534900 DOUGLAS SILVA E SOUZA ANALISTA DO MP CAMPOS GERAIS - COMARCA; CAMPOS GERAIS-PJ-UNPJ 8.436,53 843,65 0,00 4.640,09 3.093,39 0,00 0,00 1.550,00 18.563,66 1.020,82 2.200,51 0,00 0,00 3.221,33 15.342,33 30/06/2020
705 638900 DOUGLAS WALLAS CONCEICAO NEVES OFICIAL DO MP RIBEIRÃO DAS NEVES - COMARCA; RIBEIRAO DAS NEVES-PJ-SEC CIVEL 4.376,03 437,60 0,00 2.406,82 0,00 0,00 0,00 1.550,00 8.770,45 529,50 327,80 0,00 0,00 857,30 7.913,15 30/06/2020
706 146800 DUCINALVA AMARAL LOPES REIS OFICIAL DO MP PARAISÓPOLIS - COMARCA; PARAISOPOLIS-PJ-UNPJ 16.750,82 11.725,57 0,00 14.238,20 0,00 3.400,06 0,00 1.550,00 47.664,65 3.132,40 6.857,37 0,00 0,00 9.989,77 37.674,88 30/06/2020
707 122500 DUILIO CARLOS FERREIRA UTSCH OFICIAL DO MP CONCEIÇÃO DO MATO DENTRO - COMARCA; CONCEICAO DO MATO DENTRO-PJ-UNPJ 14.324,23 11.459,38 0,00 9.781,24 0,00 3.223,83 378,16 5.675,38 44.842,22 2.836,20 6.221,13 0,00 0,00 9.057,33 35.784,89 30/06/2020
708 201800 DULCINEIA ANDRE DE SOUZA OFICIAL DO MP JEQUITINHONHA - COMARCA; JEQUITINHONHA-PJ-SECRETARIA 14.324,23 5.729,69 0,00 10.026,96 0,00 0,00 0,00 1.550,00 31.630,88 2.205,93 3.830,29 0,00 0,00 6.036,22 25.594,66 30/06/2020
709 395800 DUVIDIER MEDIRCIO JUNIOR ANALISTA DO MP BELO HORIZONTE - COMARCA; CENTRAL DE APOIO TECNICO-SETOR DE ENGENHARIA 13.872,60 2.774,52 0,00 8.323,56 0,00 0,00 0,00 1.550,00 26.520,68 1.831,18 3.205,02 0,00 0,00 5.036,20 21.484,48 30/06/2020
710 604800 ECIA RAMILIS ISSA DE ABREU ANALISTA DO MP MANGA - COMARCA; MANGA-PJ-02PJ 8.436,53 843,65 0,00 3.428,70 0,00 0,00 0,00 1.550,00 14.258,88 1.020,82 1.401,96 0,00 0,00 2.422,78 11.836,10 30/06/2020
711 273000 EDELFINA APARECIDA GUIMARAES OFICIAL DO MP CACHOEIRA DE MINAS - COMARCA; CACHOEIRA DE MINAS-PJ-UNPJ 10.069,62 7.048,73 0,00 8.559,18 0,00 0,00 0,00 1.550,00 27.227,53 1.883,02 3.268,22 0,00 0,00 5.151,24 22.076,29 30/06/2020
712 523300 EDER DOS SANTOS PATRICIO ANALISTA DO MP NOVA SERRANA - COMARCA; NOVA SERRANA-PJ-03PJ 10.069,62 1.006,96 0,00 5.538,29 0,00 0,00 0,00 1.550,00 18.164,87 1.218,42 1.841,63 0,00 0,00 3.060,05 15.104,82 30/06/2020
713 356700 EDER JOSE PACHECO OFICIAL DO MP CAMPO BELO - COMARCA; CAMPO BELO-PJ-SECRETARIA 8.858,43 1.771,69 0,00 3.916,35 0,00 0,00 0,00 2.496,18 17.042,65 1.169,31 1.628,09 0,00 0,00 2.797,40 14.245,25 30/06/2020
714 507900 EDERSON SILVA LOPES OFICIAL DO MP BELO HORIZONTE - COMARCA; LABORATORIO TECNOLOGIA INTELIGENCIA 6.123,79 612,38 0,00 0,00 0,00 0,00 0,00 1.550,00 8.286,17 740,98 675,04 0,00 0,00 1.416,02 6.870,15 30/06/2020
715 296200 EDGARD GOULART MATOSINHO DE LAET JR ANALISTA DO MP GOVERNADOR VALADARES - COMARCA; GAECO REGIONAL DE GOVERNADOR VALADARES 15.272,02 4.581,61 0,00 9.926,82 0,00 0,00 0,00 1.550,00 31.330,45 2.183,90 3.885,54 0,00 0,00 6.069,44 25.261,01 30/06/2020
716 295000 EDILA MARIA DA SILVEIRA OFICIAL DO MP FORMIGA - COMARCA; FORMIGA-PJ-01PJ 8.579,10 2.573,73 0,00 4.032,86 3.717,61 0,00 0,00 1.550,00 20.453,30 1.226,81 2.882,64 0,00 0,00 4.109,45 16.343,85 30/06/2020
717 332300 EDILA MARILAC MIRANDA PRADO OFICIAL DO MP DIAMANTINA - COMARCA; COORD REG BACIAS RIOS JEQUITINHONHA E MUCURI 9.752,14 4.876,07 0,00 7.314,11 0,00 0,00 0,00 3.088,78 25.031,10 1.609,10 2.606,62 0,00 0,00 4.215,72 20.815,38 30/06/2020
718 376600 EDILANE CONSOLACAO ROSA NAZARETH ANALISTA DO MP BETIM - COMARCA; BETIM-PJ-10PJ 13.011,52 2.602,30 0,00 5.472,09 0,00 0,00 0,00 1.550,00 22.635,91 1.717,52 2.952,12 0,00 0,00 4.669,64 17.966,27 30/06/2020
719 301500 EDILENE APARECIDA DE CARVALHO ANALISTA DO MP BELO HORIZONTE - COMARCA; BH-02PJ FAMILIA-SECRETARIA 15.272,02 4.581,61 0,00 9.926,82 0,00 0,00 72,80 2.344,15 32.197,40 2.183,90 3.937,68 0,00 0,00 6.121,58 26.075,82 30/06/2020
720 309800 EDILZA DOS REIS OFICIAL DO MP UBERLÂNDIA - COMARCA; UBERLANDIA-PJ-03PJ 10.069,62 3.020,89 0,00 6.545,26 0,00 0,00 0,00 1.550,00 21.185,77 1.439,96 2.334,54 0,00 0,00 3.774,50 17.411,27 30/06/2020
721 200500 EDINEIA MARIA DE OLIVEIRA ANTUNES OFICIAL DO MP MONTES CLAROS - COMARCA; MONTES CLAROS-PJ-10PJ 14.324,23 5.729,69 0,00 10.026,96 0,00 0,00 0,00 1.550,00 31.630,88 2.205,93 4.038,84 0,00 0,00 6.244,77 25.386,11 30/06/2020
722 427700 EDISANGELA SOARES LOPES OFICIAL DO MP PIRAPORA - COMARCA; PIRAPORA-PJ-02PJ 6.123,79 1.224,76 0,00 2.805,51 0,00 0,00 0,00 1.550,00 11.704,06 808,34 929,20 0,00 0,00 1.737,54 9.966,52 30/06/2020
723 555400 EDISON MONTEIRO SAMPAIO NETO ANALISTA DO MP BELO HORIZONTE - COMARCA; BH-12PJ JUIZO CRIMINAL-GAB 094PJ 8.436,53 843,65 0,00 4.640,09 0,00 0,00 0,00 1.550,00 15.470,27 1.020,82 1.401,96 0,00 0,00 2.422,78 13.047,49 30/06/2020
724 517700 EDMILSON TADEU FERNANDES OFICIAL DO MP POUSO ALEGRE - COMARCA; GAECO REGIONAL DE POUSO ALEGRE 6.529,10 652,91 0,00 3.591,01 0,00 0,00 0,00 1.550,00 12.323,02 790,02 888,44 0,00 0,00 1.678,46 10.644,56 30/06/2020
725 358400 EDNA APARECIDA SILVA FERREIRA OFICIAL DO MP CORONEL FABRICIANO - COMARCA; CORONEL FABRICIANO-PJ-02PJ 8.858,43 1.771,69 0,00 5.315,06 0,00 0,00 0,00 1.550,00 17.495,18 1.169,31 1.628,09 0,00 0,00 2.797,40 14.697,78 30/06/2020
726 331800 EDNA MARCIA CAMILO DA SILVA OFICIAL DO MP SETE LAGOAS - COMARCA; SETE LAGOAS-PJ-SEC CRIMINAIS 10.069,62 3.020,89 0,00 6.545,26 0,00 0,00 191,99 3.644,48 23.472,24 1.439,96 2.282,40 0,00 0,00 3.722,36 19.749,88 30/06/2020
727 327900 EDRIEL SANTANA PEREIRA OFICIAL DO MP TUPACIGUARA - COMARCA; TUPACIGUARA-PJ-UNPJ 10.069,62 3.020,89 0,00 6.545,26 0,00 0,00 0,00 3.118,78 22.754,55 1.439,96 2.334,54 0,00 0,00 3.774,50 18.980,05 30/06/2020
728 482400 EDSON GARCIA OFICIAL DO MP MACHADO - COMARCA; MACHADO-PJ-02PJ 5.562,64 556,26 0,00 3.059,45 0,00 0,00 0,00 2.319,39 11.497,74 673,08 523,97 0,00 0,00 1.197,05 10.300,69 30/06/2020
729 225601 EDSON LABRE FILHO ANALISTA DO MP VARGINHA - COMARCA; VARGINHA-PJ-01PJ 15.272,02 4.581,61 0,00 9.926,82 0,00 0,00 0,00 1.550,00 31.330,45 2.183,90 3.937,68 0,00 0,00 6.121,58 25.208,87 30/06/2020
730 602700 EDSON NOGUEIRA BUENO OFICIAL DO MP PITANGUI - COMARCA; PITANGUI-PJ-02PJ 4.974,42 497,44 0,00 2.735,93 0,00 0,00 0,00 1.550,00 9.757,79 601,90 469,88 0,00 0,00 1.071,78 8.686,01 30/06/2020
731 414400 EDUARDO ABRANTES CAMPOS ANALISTA DO MP SÃO JOÃO DEL REI - COMARCA; SAO JOAO DEL REI-PJ-02PJ 12.601,30 2.520,26 0,00 7.560,78 0,00 0,00 0,00 1.550,00 24.232,34 1.663,37 2.831,64 0,00 0,00 4.495,01 19.737,33 30/06/2020
732 476800 EDUARDO ALVES DE MOURA ANALISTA DO MP UBERLÂNDIA - COMARCA; UBERLANDIA-PJ-02PJ 10.069,62 1.006,96 0,00 5.538,29 0,00 0,00 0,00 2.319,39 18.934,26 1.218,42 1.685,22 0,00 0,00 2.903,64 16.030,62 30/06/2020
733 390800 EDUARDO AMORIM PETTERSEN OFICIAL DO MP CARANGOLA - COMARCA; CARANGOLA-PJ-03PJ 7.912,85 1.582,57 0,00 4.747,71 0,00 0,00 0,00 2.319,39 16.562,52 1.044,50 1.454,64 0,00 0,00 2.499,14 14.063,38 30/06/2020
734 461600 EDUARDO ANTONIO DE ASSIS FARIA ASSESSOR BELO HORIZONTE - COMARCA; ASSESS EXECUTIVA DO CONSELHO SUPERIOR DO MP 0,00 0,00 8.170,49 4.085,25 0,00 0,00 0,00 2.319,39 14.575,13 713,09 1.379,65 0,00 0,00 2.092,74 12.482,39 30/06/2020
735 248800 EDUARDO DE CASTRO AMORIM ANALISTA DO MP BELO HORIZONTE - COMARCA; SUPERINTENDENCIA DE RECURSOS HUMANOS 18.103,37 5.431,01 0,00 11.767,19 0,00 0,00 0,00 1.550,00 36.851,57 2.588,78 4.890,68 0,00 0,00 7.479,46 29.372,11 30/06/2020
736 209100 EDUARDO DE SOUZA MAIA ANALISTA DO MP BELO HORIZONTE - COMARCA; ASSESS TECNICO-JUR JUNTO AS PROC. DE JUST 18.820,14 7.528,06 0,00 13.174,10 0,00 0,00 0,00 1.550,00 41.072,30 2.898,30 5.422,95 0,00 0,00 8.321,25 32.751,05 30/06/2020
737 633900 EDUARDO GONCALVES PIRES OFICIAL DO MP BELO HORIZONTE - COMARCA; BH-19PJ SAUDE-SECRETARIA 150PJ 5.217,34 1.565,20 0,00 3.391,27 0,00 0,00 0,00 1.550,00 11.723,81 746,08 790,67 0,00 0,00 1.536,75 10.187,06 30/06/2020
738 350500 EDUARDO GONCALVES RIBEIRO OFICIAL DO MP VESPASIANO - COMARCA; VESPASIANO-PJ-04PJ 8.170,49 1.634,10 0,00 0,00 0,00 0,00 0,00 1.647,94 11.452,53 1.078,50 1.530,31 0,00 0,00 2.608,81 8.843,72 30/06/2020
739 115800 EDUARDO HENRIQUE DE CAMPOS MAIA OFICIAL DO MP BELO HORIZONTE - COMARCA; DIV FISCAL ADM CONT TERCEIRIZACAO 15.272,02 7.636,01 0,00 11.454,02 0,00 0,00 0,00 1.550,00 35.912,05 2.519,88 4.580,97 0,00 0,00 7.100,85 28.811,20 30/06/2020
740 392600 EDUARDO HENRIQUE DOS SANTOS COSTA ELIAZAR OFICIAL DO MP MATOZINHOS - COMARCA; MATOZINHOS-PJ-01PJ 7.663,37 1.532,67 0,00 0,00 0,00 0,00 0,00 2.319,39 11.515,43 1.011,56 1.224,96 0,00 0,00 2.236,52 9.278,91 30/06/2020
741 407500 EDUARDO MASCARENHAS CURI AZEVEDO COORDENADOR/ANALISTA BELO HORIZONTE - COMARCA; CENTRO JORNALISMO 0,00 2.687,03 13.435,16 8.061,10 0,00 0,00 0,00 2.319,39 26.502,68 1.329,19 3.198,72 0,00 0,00 4.527,91 21.974,77 30/06/2020
742 601300 EDUARDO TRAD VIEIRA OFICIAL DO MP IBIRITÉ - COMARCA; IBIRITE-PJ-03PJ 4.974,42 497,44 0,00 2.200,04 0,00 0,00 0,00 1.550,00 9.221,90 601,90 469,88 0,00 0,00 1.071,78 8.150,12 30/06/2020
743 257600 EDUARDO VALADARES CABRAL ANALISTA DO MP BELO HORIZONTE - COMARCA; COORD DE INCLUSAO E MOBILIZACAO SOCIAIS 14.324,23 4.297,27 0,00 0,00 0,00 0,00 0,00 1.550,00 20.171,50 2.048,37 3.688,25 0,00 0,00 5.736,62 14.434,88 30/06/2020
744 545700 EDVAIR FERREIRA DE CARVALHO OFICIAL DO MP ARAGUARI - COMARCA; ARAGUARI-PJ-06PJ 4.974,42 497,44 0,00 2.735,93 0,00 0,00 0,00 1.550,00 9.757,79 601,90 374,30 0,00 0,00 976,20 8.781,59 30/06/2020
745 401700 EDWANIA AMORIM DO CARMO OFICIAL DO MP RIBEIRÃO DAS NEVES - COMARCA; RIBEIRAO DAS NEVES-PJ-03PJ 8.579,10 1.715,82 0,00 3.756,08 0,00 0,00 0,00 1.550,00 15.601,00 1.132,44 1.650,32 0,00 0,00 2.782,76 12.818,24 30/06/2020
746 303600 EFIGENIO SARAIVA LOPES ANALISTA DO MP BELO HORIZONTE - COMARCA; DIRETORIA DE PAGAMENTO DE PESSOAL-DPAG 16.750,82 5.025,25 0,00 10.888,04 0,00 0,00 0,00 1.550,00 34.214,11 2.395,37 4.356,06 0,00 0,00 6.751,43 27.462,68 30/06/2020
747 286000 ELAINE APARECIDA SILVA BERZOINI OFICIAL DO MP JUIZ DE FORA - COMARCA; JUIZ DE FORA-PJ-14PJ 10.069,62 3.020,89 0,00 6.545,26 0,00 0,00 0,00 1.550,00 21.185,77 1.439,96 2.334,54 0,00 0,00 3.774,50 17.411,27 30/06/2020
748 509000 ELAINE CANDIDA PONTES OFICIAL DO MP BELO HORIZONTE - COMARCA; BH-02PJ FAMILIA-SECRETARIA 7.187,72 718,77 0,00 3.953,25 0,00 0,00 0,00 1.550,00 13.409,74 869,71 1.065,75 0,00 0,00 1.935,46 11.474,28 30/06/2020
749 283601 ELAINE CRISTINA MEQUELINO DUARTE ANALISTA DO MP ALFENAS - COMARCA; ALFENAS-PJ-02PJ 13.011,52 2.602,30 0,00 7.806,91 0,00 0,00 0,00 1.550,00 24.970,73 1.717,52 2.847,85 0,00 0,00 4.565,37 20.405,36 30/06/2020
750 535500 ELAINE DE OLIVEIRA CAMPOS REIS OFICIAL DO MP RIBEIRÃO DAS NEVES - COMARCA; SEC PJ EXECUCAO PENAL RIBEIRAO NEVES 5.387,19 538,72 0,00 2.962,96 0,00 0,00 0,00 1.550,00 10.438,87 651,85 581,01 0,00 0,00 1.232,86 9.206,01 30/06/2020
751 455700 ELAINE DE OLIVEIRA CASTRO ANALISTA DO MP POMPÉU - COMARCA; POMPEU-PJ-UNPJ 10.069,62 1.006,96 0,00 5.538,29 0,00 0,00 0,00 2.319,39 18.934,26 1.218,42 1.789,50 0,00 0,00 3.007,92 15.926,34 30/06/2020
752 367200 ELAINE MUNIZ BARBOSA ANALISTA DO MP BELO HORIZONTE - COMARCA; DIRETORIA DE SISTEMAS DE INFORMACAO 14.324,23 2.864,85 0,00 8.594,54 0,00 0,00 0,00 2.319,39 28.103,01 1.890,80 3.285,53 0,00 0,00 5.176,33 22.926,68 30/06/2020
753 176900 ELAINE RIBEIRO TAVEIRA OFICIAL DO MP BELO HORIZONTE - COMARCA; DIRETORIA DE PESSOAL ADMINISTRATIVO - DPAD 11.819,15 4.727,66 0,00 8.273,41 0,00 0,00 0,00 1.550,00 26.370,22 1.820,15 3.180,47 0,00 0,00 5.000,62 21.369,60 30/06/2020
754 496200 ELAINE SABRINA MOREIRA SCHUWARTEN ANALISTA DO MP CORONEL FABRICIANO - COMARCA; CORONEL FABRICIANO-PJ-03PJ 10.069,62 1.006,96 0,00 5.538,29 0,00 0,00 0,00 1.550,00 18.164,87 1.218,42 1.841,63 0,00 0,00 3.060,05 15.104,82 30/06/2020
755 489200 ELAINE VICENTINO GARCIA ANALISTA DO MP BELO HORIZONTE - COMARCA; CENTRAL DE APOIO TECNICO-SETOR CONTABIL 10.069,62 3.020,89 0,00 6.545,26 0,00 0,00 0,00 1.550,00 21.185,77 1.439,96 2.230,27 0,00 0,00 3.670,23 17.515,54 30/06/2020
756 244500 ELCI ALVES DE SOUZA ASSESSOR BELO HORIZONTE - COMARCA; CAO-CONFLITOS AGRARIOS-SECRETARIA 0,00 1.540,90 5.136,32 2.622,74 0,00 0,00 0,00 1.550,00 10.849,96 713,09 1.021,14 0,00 0,00 1.734,23 9.115,73 30/06/2020
757 472500 ELCI VAZ DE OLIVEIRA FILHO ANALISTA DO MP PIUMHI - COMARCA; PIUMHI-PJ-02PJ 10.069,62 5.034,81 0,00 7.552,22 5.034,81 0,00 0,00 1.550,00 29.241,46 1.661,49 4.212,02 0,00 0,00 5.873,51 23.367,95 30/06/2020
758 385200 ELCI VIANA REIS OFICIAL DO MP RIO PARDO DE MINAS - COMARCA; RIO PARDO DE MINAS-PJ-SECRETARIA 8.579,10 3.431,64 0,00 6.005,37 0,00 0,00 0,00 1.550,00 19.566,11 1.321,18 2.070,27 0,00 0,00 3.391,45 16.174,66 30/06/2020
759 289801 ELCIO JOSE DOS SANTOS ASSESSOR/ANALISTA BELO HORIZONTE - COMARCA; DIVISAO DE SERVICOS 0,00 2.520,26 12.601,30 5.434,41 0,00 0,00 0,00 1.550,00 22.105,97 1.329,19 2.923,54 0,00 0,00 4.252,73 17.853,24 30/06/2020
760 319600 ELEN TULER DE ALBERGARIA ANALISTA DO MP BELO HORIZONTE - COMARCA; BH-19PJ SAUDE-SECRETARIA 130PJ 13.435,16 5.374,06 0,00 9.404,61 0,00 0,00 0,00 1.550,00 29.763,83 2.069,01 3.734,20 0,00 0,00 5.803,21 23.960,62 30/06/2020
761 151000 ELI LOURENCO RIBEIRO AGENTE DO MP BELO HORIZONTE - COMARCA; BH-19PJ SAUDE-SECRETARIA 130PJ 10.736,08 5.368,04 0,00 8.052,06 0,00 0,00 0,00 1.550,00 25.706,18 1.771,45 2.392,61 0,00 0,00 4.164,06 21.542,12 30/06/2020
762 205500 ELIANA ALVES DE SOUSA OFICIAL DO MP GOVERNADOR VALADARES - COMARCA; GOVERNADOR VALADARES-PJ-07PJ 9.146,93 3.658,77 0,00 6.402,85 0,00 0,00 0,00 1.550,00 20.758,55 1.408,63 2.264,83 0,00 0,00 3.673,46 17.085,09 30/06/2020
763 628800 ELIANA APARECIDA PEREIRA ANALISTA DO MP CAMBUÍ - COMARCA; CAMBUI-PJ-02PJ 7.421,79 742,18 0,00 4.081,99 0,00 0,00 0,00 1.550,00 13.795,96 898,04 1.076,63 0,00 0,00 1.974,67 11.821,29 30/06/2020
764 301700 ELIANA DA SILVEIRA ANALISTA DO MP BELO HORIZONTE - COMARCA; ASSESS TECNICO-JUR JUNTO AS PROC. DE JUST 14.790,66 4.437,20 0,00 9.613,93 0,00 0,00 0,00 1.550,00 30.391,79 2.115,06 3.836,66 0,00 0,00 5.951,72 24.440,07 30/06/2020
765 251500 ELIANA DE LIMA MILAGRES FONSECA ANALISTA DO MP CONTAGEM - COMARCA; CONTAGEM-PJ-21PJ 14.790,66 4.437,20 0,00 9.613,93 0,00 0,00 0,00 1.550,00 30.391,79 2.115,06 3.732,39 0,00 0,00 5.847,45 24.544,34 30/06/2020
766 503900 ELIANA DIAS DUTRA FERREIRA OFICIAL DO MP GOVERNADOR VALADARES - COMARCA; GOVERNADOR VALADARES-PJ-10PJ 7.421,79 742,18 0,00 4.081,99 0,00 0,00 0,00 0,00 12.245,96 898,04 1.024,50 0,00 0,00 1.922,54 10.323,42 30/06/2020
767 413900 ELIANA PINTO DE OLIVEIRA NEVES ANALISTA DO MP CAMPO BELO - COMARCA; CAMPO BELO-PJ-04PJ 12.204,02 2.440,80 0,00 7.322,41 0,00 0,00 0,00 2.319,39 24.286,62 1.610,93 2.714,96 0,00 0,00 4.325,89 19.960,73 30/06/2020
768 228200 ELIANA RODRIGUES DA CUNHA PINHEIRO OFICIAL DO MP BELO HORIZONTE - COMARCA; DIRETORIA DE PROJETOS DE EDIFICACOES 12.204,02 3.661,21 0,00 7.932,62 0,00 1.983,72 0,00 1.550,00 27.331,57 1.745,18 3.493,58 0,00 0,00 5.238,76 22.092,81 30/06/2020
769 386600 ELIANA SABINO CHAVES PESSOA ANALISTA DO MP CARATINGA - COMARCA; CARATINGA-PJ-06PJ 12.601,30 8.820,91 0,00 10.711,11 0,00 0,00 0,00 1.550,00 33.683,32 2.356,44 4.321,59 0,00 0,00 6.678,03 27.005,29 30/06/2020
770 297400 ELIANE AUGUSTA RIBEIRO COSTA ANALISTA DO MP CONSELHEIRO LAFAIETE - COMARCA; CONSELHEIRO LAFAIETE-PJ-05PJ 16.750,82 5.025,25 0,00 10.888,04 0,00 0,00 0,00 1.550,00 34.214,11 2.395,37 4.356,06 0,00 0,00 6.751,43 27.462,68 30/06/2020
771 510600 ELIANE CAROLINA MAIA ANALISTA DO MP IGARAPÉ - COMARCA; IGARAPE-PJ-01PJ 10.069,62 1.006,96 0,00 5.538,29 0,00 0,00 0,00 1.550,00 18.164,87 1.218,42 1.685,22 0,00 0,00 2.903,64 15.261,23 30/06/2020
772 269300 ELIANE EDLAMAR ROCHA OFICIAL DO MP PEDRO LEOPOLDO - COMARCA; PEDRO LEOPOLDO-PJ-02PJ 9.444,70 2.833,41 0,00 6.139,06 0,00 0,00 0,00 1.550,00 19.967,17 1.350,59 2.083,57 0,00 0,00 3.434,16 16.533,01 30/06/2020
773 262600 ELIANE FERREIRA SOARES ASSESSOR BELO HORIZONTE - COMARCA; BH-18PJ DIREITOS HUMANOS-SECRETARIA 0,00 2.054,53 5.136,32 2.808,93 0,00 0,00 0,00 1.550,00 11.549,78 713,09 1.162,39 0,00 0,00 1.875,48 9.674,30 30/06/2020
774 204400 ELIANE GLAUCE DE QUEIROS MAIA OFICIAL DO MP GUANHÃES - COMARCA; GUANHAES-PJ-02PJ 14.324,23 5.729,69 0,00 0,00 0,00 0,00 0,00 2.319,39 22.373,31 2.205,93 4.038,84 0,00 0,00 6.244,77 16.128,54 30/06/2020
775 91800 ELIANE KAPLER ALVES OFICIAL DO MP BELO HORIZONTE - COMARCA; DIVISAO DE CONTROLE IMOBILIARIO 18.820,14 9.410,07 0,00 9.594,59 0,00 0,00 0,00 1.550,00 39.374,80 3.105,32 5.935,71 0,00 0,00 9.041,03 30.333,77 30/06/2020
776 334200 ELIANE MARCIA DE OLIVEIRA BRITO OFICIAL DO MP BELO HORIZONTE - COMARCA; BH-08PJ JUIZADO ESPECIAL-SECRETARIA 6.123,79 1.837,14 0,00 3.003,08 0,00 0,00 0,00 1.550,00 12.514,01 875,70 1.079,08 0,00 0,00 1.954,78 10.559,23 30/06/2020
777 365900 ELIANE MARIA DE OLIVEIRA FERREIRA OFICIAL DO MP SETE LAGOAS - COMARCA; SETE LAGOAS-PJ-SEC CRIMINAIS 9.146,93 4.573,47 0,00 6.860,20 0,00 0,00 0,00 1.550,00 22.130,60 1.509,24 2.488,71 0,00 0,00 3.997,95 18.132,65 30/06/2020
778 320600 ELIANE STADLER DE SOUZA OFICIAL DO MP FRANCISCO SÁ - COMARCA; FRANCISCO SA-PJ-SECRETARIA 8.858,43 1.771,69 0,00 5.315,06 0,00 0,00 0,00 1.550,00 17.495,18 1.169,31 1.680,23 0,00 0,00 2.849,54 14.645,64 30/06/2020
779 448900 ELIAS PEREIRA OTONI ASSESSOR BELO HORIZONTE - COMARCA; BH-18PJ DIREITOS HUMANOS-SECRETARIA 0,00 0,00 5.136,32 0,00 0,00 0,00 0,00 1.550,00 6.686,32 713,09 545,25 0,00 0,00 1.258,34 5.427,98 30/06/2020
780 495400 ELICA SOUZA GASPARONI MATTOS OFICIAL DO MP UBÁ - COMARCA; UBA-PJ-06PJ 7.421,79 742,18 0,00 3.068,58 0,00 0,00 0,00 1.550,00 12.782,55 898,04 1.128,77 0,00 0,00 2.026,81 10.755,74 30/06/2020
781 86600 ELIENE FERREIRA DA SILVA OFICIAL DO MP BELO HORIZONTE - COMARCA; BH-22PJ PES COM DEF E IDOSOS-SECRETARIA 21.145,12 14.801,58 0,00 17.731,11 0,00 0,00 520,11 7.223,95 61.421,87 3.900,84 7.653,61 484,48 0,00 12.038,93 49.382,94 30/06/2020
782 183800 ELIENE MARIA CUNHA OFICIAL DO MP BELO HORIZONTE - COMARCA; DIRETORIA DE PESSOAL ADMINISTRATIVO - DPAD 14.790,66 5.916,26 0,00 0,00 0,00 0,00 0,00 1.550,00 22.256,92 2.277,76 4.146,52 0,00 0,00 6.424,28 15.832,64 30/06/2020
783 172300 ELINA APARECIDA SILVA ASSESSOR BELO HORIZONTE - COMARCA; BH-19PJ SAUDE-SECRETARIA 130PJ 0,00 1.230,51 3.076,28 2.153,40 0,00 0,00 0,00 1.550,00 8.010,19 644,56 350,06 0,00 0,00 994,62 7.015,57 30/06/2020
784 492501 ELINE CAMPOS DA FONSECA CUNHA ANALISTA DO MP PONTE NOVA - COMARCA; PONTE NOVA-PJ-02PJ 8.858,43 885,84 0,00 3.578,42 0,00 0,00 0,00 1.550,00 14.872,69 1.071,87 1.515,55 0,00 0,00 2.587,42 12.285,27 30/06/2020
785 618900 ELISA MOURA VIEIRA MARCATTI OFICIAL DO MP BELO HORIZONTE - COMARCA; BH-23PJ CIVEL-SEC EXP CIVEIS 5.217,34 521,73 0,00 2.869,54 0,00 0,00 0,00 2.319,39 10.928,00 631,30 535,28 0,00 0,00 1.166,58 9.761,42 30/06/2020
786 256500 ELISABETE NOGUEIRA ANALISTA DO MP RIBEIRÃO DAS NEVES - COMARCA; SEC PJ EXECUCAO PENAL RIBEIRAO NEVES 14.324,23 7.162,12 0,00 7.444,92 0,00 0,00 0,00 1.550,00 30.481,27 2.363,50 4.233,01 0,00 0,00 6.596,51 23.884,76 30/06/2020
787 355000 ELISANGELA DARLANTONI RIBEIRO OFICIAL DO MP ARAXÁ - COMARCA; ARAXA-PJ-05PJ 8.436,53 1.687,31 0,00 5.061,92 0,00 0,00 0,00 1.550,00 16.735,76 1.113,62 1.556,31 0,00 0,00 2.669,93 14.065,83 30/06/2020
788 604400 ELISANGELA DEMASI FERREIRA MOREIRA ANALISTA DO MP POÇOS DE CALDAS - COMARCA; POCOS DE CALDAS-PJ-06PJ 8.436,53 843,65 0,00 4.640,09 0,00 0,00 0,00 1.550,00 15.470,27 1.020,82 1.401,96 0,00 0,00 2.422,78 13.047,49 30/06/2020
789 323800 ELISANGELA GONCALVES DE JESUS OFICIAL DO MP BELO HORIZONTE - COMARCA; BH-09PJ AUDITORIA MILITAR-SECRETARIA 9.146,93 2.744,08 0,00 5.945,51 0,00 0,00 0,00 2.319,39 20.155,91 1.308,01 1.988,83 0,00 0,00 3.296,84 16.859,07 30/06/2020
790 507400 ELISANGELA MIGUEL DA ROCHA SILVA ASSESSOR BELO HORIZONTE - COMARCA; CGMP-DIVIS DE APOIO FISC ORIENTACAO FUNCIONAL 0,00 0,00 3.076,28 1.538,14 0,00 0,00 0,00 2.319,39 6.933,81 465,67 173,35 0,00 0,00 639,02 6.294,79 30/06/2020
791 261400 ELISANGELA REZENDE MENDES OFICIAL DO MP POUSO ALEGRE - COMARCA; POUSO ALEGRE-PJ-05PJ 9.752,14 2.925,64 0,00 6.338,89 0,00 0,00 0,00 1.550,00 20.566,67 1.394,56 2.233,53 0,00 0,00 3.628,09 16.938,58 30/06/2020
792 534100 ELISANGELA ROSINE SILVA OFICIAL DO MP UBERABA - COMARCA; UBERABA-PJ-06PJ 4.974,42 497,44 0,00 2.735,93 0,00 0,00 0,00 1.550,00 9.757,79 601,90 469,88 0,00 0,00 1.071,78 8.686,01 30/06/2020
793 634300 ELIUDE GRACA DAMASIO ROSARIO FRANCELINO OFICIAL DO MP BELO HORIZONTE - COMARCA; BH-18PJ VIOLENCIA DOMESTICA-SECRETARIA 4.376,03 437,60 0,00 1.978,17 0,00 0,00 0,00 2.319,39 9.111,19 529,50 327,80 0,00 0,00 857,30 8.253,89 30/06/2020
794 461700 ELIZABETH ALEIXO DA PAZ ANALISTA DO MP JUIZ DE FORA - COMARCA; JUIZ DE FORA-PJ-19PJ 10.069,62 1.006,96 0,00 5.538,29 0,00 0,00 0,00 1.550,00 18.164,87 1.218,42 1.841,63 0,00 0,00 3.060,05 15.104,82 30/06/2020
795 227300 ELIZABETH COIMBRA FELIX ASSESSOR/OFICIAL BELO HORIZONTE - COMARCA; DIRETORIA DE PAGAMENTO DE PESSOAL-DPAG 12.601,30 5.040,52 2.520,26 10.081,04 0,00 0,00 0,00 1.550,00 31.793,12 1.940,60 4.033,17 0,00 0,00 5.973,77 25.819,35 30/06/2020
796 354800 ELIZABETH DOS REIS OFICIAL DO MP BELO HORIZONTE - COMARCA; DIVISAO DE MATERIAIS 9.146,93 1.829,39 0,00 5.488,16 0,00 0,00 0,00 1.550,00 18.014,48 1.207,40 1.764,96 0,00 0,00 2.972,36 15.042,12 30/06/2020
797 612000 ELIZABETH MARIA DE QUEIROZ TANIGUCHI OFICIAL DO MP BELO HORIZONTE - COMARCA; SUPERINTENDENCIA DE RECURSOS HUMANOS 4.817,57 481,76 0,00 2.144,37 0,00 0,00 0,00 1.550,00 8.993,70 582,93 427,65 0,00 0,00 1.010,58 7.983,12 30/06/2020
798 452800 ELIZANGELA MARIA DAVI OFICIAL DO MP ARCOS - COMARCA; ARCOS-PJ-01PJ 6.123,79 1.224,76 0,00 2.831,58 0,00 0,00 0,00 1.550,00 11.730,13 808,34 877,06 0,00 0,00 1.685,40 10.044,73 30/06/2020
799 496300 ELIZANGELA MARQUES PINTO COELHO OFICIAL DO MP BELO HORIZONTE - COMARCA; DIRETORIA DE PESSOAL ADMINISTRATIVO - DPAD 7.421,79 742,18 0,00 4.081,99 0,00 0,00 0,00 1.550,00 13.795,96 898,04 1.128,77 0,00 0,00 2.026,81 11.769,15 30/06/2020
800 422500 ELIZETE FORTES DA CUNHA ANALISTA DO MP RIBEIRÃO DAS NEVES - COMARCA; RIBEIRAO DAS NEVES-PJ-07PJ 12.601,30 2.520,26 0,00 7.560,78 0,00 0,00 0,00 1.550,00 24.232,34 1.663,37 2.779,51 0,00 0,00 4.442,88 19.789,46 30/06/2020
801 506100 ELLEM CRISTINA ROCHA FONSECA BOWEN ANALISTA DO MP GOVERNADOR VALADARES - COMARCA; COORD REG PJ DEF EDU DIR CRIANCA ADOL RIODOCE 10.069,62 1.006,96 0,00 0,00 3.692,19 0,00 0,00 2.319,39 17.088,16 1.218,42 2.856,99 0,00 0,00 4.075,41 13.012,75 30/06/2020
802 468200 ELLEN CRISTINA BERNARDES DARE ANALISTA DO MP TRÊS PONTAS - COMARCA; TRES PONTAS-PJ-02PJ 10.069,62 1.006,96 0,00 5.538,29 0,00 0,00 0,00 2.319,39 18.934,26 1.218,42 1.789,50 0,00 0,00 3.007,92 15.926,34 30/06/2020
803 418800 ELLEN CRISTINA DE QUEIROZ FERREIRA ANALISTA DO MP BELO HORIZONTE - COMARCA; CENTRAL DE APOIO TECNICO-SETOR CONTABIL 12.204,02 2.440,80 0,00 5.159,46 0,00 0,00 0,00 2.319,39 22.123,67 1.610,93 2.714,96 0,00 0,00 4.325,89 17.797,78 30/06/2020
804 328401 ELLEN CRISTINA FERREIRA MORAIS MONTEIRO ANALISTA DO MP CAMANDUCAIA - COMARCA; CAMANDUCAIA-PJ-UNPJ 12.204,02 2.440,80 0,00 5.211,59 0,00 0,00 0,00 1.550,00 21.406,41 1.610,93 2.610,69 0,00 0,00 4.221,62 17.184,79 30/06/2020
805 556100 ELLEN CRISTINE BIANCHIN DA SILVA OFICIAL DO MP SÃO GONÇALO DO SAPUCAÍ - COMARCA; SAO GONCALO DO SAPUCAI-PJ-02PJ 4.974,42 497,44 0,00 0,00 0,00 0,00 0,00 1.550,00 7.021,86 601,90 417,74 0,00 0,00 1.019,64 6.002,22 30/06/2020
806 447100 ELLEN ROSANA DE MACEDO BORGES OFICIAL DO MP UBERLÂNDIA - COMARCA; UBERLANDIA-PJ-17PJ 7.663,37 1.532,67 0,00 4.598,02 0,00 0,00 0,00 1.550,00 15.344,06 1.011,56 1.381,37 0,00 0,00 2.392,93 12.951,13 30/06/2020
807 477700 ELMA JACOB OFICIAL DO MP BELO HORIZONTE - COMARCA; COORD DE GABINETE DO PGJ 7.421,79 5.195,26 0,00 6.308,53 0,00 1.581,65 0,00 1.550,00 22.057,23 1.387,88 2.600,33 0,00 0,00 3.988,21 18.069,02 30/06/2020
808 123300 ELMA PAULA DOS SANTOS COELHO OFICIAL DO MP BELO HORIZONTE - COMARCA; BH-19PJ SAUDE-SECRETARIA 130PJ 16.750,82 15.075,74 0,00 15.913,28 0,00 3.813,22 0,00 1.550,00 53.103,06 3.500,92 7.882,94 0,00 0,00 11.383,86 41.719,20 30/06/2020
809 356500 ELOISA CARDOSO SILVA FRANCA OFICIAL DO MP PEÇANHA - COMARCA; PECANHA-PJ-SECRETARIA 6.123,79 1.224,76 0,00 0,00 0,00 0,00 0,00 1.550,00 8.898,55 808,34 772,79 0,00 0,00 1.581,13 7.317,42 30/06/2020
810 251901 ELOISA COSTA E SILVA ANALISTA DO MP SANTOS DUMONT - COMARCA; SANTOS DUMONT-PJ-02PJ 10.069,62 3.020,89 0,00 6.545,26 0,00 0,00 0,00 2.319,39 21.955,16 1.439,96 2.282,40 0,00 0,00 3.722,36 18.232,80 30/06/2020
811 400400 ELOIZA MARIA FERRI PIRES DA SILVA OFICIAL DO MP BELO HORIZONTE - COMARCA; ASSESSORIA TECNICA DO PROCON-MG 7.663,37 1.532,67 0,00 4.598,02 0,00 0,00 0,00 1.550,00 15.344,06 1.011,56 1.329,23 0,00 0,00 2.340,79 13.003,27 30/06/2020
812 258000 ELSO CECIANO PALMEIRA COORDENADOR/OFICIAL BELO HORIZONTE - COMARCA; DIRET DE PESSOAL DO MINISTERIO PUBLICO - DPMP 11.085,56 7.759,89 2.836,60 10.841,03 0,00 0,00 0,00 1.550,00 34.073,08 2.073,00 4.523,13 0,00 0,00 6.596,13 27.476,95 30/06/2020
813 206900 ELVIRA RITA DOS SANTOS ANALISTA DO MP BELO HORIZONTE - COMARCA; CENTRAL DE APOIO TECNICO-SETOR CONTABIL 18.820,14 7.528,06 0,00 13.174,10 0,00 3.036,08 0,00 1.550,00 44.108,38 2.898,30 6.376,40 0,00 0,00 9.274,70 34.833,68 30/06/2020
814 506800 ELVIS FERREIRA DA SILVA ANALISTA DO MP BELO HORIZONTE - COMARCA; DIRETORIA DE SISTEMAS DE INFORMACAO 10.069,62 1.006,96 0,00 5.538,29 0,00 0,00 0,00 2.319,39 18.934,26 1.218,42 1.685,22 0,00 0,00 2.903,64 16.030,62 30/06/2020
815 602400 ELZA MARIA MOREIRA MUNIZ ANALISTA DO MP CARMO DO PARANAÍBA - COMARCA; CARMO DO PARANAIBA-PJ-02PJ 8.436,53 843,65 0,00 4.640,09 0,00 0,00 0,00 1.550,00 15.470,27 1.020,82 1.297,69 0,00 0,00 2.318,51 13.151,76 30/06/2020
816 368401 ELZIRA SIMOES DOS SANTOS ASSESSOR BELO HORIZONTE - COMARCA; ASSESSORIA DE COMUNICACAO INTEGRADA 0,00 3.433,94 11.446,46 7.440,20 0,00 0,00 0,00 1.550,00 23.870,60 713,09 3.329,15 0,00 0,00 4.042,24 19.828,36 30/06/2020
817 437400 EMANOELLE DA SILVA RODRIGUES OFICIAL DO MP UNAÍ - COMARCA; UNAI-PJ-03PJ 6.961,05 696,11 0,00 3.828,58 0,00 0,00 0,00 3.088,78 14.574,52 842,29 952,59 0,00 0,00 1.794,88 12.779,64 30/06/2020
818 458900 EMANUELLE CONRAD SILVA FREDERICO NAVES ANALISTA DO MP ALFENAS - COMARCA; ALFENAS-PJ-05PJ 12.204,02 1.220,40 0,00 6.712,21 0,00 0,00 0,00 2.319,39 22.456,02 1.476,69 2.364,13 0,00 0,00 3.840,82 18.615,20 30/06/2020
819 284100 EMERSON MAGNO ALMEIDA PEDROSA DA FONSECA ANALISTA DO MP BELO HORIZONTE - COMARCA; CENTRAL DE APOIO TECNICO-SETOR CONTABIL 16.750,82 5.025,25 0,00 0,00 0,00 0,00 0,00 1.550,00 23.326,07 2.395,37 3.017,20 0,00 0,00 5.412,57 17.913,50 30/06/2020
820 179900 EMERSON MORAIS DIAS OFICIAL DO MP BELO HORIZONTE - COMARCA; SUPERINTENDÊNCIA DE ENGENHARIA E ARQUITETURA 14.790,66 5.916,26 0,00 10.353,46 0,00 0,00 0,00 1.550,00 32.610,38 2.277,76 4.198,66 0,00 0,00 6.476,42 26.133,96 30/06/2020
821 488700 EMERSON SIQUEIRA DE SOUSA TEIXEIRA ANALISTA DO MP TARUMIRIM - COMARCA; TARUMIRIM-PJ-UNPJ 10.069,62 1.006,96 0,00 5.538,29 0,00 0,00 0,00 1.550,00 18.164,87 1.218,42 1.685,22 0,00 0,00 2.903,64 15.261,23 30/06/2020
822 194200 EMILIA ALVES FERREIRA RAMOS OFICIAL DO MP UBERLÂNDIA - COMARCA; UBERLANDIA-PJ-SEC FAMILIA 9.146,93 3.658,77 0,00 6.402,85 0,00 0,00 0,00 1.550,00 20.758,55 1.408,63 2.264,83 0,00 0,00 3.673,46 17.085,09 30/06/2020
823 123400 EMILIO CARLOS MARTINS OFICIAL DO MP AREADO - COMARCA; AREADO-PJ-UNPJ 17.413,92 13.931,14 0,00 15.672,53 0,00 3.764,02 0,00 1.550,00 52.331,61 3.447,96 7.698,39 0,00 0,00 11.146,35 41.185,26 30/06/2020
824 620700 EMILY FONTANA DE SIQUEIRA ANALISTA DO MP BELO HORIZONTE - COMARCA; BH-18PJ VIOLENCIA DOMESTICA-SECRETARIA 8.170,49 817,05 0,00 3.360,35 0,00 0,00 0,00 2.319,39 14.667,28 988,63 1.278,20 0,00 0,00 2.266,83 12.400,45 30/06/2020
825 297000 ENEIDA SOARES COSTA MELO ANALISTA DO MP PIUMHI - COMARCA; PIUMHI-PJ-01PJ 16.750,82 5.025,25 0,00 10.888,04 0,00 0,00 0,00 1.550,00 34.214,11 2.395,37 4.460,33 0,00 0,00 6.855,70 27.358,41 30/06/2020
826 276000 ENEZIO RODRIGUES DE SOUZA FILHO OFICIAL DO MP UBERLÂNDIA - COMARCA; UBERLANDIA-PJ-01PJ 10.069,62 3.020,89 0,00 6.545,26 0,00 0,00 0,00 1.550,00 21.185,77 1.439,96 2.334,54 0,00 0,00 3.774,50 17.411,27 30/06/2020
827 387700 ENI MARIA DOS REIS OFICIAL DO MP POUSO ALEGRE - COMARCA; POUSO ALEGRE-PJ-07PJ 8.579,10 1.715,82 0,00 3.756,08 0,00 0,00 0,00 1.550,00 15.601,00 1.132,44 1.650,32 0,00 0,00 2.782,76 12.818,24 30/06/2020
828 605100 ENIA MAIA ASSESSOR/OFICIAL BELO HORIZONTE - COMARCA; DIRETORIA DE ORCAMENTO-DIOR/SPC 0,00 1.039,75 10.397,52 5.718,64 0,00 0,00 0,00 1.550,00 18.705,91 670,93 2.091,38 0,00 0,00 2.762,31 15.943,60 30/06/2020
829 612200 ENILDO GOMES MEIRA FILHO ANALISTA DO MP BUENÓPOLIS - COMARCA; BUENOPOLIS-PJ-UNPJ 8.170,49 817,05 0,00 4.493,77 0,00 0,00 0,00 2.319,39 15.800,70 988,63 1.173,93 0,00 0,00 2.162,56 13.638,14 30/06/2020
830 553700 ENIVALDO NOVATO PUBLIO ANALISTA DO MP DIVINÓPOLIS - COMARCA; DIVINOPOLIS-PJ-09PJ 8.436,53 843,65 0,00 4.640,09 0,00 0,00 0,00 1.550,00 15.470,27 1.020,82 1.349,83 0,00 0,00 2.370,65 13.099,62 30/06/2020
831 417300 ERIC BARATTI DA SILVA ANALISTA DO MP PRATA - COMARCA; PRATA-PJ-UNPJ 10.069,62 2.013,92 0,00 6.041,77 0,00 0,00 0,00 1.550,00 19.675,31 1.329,19 2.088,09 0,00 0,00 3.417,28 16.258,03 30/06/2020
832 637600 ERIC DA ROCHA CHEHUEN ANALISTA DO MP LIMA DUARTE - COMARCA; LIMA DUARTE-PJ-UNPJ 7.421,79 742,18 0,00 0,00 0,00 0,00 0,00 1.550,00 9.713,97 671,12 1.191,17 0,00 0,00 1.862,29 7.851,68 30/06/2020
833 398900 ERIC TEIXEIRA SILVA OFICIAL DO MP UBERLÂNDIA - COMARCA; UBERLANDIA-PJ-SEC CIVEIS CRIMINAIS 8.436,53 1.687,31 0,00 5.061,92 0,00 0,00 0,00 1.550,00 16.735,76 1.113,62 1.608,45 0,00 0,00 2.722,07 14.013,69 30/06/2020
834 274200 ERICA DE SOUZA ANDRADE OFICIAL DO MP CURVELO - COMARCA; CURVELO-PJ-03PJ 10.069,62 3.020,89 0,00 6.545,26 0,00 0,00 0,00 1.550,00 21.185,77 1.439,96 2.282,40 0,00 0,00 3.722,36 17.463,41 30/06/2020
835 225700 ERICA GOMES DO COUTO OFICIAL DO MP BELO HORIZONTE - COMARCA; BH-21PJ TUTELA FUNDACOES-SECRETARIA 13.011,52 3.903,46 0,00 8.457,49 0,00 0,00 0,00 2.319,39 27.691,86 1.860,65 3.270,58 0,00 0,00 5.131,23 22.560,63 30/06/2020
836 632600 ERICA LEONOR MARTINS OFICIAL DO MP RESENDE COSTA - COMARCA; RESENDE COSTA-PJ-UNPJ 4.817,57 481,76 0,00 2.649,67 0,00 0,00 0,00 1.550,00 9.499,00 582,93 427,65 0,00 0,00 1.010,58 8.488,42 30/06/2020
837 524800 ERICA MACHADO DA COSTA E SOUZA ANALISTA DO MP BELO HORIZONTE - COMARCA; PROC JUST RECURSOS ESP E EXTRAORD CRIMINAIS 10.069,62 1.006,96 0,00 5.538,29 0,00 0,00 0,00 1.550,00 18.164,87 1.218,42 1.841,63 0,00 0,00 3.060,05 15.104,82 30/06/2020
838 249500 ERICA RODRIGUES ANDRADE OFICIAL DO MP SÃO FRANCISCO - COMARCA; SAO FRANCISCO-PJ-02PJ 8.858,43 2.657,53 0,00 5.757,98 0,00 0,00 0,00 1.550,00 18.823,94 1.266,76 1.897,03 0,00 0,00 3.163,79 15.660,15 30/06/2020
839 260800 ERICA VIANA GIARDINI DE OLIVEIRA OFICIAL DO MP BELO HORIZONTE - COMARCA; DIRETORIA GESTAO COMPRAS LICITACOES 10.069,62 3.020,89 0,00 6.545,26 0,00 0,00 0,00 1.550,00 21.185,77 1.439,96 2.334,54 0,00 0,00 3.774,50 17.411,27 30/06/2020
840 299800 ERICH DOUGLAS RIBEIRO GARCIA ANALISTA DO MP BELO HORIZONTE - COMARCA; CENTRAL DE APOIO TECNICO-SETOR CONTABIL 15.272,02 4.581,61 0,00 9.926,82 0,00 0,00 0,00 1.550,00 31.330,45 2.183,90 3.989,82 0,00 0,00 6.173,72 25.156,73 30/06/2020
841 365000 ERICK EDUARDO JOSE DA SILVA OFICIAL DO MP SANTOS DUMONT - COMARCA; SANTOS DUMONT-PJ-02PJ 6.123,79 1.224,76 0,00 3.674,28 0,00 0,00 0,00 1.550,00 12.572,83 808,34 929,20 0,00 0,00 1.737,54 10.835,29 30/06/2020
842 227400 ERIKA DE LAET GOULART BOECHAT ASSESSOR/OFICIAL BELO HORIZONTE - COMARCA; ASSESSORIA ESPECIAL DO PGJ 13.011,52 3.903,46 2.520,26 9.717,62 0,00 0,00 0,00 1.550,00 30.702,86 1.860,65 3.911,52 0,00 0,00 5.772,17 24.930,69 30/06/2020
843 285100 ERIKA FERREIRA DA SILVA OFICIAL DO MP JUIZ DE FORA - COMARCA; JUIZ DE FORA-PJ-11PJ 10.069,62 3.020,89 0,00 6.545,26 0,00 0,00 0,00 1.550,00 21.185,77 1.439,96 2.334,54 0,00 0,00 3.774,50 17.411,27 30/06/2020
844 420100 ERIKA JEANINE VERSIANI DE CASTRO ANALISTA DO MP BELO HORIZONTE - COMARCA; COORD ESTADUAL DE DEFESA DA EDUCACAO 12.601,30 2.520,26 0,00 7.560,78 0,00 0,00 0,00 1.550,00 24.232,34 1.663,37 2.831,64 0,00 0,00 4.495,01 19.737,33 30/06/2020
845 606900 ERIKA MARIA BARBOSA ANALISTA DO MP BELO HORIZONTE - COMARCA; CAO-SAUDE 7.663,37 766,34 0,00 4.214,86 0,00 0,00 0,00 1.550,00 14.194,57 927,27 1.141,67 0,00 0,00 2.068,94 12.125,63 30/06/2020
846 491000 ERIKA ROCHA PEREIRA E SILVA COORDENADOR/ANALISTA BELO HORIZONTE - COMARCA; DIR GOVERNANCA TECNOLOGIA INFORMACAO 0,00 1.343,52 13.435,16 7.389,34 0,00 0,00 0,00 1.550,00 23.718,02 1.218,42 2.858,14 0,00 0,00 4.076,56 19.641,46 30/06/2020
847 283201 ERIKA STEHLING COORDENADOR/ANALISTA BELO HORIZONTE - COMARCA; CENTRAL DE APOIO TECNICO-SETOR DE ENGENHARIA 10.069,62 1.006,96 2.363,83 4.865,15 0,00 0,00 0,00 1.550,00 19.855,56 1.218,42 2.491,69 0,00 0,00 3.710,11 16.145,45 30/06/2020
848 254000 ERLANDIA DA SILVA MENDES OFICIAL DO MP IPATINGA - COMARCA; IPATINGA-PJ-03PJ 12.204,02 4.881,61 0,00 8.542,82 0,00 0,00 0,00 1.550,00 27.178,45 1.879,42 3.155,94 0,00 0,00 5.035,36 22.143,09 30/06/2020
849 208600 ERNANE JOSE DA COSTA ANALISTA DO MP BELO HORIZONTE - COMARCA; CENTRAL DE APOIO TECNICO-SETOR MEDICO 18.820,14 15.056,11 0,00 16.938,13 0,00 0,00 1.882,01 1.550,00 54.246,39 3.933,41 7.882,47 0,00 0,00 11.815,88 42.430,51 30/06/2020
850 260600 ERNANI CALDEIRA DE ANDRADE ANALISTA DO MP BELO HORIZONTE - COMARCA; CENTRAL DE APOIO TECNICO-SETOR CONTABIL 18.820,14 5.646,04 0,00 12.233,09 0,00 0,00 0,00 1.550,00 38.249,27 2.691,28 5.118,74 0,00 0,00 7.810,02 30.439,25 30/06/2020
851 348500 ERNILANDIA DE OLIVEIRA DIAS OFICIAL DO MP MONTES CLAROS - COMARCA; MONTES CLAROS-PJ-16PJ 8.579,10 1.715,82 0,00 5.147,46 0,00 0,00 0,00 1.550,00 16.992,38 1.132,44 1.650,32 0,00 0,00 2.782,76 14.209,62 30/06/2020
852 199300 ERTON PORTINARI DE ANDRADE OFICIAL DO MP SETE LAGOAS - COMARCA; SETE LAGOAS-PJ-05PJ 14.324,23 5.729,69 0,00 10.026,96 0,00 0,00 0,00 1.550,00 31.630,88 2.205,93 3.934,56 0,00 0,00 6.140,49 25.490,39 30/06/2020
853 618800 ESLY DE CARLA AYALLA BARBOSA MENDES OFICIAL DO MP NOVA LIMA - COMARCA; NOVA LIMA-PJ-SECRETARIA 4.817,57 481,76 0,00 2.649,67 0,00 0,00 0,00 1.550,00 9.499,00 582,93 427,65 0,00 0,00 1.010,58 8.488,42 30/06/2020
854 537000 ESTANISLAU CORREIA ALMEIDA JUNIOR OFICIAL DO MP UBERLÂNDIA - COMARCA; UBERLANDIA-PJ-25PJ 5.387,19 538,72 0,00 2.962,96 0,00 0,00 0,00 1.550,00 10.438,87 651,85 581,01 0,00 0,00 1.232,86 9.206,01 30/06/2020
855 326900 ESTER ALICE PIMENTA OFICIAL DO MP BELO HORIZONTE - COMARCA; COORD DE INCLUSAO E MOBILIZACAO SOCIAIS 9.444,70 2.833,41 0,00 6.139,06 0,00 0,00 0,00 1.550,00 19.967,17 1.350,59 2.083,57 0,00 0,00 3.434,16 16.533,01 30/06/2020
856 503700 ESTHER GONCALVES FONSECA ANALISTA DO MP BELO HORIZONTE - COMARCA; CENTRO PUBLICIDADE E DESIGN GRAFICO 8.579,10 857,91 0,00 4.718,51 0,00 0,00 0,00 1.550,00 15.705,52 1.038,07 1.440,35 0,00 0,00 2.478,42 13.227,10 30/06/2020
857 475600 ETIENE DE FATIMA OLIVEIRA PEREIRA ANALISTA DO MP PATROCÍNIO - COMARCA; PATROCINIO-PJ-04PJ 10.069,62 1.006,96 0,00 5.538,29 0,00 0,00 0,00 1.934,69 18.549,56 1.218,42 1.737,36 0,00 0,00 2.955,78 15.593,78 30/06/2020
858 428800 EUGENIA RODRIGUES TRAJANO BORGES ANALISTA DO MP UBERABA - COMARCA; UBERABA-PJ-08PJ 12.204,02 2.440,80 0,00 7.322,41 0,00 0,00 0,00 1.550,00 23.517,23 1.610,93 2.714,96 0,00 0,00 4.325,89 19.191,34 30/06/2020
859 272700 EUGENIO DE BARCELOS FILHO OFICIAL DO MP FRUTAL - COMARCA; FRUTAL-PJ-03PJ 8.579,10 2.573,73 0,00 4.058,93 0,00 0,00 0,00 1.550,00 16.761,76 1.226,81 1.808,16 0,00 0,00 3.034,97 13.726,79 30/06/2020
860 254100 EULALIA ALVES MIRANDA LUCAS OFICIAL DO MP ALMENARA - COMARCA; ALMENARA-PJ-02PJ 11.085,56 3.325,67 0,00 7.205,62 0,00 0,00 0,00 1.550,00 23.166,85 1.585,24 2.553,51 0,00 0,00 4.138,75 19.028,10 30/06/2020
861 615500 EUNICE BARBOSA PINTO OFICIAL DO MP OURO PRETO - COMARCA; OURO PRETO-PJ-04PJ 5.217,34 1.043,47 0,00 3.130,41 0,00 0,00 0,00 1.550,00 10.941,22 688,69 662,97 0,00 0,00 1.351,66 9.589,56 30/06/2020
862 641200 EUNICE ELVIRA DA SILVA MATOS OFICIAL DO MP BELO HORIZONTE - COMARCA; BH-14PJ DEFESA CONSUMIDOR-SECRETARIA 4.376,03 262,56 0,00 2.319,30 0,00 0,00 0,00 1.550,00 8.507,89 510,24 292,75 0,00 0,00 802,99 7.704,90 30/06/2020
863 557900 EURIPEDES JOSUE PERES OFICIAL DO MP IBIÁ - COMARCA; IBIA-PJ-UNPJ 4.974,42 497,44 0,00 0,00 0,00 0,00 0,00 1.550,00 7.021,86 601,90 469,88 0,00 0,00 1.071,78 5.950,08 30/06/2020
864 225800 EURO CESAR VIEIRA BARBOSA ANALISTA DO MP BELO HORIZONTE - COMARCA; BH-17PJ PATRIMONIO PUBLICO-SECRETARIA 18.820,14 7.528,06 0,00 13.174,10 0,00 0,00 0,00 1.550,00 41.072,30 2.898,30 5.475,09 0,00 0,00 8.373,39 32.698,91 30/06/2020
865 199400 EUSTAQUIO ADAILTON LIMA E SILVA OFICIAL DO MP MANGA - COMARCA; MANGA-PJ-01PJ 14.324,23 10.026,96 0,00 8.395,25 8.117,06 0,00 0,00 1.550,00 42.413,50 2.678,63 7.114,24 0,00 0,00 9.792,87 32.620,63 30/06/2020
866 548000 EVA VILMA LEAO REIS JULIO OFICIAL DO MP BELO HORIZONTE - COMARCA; BH-07PJ 01 TRIBUNAL JURI-SECRETARIA 5.387,19 1.616,16 0,00 3.501,68 0,00 0,00 0,00 1.550,00 12.055,03 770,37 844,71 0,00 0,00 1.615,08 10.439,95 30/06/2020
867 517000 EVALDO SENA COSTA FILHO ANALISTA DO MP CONTAGEM - COMARCA; CONTAGEM-PJ-15PJ 10.069,62 3.020,89 0,00 6.545,26 0,00 0,00 0,00 1.550,00 21.185,77 1.439,96 2.178,13 0,00 0,00 3.618,09 17.567,68 30/06/2020
868 217500 EVELANGE LEAO RABELO ASSESSOR BELO HORIZONTE - COMARCA; COORD EST DEF DIR FAM PESSOAS DEFICI IDOSOS 0,00 1.230,51 3.076,28 2.153,40 0,00 0,00 0,00 1.550,00 8.010,19 644,56 440,25 0,00 0,00 1.084,81 6.925,38 30/06/2020
869 540400 EVIE SARAMELLA DE RESENDE OFICIAL DO MP BARBACENA - COMARCA; BARBACENA-PJ-05PJ 5.387,19 538,72 0,00 0,00 0,00 0,00 0,00 1.550,00 7.475,91 651,85 581,01 0,00 0,00 1.232,86 6.243,05 30/06/2020
870 469000 EWERTON CARDOSO DE SA RODRIGUES ANALISTA DO MP CAMPO BELO - COMARCA; CAMPO BELO-PJ-01PJ 10.069,62 1.006,96 0,00 5.538,29 0,00 0,00 0,00 2.319,39 18.934,26 1.218,42 1.737,36 0,00 0,00 2.955,78 15.978,48 30/06/2020
871 368900 FABIANA BARBOSA SIQUEIRA OFICIAL DO MP BELO HORIZONTE - COMARCA; CAO-ORDEM ECONOMICA E TRIBUTARIA-SECRETARIA 8.858,43 1.771,69 0,00 0,00 0,00 0,00 0,00 1.550,00 12.180,12 1.169,31 1.680,23 0,00 0,00 2.849,54 9.330,58 30/06/2020
872 273800 FABIANA CARNEIRO AMORIM COORDENADOR/OFICIAL BELO HORIZONTE - COMARCA; BH-23PJ CIVEL-COORD ADM CIVEL 10.736,08 3.220,82 2.363,83 8.160,37 0,00 0,00 0,00 1.550,00 26.031,10 1.535,26 3.092,37 0,00 0,00 4.627,63 21.403,47 30/06/2020
873 519300 FABIANA DE OLIVEIRA LOUREIRO ANALISTA DO MP BELO HORIZONTE - COMARCA; BH-09PJ AUDITORIA MILITAR-SECRETARIA 10.069,62 1.006,96 0,00 5.538,29 0,00 0,00 0,00 1.550,00 18.164,87 1.218,42 1.841,63 0,00 0,00 3.060,05 15.104,82 30/06/2020
874 363400 FABIANA DOURADO DUPIN VIEGAS ANALISTA DO MP BELO HORIZONTE - COMARCA; GABINETE DE PROCURADOR DE JUSTIÇA - SALA 705 14.790,66 2.958,13 0,00 8.874,40 0,00 0,00 455,55 6.519,66 33.598,40 1.952,37 3.422,52 0,00 0,00 5.374,89 28.223,51 30/06/2020
875 410800 FABIANA DUARTE QUITITE ANALISTA DO MP BELO HORIZONTE - COMARCA; BH-15PJ M AMB 16PJ HAB URB-SECRETARIA 12.601,30 2.520,26 0,00 7.560,78 0,00 0,00 0,00 1.550,00 24.232,34 1.663,37 2.831,64 0,00 0,00 4.495,01 19.737,33 30/06/2020
876 419500 FABIANA EULALIA DOS SANTOS ANALISTA DO MP SÃO JOÃO DEL REI - COMARCA; SAO JOAO DEL REI-PJ-01PJ 12.601,30 2.520,26 0,00 5.313,27 0,00 0,00 0,00 1.550,00 21.984,83 1.663,37 2.831,64 0,00 0,00 4.495,01 17.489,82 30/06/2020
877 376300 FABIANA MATTOSO LEMOS ANALISTA DO MP BELO HORIZONTE - COMARCA; BH-21PJ TUTELA FUNDACOES-SECRETARIA 13.011,52 2.602,30 0,00 7.806,91 0,00 0,00 0,00 1.550,00 24.970,73 1.717,52 2.952,12 0,00 0,00 4.669,64 20.301,09 30/06/2020
878 331500 FABIANA PACHECO OFICIAL DO MP GUAXUPÉ - COMARCA; GUAXUPE-PJ-01PJ 9.146,93 2.744,08 0,00 5.945,51 0,00 0,00 0,00 2.319,39 20.155,91 1.308,01 1.936,69 0,00 0,00 3.244,70 16.911,21 30/06/2020
879 510700 FABIANA PEREIRA SANTOS BORGES ANALISTA DO MP BELO HORIZONTE - COMARCA; DIRETORIA DE SISTEMAS DE INFORMACAO 10.069,62 1.006,96 0,00 5.538,29 0,00 0,00 0,00 2.319,39 18.934,26 1.218,42 1.789,50 0,00 0,00 3.007,92 15.926,34 30/06/2020
880 181700 FABIANA SOUZA FERREIRA OFICIAL DO MP BELO HORIZONTE - COMARCA; BH-19PJ SAUDE-SECRETARIA 150PJ 6.123,79 2.449,52 0,00 4.286,66 0,00 0,00 0,00 1.550,00 14.409,97 943,06 1.124,68 0,00 0,00 2.067,74 12.342,23 30/06/2020
881 272900 FABIANA STOCKLER LEITE OFICIAL DO MP LAJINHA - COMARCA; LAJINHA-PJ-SECRETARIA 10.069,62 5.034,81 0,00 7.552,22 0,00 0,00 0,00 2.425,63 25.082,28 1.661,49 2.723,17 0,00 0,00 4.384,66 20.697,62 30/06/2020
882 225500 FABIANE DE FATIMA PORTELLA ANALISTA DO MP BELO HORIZONTE - COMARCA; BH-18PJ DIREITOS HUMANOS-SECRETARIA 18.820,14 5.646,04 0,00 12.233,09 0,00 0,00 0,00 1.550,00 38.249,27 2.691,28 5.118,74 0,00 0,00 7.810,02 30.439,25 30/06/2020
883 433800 FABIANE DINIZ MATTOS ANALISTA DO MP BELO HORIZONTE - COMARCA; BH-23PJ INFRACIONAL-ASS JURIDICA 12.601,30 2.520,26 0,00 7.560,78 0,00 0,00 3.110,88 3.088,78 28.882,00 2.005,57 3.593,03 0,00 0,00 5.598,60 23.283,40 30/06/2020
884 455000 FABIANO CARVALHO DA SILVA ANALISTA DO MP LAVRAS - COMARCA; COORD REG DO MA DA BACIA DO RIO GRANDE 10.069,62 1.006,96 0,00 5.538,29 0,00 0,00 0,00 1.550,00 18.164,87 1.218,42 1.841,63 0,00 0,00 3.060,05 15.104,82 30/06/2020
885 498800 FABIANO FURTADO PESSOA COELHO ANALISTA DO MP BELO HORIZONTE - COMARCA; DIRETORIA DE REDES E BANCOS DE DADOS 10.069,62 1.006,96 0,00 5.538,29 0,00 0,00 0,00 1.550,00 18.164,87 1.218,42 1.789,50 0,00 0,00 3.007,92 15.156,95 30/06/2020
886 663000 FABIANO MARQUES CORREA ASSESSOR BELO HORIZONTE - COMARCA; DIRETORIA DE SUPORTE E MANUTENCAO 0,00 0,00 5.136,32 2.568,16 0,00 0,00 0,00 1.550,00 9.254,48 713,09 649,53 0,00 0,00 1.362,62 7.891,86 30/06/2020
887 394600 FABIANO PALHARES SILVA ANALISTA DO MP BELO HORIZONTE - COMARCA; CENTRAL DE APOIO TECN-SETOR DE MEIO AMBIENTE 13.011,52 2.602,30 0,00 7.806,91 0,00 0,00 0,00 1.550,00 24.970,73 1.717,52 2.899,99 0,00 0,00 4.617,51 20.353,22 30/06/2020
888 444400 FABIANO SARAIVA MEDEIROS ANALISTA DO MP BETIM - COMARCA; BETIM-PJ-11PJ 12.204,02 2.440,80 0,00 0,00 0,00 0,00 0,00 2.319,39 16.964,21 1.610,93 2.610,69 0,00 0,00 4.221,62 12.742,59 30/06/2020
889 408700 FABIANO SOARES PORTILHO ANALISTA DO MP VIÇOSA - COMARCA; VICOSA-PJ-02PJ 12.601,30 2.520,26 0,00 7.560,78 0,00 0,00 0,00 1.550,00 24.232,34 1.663,37 2.831,64 0,00 0,00 4.495,01 19.737,33 30/06/2020
890 442600 FABIO CARVALHO VIEIRA ANALISTA DO MP MONTES CLAROS - COMARCA; MONTES CLAROS-PJ-06PJ 9.444,70 1.888,94 0,00 5.666,82 0,00 0,00 0,00 1.550,00 18.550,46 1.246,70 1.904,55 0,00 0,00 3.151,25 15.399,21 30/06/2020
891 240101 FABIO JUNQUEIRA DE ASSIS FONSECA OFICIAL DO MP BELO HORIZONTE - COMARCA; BH-17PJ PATRIMONIO PUBLICO-SECRETARIA 7.912,85 1.582,57 0,00 4.747,71 0,00 0,00 0,00 1.550,00 15.793,13 1.044,50 1.454,64 0,00 0,00 2.499,14 13.293,99 30/06/2020
892 271500 FABIO LUIZ VIEIRA OFICIAL DO MP SANTA VITÓRIA - COMARCA; SANTA VITORIA-PJ-UNPJ 10.069,62 3.020,89 0,00 6.545,26 0,00 0,00 0,00 1.598,64 21.234,41 1.439,96 2.230,27 0,00 0,00 3.670,23 17.564,18 30/06/2020
893 213100 FABIO PRATES GONCALVES ASSESSOR BELO HORIZONTE - COMARCA; CENTRO CERIMONIAL 0,00 4.159,01 10.397,52 7.278,27 0,00 0,00 0,00 2.319,39 24.154,19 713,09 3.083,67 0,00 0,00 3.796,76 20.357,43 30/06/2020
894 436700 FABIO SANTIAGO DE CARVALHO OFICIAL DO MP POÇO FUNDO - COMARCA; POCO FUNDO-PJ-UNPJ 7.912,85 1.582,57 0,00 4.747,71 0,00 0,00 0,00 1.550,00 15.793,13 1.044,50 1.454,64 0,00 0,00 2.499,14 13.293,99 30/06/2020
895 208400 FABIOLA DE SOUSA CARDOSO ASSESSOR/ANALISTA BELO HORIZONTE - COMARCA; ASSESS TECNICA DA CORREGEDORIA-GERAL DO MP 18.820,14 7.528,06 2.520,26 14.434,23 0,00 0,00 0,00 1.550,00 44.852,69 2.898,30 6.272,43 0,00 0,00 9.170,73 35.681,96 30/06/2020
896 392200 FABIOLA LEROY COSTA ANALISTA DO MP ESMERALDAS - COMARCA; ESMERALDAS-PJ-01PJ 10.069,62 2.013,92 0,00 0,00 0,00 0,00 0,00 2.319,39 14.402,93 1.329,19 2.088,09 0,00 0,00 3.417,28 10.985,65 30/06/2020
897 409000 FABIOLA MONTEIRO DE CARVALHO CASTRO ANALISTA DO MP BOM SUCESSO - COMARCA; BOM SUCESSO-PJ-UNPJ 10.736,08 2.147,22 0,00 6.441,65 0,00 0,00 0,00 1.550,00 20.874,95 1.417,16 2.283,83 0,00 0,00 3.700,99 17.173,96 30/06/2020
898 227900 FABIOLA PIMENTA DE CARVALHO OFICIAL DO MP MONTES CLAROS - COMARCA; COORD REG BACIA RIOS VERDE GRANDE E PARDO 10.069,62 3.020,89 0,00 6.545,26 0,00 0,00 0,00 1.550,00 21.185,77 1.439,96 2.334,54 0,00 0,00 3.774,50 17.411,27 30/06/2020
899 525800 FABRICIA ALVES DANTAS OFICIAL DO MP MONTES CLAROS - COMARCA; MONTES CLAROS-PJ-01PJ 6.741,63 674,16 0,00 3.707,90 0,00 0,00 0,00 1.550,00 12.673,69 815,74 841,38 0,00 0,00 1.657,12 11.016,57 30/06/2020
900 263400 FABRICIA PINTO TEIXEIRA SANTIAGO OFICIAL DO MP BELO HORIZONTE - COMARCA; CAO-FUNDACOES-SECRETARIA 12.204,02 3.661,21 0,00 7.932,62 0,00 0,00 0,00 1.550,00 25.347,85 1.745,18 2.909,38 0,00 0,00 4.654,56 20.693,29 30/06/2020
901 420800 FABRICIO BERNARDES DE OLIVEIRA OFICIAL DO MP ITURAMA - COMARCA; ITURAMA-PJ-02PJ 7.912,85 1.582,57 0,00 4.747,71 0,00 0,00 0,00 1.559,46 15.802,59 1.044,50 1.402,51 0,00 0,00 2.447,01 13.355,58 30/06/2020
902 474000 FABRICIO DE FREITAS SALES ANALISTA DO MP MONTES CLAROS - COMARCA; COORD REG PATRI PUB ORD TRIB-NORTE MINAS 10.069,62 1.006,96 0,00 5.538,29 0,00 0,00 0,00 1.550,00 18.164,87 1.218,42 1.841,63 0,00 0,00 3.060,05 15.104,82 30/06/2020
903 510100 FABRICIO FURTADO ASSIS DO CARMO ANALISTA DO MP BELO HORIZONTE - COMARCA; SERVICO MEDICO-DEPTO PERIC MEDICA SAUDE OCUP 10.069,62 1.006,96 0,00 6.020,05 0,00 0,00 963,51 2.319,39 20.379,53 1.218,42 2.106,60 0,00 0,00 3.325,02 17.054,51 30/06/2020
904 519600 FABRICIO GONTIJO SALVATI ANALISTA DO MP JUIZ DE FORA - COMARCA; JUIZ DE FORA-CAO ESPECIALIZADO-SECRETARIA 10.069,62 1.006,96 0,00 5.538,29 0,00 0,00 0,00 1.550,00 18.164,87 1.218,42 1.841,63 0,00 0,00 3.060,05 15.104,82 30/06/2020
905 637400 FABRICIO HENRIQUE DA SILVA PASSOS ASSESSOR/ANALISTA BELO HORIZONTE - COMARCA; CENTRO PUBLICIDADE E DESIGN GRAFICO 0,00 1.039,75 10.397,52 4.222,31 0,00 0,00 0,00 1.550,00 17.209,58 1.018,67 1.995,76 0,00 0,00 3.014,43 14.195,15 30/06/2020
906 428200 FABRICIO ORZIL VIANA ANALISTA DO MP SANTA LUZIA - COMARCA; SANTA LUZIA-PJ-04PJ 10.069,62 2.013,92 0,00 4.333,12 0,00 0,00 0,00 1.550,00 17.966,66 1.329,19 2.088,09 0,00 0,00 3.417,28 14.549,38 30/06/2020
907 455600 FABRICIO PAIVA DA ROCHA ANALISTA DO MP SÃO JOÃO DEL REI - COMARCA; SAO JOAO DEL REI-PJ-06PJ 10.069,62 1.006,96 0,00 5.538,29 0,00 0,00 0,00 2.319,39 18.934,26 1.218,42 1.789,50 0,00 0,00 3.007,92 15.926,34 30/06/2020
908 511500 FABRICIO RENE CARDOSO DE PADUA ANALISTA DO MP SÃO SEBASTIÃO DO PARAÍSO - COMARCA; SAO SEBASTIAO DO PARAISO-PJ-03PJ 10.069,62 1.006,96 0,00 5.538,29 0,00 0,00 0,00 1.550,00 18.164,87 1.218,42 1.841,63 0,00 0,00 3.060,05 15.104,82 30/06/2020
909 496100 FABRICIO RESENDE GONCALVES OFICIAL DO MP ENTRE-RIOS DE MINAS - COMARCA; ENTRE RIOS DE MINAS-PJ-UNPJ 6.741,63 674,16 0,00 0,00 0,00 0,00 0,00 2.319,39 9.735,18 815,74 945,65 0,00 0,00 1.761,39 7.973,79 30/06/2020
910 650300 FABRICIO ROBERTO AZEVEDO OFICIAL DO MP NOVA SERRANA - COMARCA; NOVA SERRANA-PJ-04PJ 4.238,09 254,29 0,00 2.246,19 0,00 0,00 0,00 1.550,00 8.288,57 494,16 263,47 0,00 0,00 757,63 7.530,94 30/06/2020
911 514900 FADUA MARIA DRUMOND CHEQUER ANALISTA DO MP CONTAGEM - COMARCA; CONTAGEM-PJ-06PJ 10.069,62 1.006,96 0,00 4.060,40 0,00 0,00 0,00 3.088,78 18.225,76 1.218,42 1.737,36 0,00 0,00 2.955,78 15.269,98 30/06/2020
912 282500 FANNY FERREIRA MELO OFICIAL DO MP ARAXÁ - COMARCA; ARAXA-PJ-03PJ 8.436,53 2.530,96 0,00 5.483,75 0,00 0,00 0,00 1.550,00 18.001,24 1.206,42 1.814,93 0,00 0,00 3.021,35 14.979,89 30/06/2020
913 540100 FATIMA CRISTINA POVOA DA COSTA ASSESSOR/OFICIAL BELO HORIZONTE - COMARCA; BH-18PJ VIOLENCIA DOMESTICA-SECRETARIA 0,00 3.119,26 10.397,52 6.758,39 0,00 832,85 0,00 1.550,00 22.658,02 794,65 2.847,75 0,00 0,00 3.642,40 19.015,62 30/06/2020
914 382800 FATIMA DE OLIVEIRA COELHO E SILVA OFICIAL DO MP BELO HORIZONTE - COMARCA; DIRETORIA DE ADMINISTRACAO FINANCEIRA 6.529,10 1.958,73 0,00 4.243,92 0,00 0,00 0,00 1.550,00 14.281,75 933,66 1.155,90 0,00 0,00 2.089,56 12.192,19 30/06/2020
915 398601 FELIPE ANTONIO HORTA DE PAULA ANALISTA DO MP BELO HORIZONTE - COMARCA; PROC. JUSTICA DIR. DIFUSOS E COLETIVOS-SEC 8.436,53 843,65 0,00 4.640,09 0,00 0,00 0,00 1.550,00 15.470,27 1.020,82 1.401,96 0,00 0,00 2.422,78 13.047,49 30/06/2020
916 430900 FELIPE BOY VIEIRA ANALISTA DO MP BELO HORIZONTE - COMARCA; DIRETORIA DE SEGURANCA 11.085,56 2.217,11 0,00 6.651,34 0,00 0,00 0,00 1.550,00 21.504,01 1.463,29 2.386,47 0,00 0,00 3.849,76 17.654,25 30/06/2020
917 631700 FELIPE DE MORAIS SIMOES COELHO ANALISTA DO MP BELO HORIZONTE - COMARCA; BH-18PJ VIOLENCIA DOMESTICA-SECRETARIA 7.421,79 742,18 0,00 4.081,99 0,00 0,00 0,00 1.550,00 13.795,96 898,04 1.128,77 0,00 0,00 2.026,81 11.769,15 30/06/2020
918 549100 FELIPE FERNANDES ALVIM ANALISTA DO MP LAJINHA - COMARCA; LAJINHA-PJ-UNPJ 8.436,53 843,65 0,00 4.640,09 0,00 0,00 0,00 1.550,00 15.470,27 1.020,82 1.401,96 0,00 0,00 2.422,78 13.047,49 30/06/2020
919 487300 FELIPE FERNANDES SILVEIRA ASSESSOR BELO HORIZONTE - COMARCA; DIVISAO DE MANUTENCAO PREDIAL 0,00 0,00 3.076,28 0,00 0,00 0,00 0,00 1.550,00 4.626,28 713,09 164,68 0,00 0,00 877,77 3.748,51 30/06/2020
920 620100 FELIPE GOMES DE AZEVEDO ASSESSOR/OFICIAL BELO HORIZONTE - COMARCA; DIVISAO DE SERVICOS 0,00 817,05 8.170,49 4.493,77 2.995,85 0,00 0,00 1.550,00 18.027,16 582,93 2.265,77 0,00 0,00 2.848,70 15.178,46 30/06/2020
921 601600 FELIPE RODRIGUES DE SIQUEIRA ANALISTA DO MP BELO HORIZONTE - COMARCA; BH-02PJ FAMILIA-SECRETARIA 8.436,53 843,65 0,00 4.640,09 0,00 0,00 0,00 1.550,00 15.470,27 1.020,82 1.401,96 0,00 0,00 2.422,78 13.047,49 30/06/2020
922 628900 FELIX FERNANDO JUNIO VIEIRA ANALISTA DO MP CAETÉ - COMARCA; CAETE-PJ-02PJ 8.170,49 817,05 0,00 3.360,35 0,00 0,00 0,00 1.550,00 13.897,89 988,63 1.278,20 0,00 0,00 2.266,83 11.631,06 30/06/2020
923 544500 FELLIPE LEMOS MARCONDES BUENO ANALISTA DO MP SÃO SEBASTIÃO DO PARAÍSO - COMARCA; SAO SEBASTIAO DO PARAISO-PJ-04PJ 8.436,53 843,65 0,00 4.640,09 0,00 0,00 0,00 1.550,00 15.470,27 1.020,82 1.401,96 0,00 0,00 2.422,78 13.047,49 30/06/2020
924 612600 FERNANDA ADRIANA DE PAULA GUIDO ANALISTA DO MP PARACATU - COMARCA; PARACATU-PJ-02PJ 8.170,49 817,05 0,00 4.493,77 2.995,85 0,00 0,00 2.319,39 18.796,55 988,63 2.154,20 0,00 0,00 3.142,83 15.653,72 30/06/2020
925 508400 FERNANDA AGANETTI MATTOS DE OLIVEIRA ANALISTA DO MP BELO HORIZONTE - COMARCA; BH-07PJ 02 TRIBUNAL DO JURI-GAB 061PJ 10.069,62 1.006,96 0,00 5.538,29 0,00 0,00 0,00 2.319,39 18.934,26 1.218,42 1.841,63 0,00 0,00 3.060,05 15.874,21 30/06/2020
926 453600 FERNANDA ALBERNAZ RABELO ANALISTA DO MP BELO HORIZONTE - COMARCA; GABINETE DE PROCURADOR DE JUSTIÇA - SALA 616 10.069,62 1.006,96 0,00 5.538,29 0,00 0,00 0,00 1.550,00 18.164,87 1.218,42 1.841,63 0,00 0,00 3.060,05 15.104,82 30/06/2020
927 255600 FERNANDA ALINA DE ALMEIDA ANDRADE OFICIAL DO MP BELO HORIZONTE - COMARCA; LABORATORIO TECNOLOGIA INTELIGENCIA 9.146,93 2.744,08 0,00 5.945,51 0,00 0,00 0,00 1.550,00 19.386,52 1.308,01 2.040,97 0,00 0,00 3.348,98 16.037,54 30/06/2020
928 443200 FERNANDA ALMEIDA LOPES ANALISTA DO MP CONTAGEM - COMARCA; CONTAGEM-PJ-23PJ 12.204,02 2.440,80 0,00 7.322,41 0,00 0,00 0,00 3.088,78 25.056,01 1.610,93 2.610,69 0,00 0,00 4.221,62 20.834,39 30/06/2020
929 281100 FERNANDA ANANIAS MEIRA ANALISTA DO MP BELO HORIZONTE - COMARCA; BH-23PJ INFRACIONAL-ASS JURIDICA 15.272,02 4.581,61 0,00 9.926,82 0,00 0,00 1.021,08 1.550,00 32.351,53 2.296,22 4.239,72 0,00 0,00 6.535,94 25.815,59 30/06/2020
930 539000 FERNANDA BARBOSA ALVES ANALISTA DO MP UBERABA - COMARCA; UBERABA-PJ-04PJ 8.436,53 843,65 0,00 4.640,09 0,00 0,00 0,00 2.319,39 16.239,66 1.020,82 1.401,96 0,00 0,00 2.422,78 13.816,88 30/06/2020
931 451200 FERNANDA BLOISE PRADO OFICIAL DO MP BELO HORIZONTE - COMARCA; DIVISAO DE MATERIAIS 7.421,79 1.484,36 0,00 4.453,08 0,00 0,00 0,00 1.550,00 14.909,23 979,68 1.310,42 0,00 0,00 2.290,10 12.619,13 30/06/2020
932 427900 FERNANDA BRAGA CARNEIRO BICALHO ANALISTA DO MP PEÇANHA - COMARCA; PECANHA-PJ-SECRETARIA 10.069,62 2.013,92 0,00 6.041,77 0,00 0,00 0,00 2.319,39 20.444,70 1.329,19 2.035,95 0,00 0,00 3.365,14 17.079,56 30/06/2020
933 507100 FERNANDA CABRINI VAZ MOTA ANALISTA DO MP BELO HORIZONTE - COMARCA; BH-14PJ DEFESA CONSUMIDOR-GAB 005PJ 10.069,62 1.006,96 0,00 5.538,29 0,00 0,00 0,00 2.319,39 18.934,26 1.218,42 1.841,63 0,00 0,00 3.060,05 15.874,21 30/06/2020
934 259800 FERNANDA CALZAVARA DE SOUSA COORDENADOR/OFICIAL BELO HORIZONTE - COMARCA; DIRET DE FORMACAO, APERFEIC. E POS-GRADUACAO 12.204,02 3.661,21 2.687,03 9.276,13 0,00 0,00 2.173,10 2.319,39 32.320,88 1.905,12 3.656,47 0,00 0,00 5.561,59 26.759,29 30/06/2020
935 494400 FERNANDA CAMPOS BARATA OFICIAL DO MP JUIZ DE FORA - COMARCA; JUIZ DE FORA-PJ-08PJ 5.562,64 556,26 0,00 3.059,45 2.039,63 0,00 0,00 1.550,00 12.767,98 673,08 1.189,14 0,00 0,00 1.862,22 10.905,76 30/06/2020
936 555600 FERNANDA CAROLINE RIBEIRO ASSESSOR/ANALISTA BELO HORIZONTE - COMARCA; DIRETORIA GESTAO CONTRATOS CONVENIOS 0,00 1.039,75 10.397,52 5.718,64 0,00 0,00 0,00 1.550,00 18.705,91 1.053,01 1.986,31 0,00 0,00 3.039,32 15.666,59 30/06/2020
937 294500 FERNANDA COSTA FLORES OFICIAL DO MP PARÁ DE MINAS - COMARCA; PARA DE MINAS-PJ-04PJ 10.069,62 3.020,89 0,00 6.545,26 0,00 0,00 0,00 1.550,00 21.185,77 1.439,96 2.334,54 0,00 0,00 3.774,50 17.411,27 30/06/2020
938 344500 FERNANDA CRISTINA DE SOUZA PAZ ASSESSOR BELO HORIZONTE - COMARCA; CENTRAL DE APOIO TECN-SETOR DE MEIO AMBIENTE 0,00 0,00 5.136,32 2.568,16 1.712,11 0,00 0,00 1.550,00 10.966,59 713,09 1.016,08 0,00 0,00 1.729,17 9.237,42 30/06/2020
939 538100 FERNANDA CRISTINA DOS SANTOS ROSA OFICIAL DO MP RIBEIRÃO DAS NEVES - COMARCA; RIBEIRAO DAS NEVES-PJ-09PJ 5.387,19 1.616,16 0,00 0,00 0,00 0,00 0,00 1.550,00 8.553,35 770,37 844,71 0,00 0,00 1.615,08 6.938,27 30/06/2020
940 337800 FERNANDA CRISTINA ROLAND CLIMACO MENDES COORDENADOR/OFICIAL BELO HORIZONTE - COMARCA; DIRETORIA DE PAGAMENTO DE PESSOAL-DPAG 0,00 4.030,55 13.435,16 8.732,86 0,00 0,00 0,00 1.550,00 27.748,57 1.579,95 3.499,22 0,00 0,00 5.079,17 22.669,40 30/06/2020
941 545400 FERNANDA CUNHA GUIMARAES ANALISTA DO MP BELO HORIZONTE - COMARCA; COORD EST DEF DIR FAM PESSOAS DEFICI IDOSOS 8.436,53 843,65 0,00 4.640,09 0,00 0,00 0,00 1.550,00 15.470,27 1.020,82 1.401,96 0,00 0,00 2.422,78 13.047,49 30/06/2020
942 429801 FERNANDA CUNHA PINHEIRO DA SILVA ANALISTA DO MP BELO HORIZONTE - COMARCA; ASSESSORIA DE COMUNICACAO INTEGRADA 10.069,62 1.006,96 0,00 4.034,33 0,00 0,00 0,00 1.550,00 16.660,91 1.218,42 1.789,50 0,00 0,00 3.007,92 13.652,99 30/06/2020
943 408000 FERNANDA DAS NEVES RAMOS ANALISTA DO MP BELO HORIZONTE - COMARCA; CENTRAL DE APOIO TECNICO-SETOR CONTABIL 12.601,30 2.520,26 0,00 7.560,78 0,00 0,00 0,00 2.319,39 25.001,73 1.663,37 2.831,64 0,00 0,00 4.495,01 20.506,72 30/06/2020
944 496000 FERNANDA DE ALMEIDA VIANA ANALISTA DO MP BELO HORIZONTE - COMARCA; PROC JUST RECURSOS ESP E EXTRAORD CRIMINAIS 10.069,62 1.006,96 0,00 5.538,29 0,00 0,00 0,00 2.319,39 18.934,26 1.218,42 1.787,92 0,00 0,00 3.006,34 15.927,92 30/06/2020
945 266700 FERNANDA DE CASTRO LUCAS COORDENADOR/OFICIAL BELO HORIZONTE - COMARCA; DIRET DE DESENV DE RECURSOS HUMANOS-DDRH 12.204,02 3.661,21 2.687,03 9.276,13 0,00 0,00 0,00 2.319,39 30.147,78 1.905,12 3.656,47 0,00 0,00 5.561,59 24.586,19 30/06/2020
946 433200 FERNANDA DE FIGUEIREDO NORTE ANALISTA DO MP BELO HORIZONTE - COMARCA; ASSESS JUR DO CONS SUPERIOR DO MINISTERIO PUB 12.601,30 2.520,26 0,00 7.560,78 0,00 0,00 0,00 2.319,39 25.001,73 1.663,37 2.727,37 0,00 0,00 4.390,74 20.610,99 30/06/2020
947 419200 FERNANDA DE MIRANDA MARTINS SIMOES ANALISTA DO MP UBERLÂNDIA - COMARCA; UBERLANDIA-PJ-11PJ 12.601,30 2.520,26 0,00 7.560,78 0,00 0,00 0,00 2.319,39 25.001,73 1.663,37 2.831,64 0,00 0,00 4.495,01 20.506,72 30/06/2020
948 441400 FERNANDA DE MORAIS PINTO ANALISTA DO MP BELO HORIZONTE - COMARCA; PROC. JUSTICA DIR. DIFUSOS E COLETIVOS-SEC 12.204,02 2.440,80 0,00 7.322,41 0,00 0,00 0,00 1.550,00 23.517,23 1.610,93 2.714,96 0,00 0,00 4.325,89 19.191,34 30/06/2020
949 432200 FERNANDA DE MOURA GUIMARAES ANALISTA DO MP BELO HORIZONTE - COMARCA; ASSESS TECNICO-JUR JUNTO AS PROC. DE JUST 12.204,02 2.440,80 0,00 7.322,41 0,00 0,00 0,00 2.319,39 24.286,62 1.610,93 2.714,96 0,00 0,00 4.325,89 19.960,73 30/06/2020
950 461800 FERNANDA DE OLIVEIRA SANTOS ANALISTA DO MP JUIZ DE FORA - COMARCA; JUIZ DE FORA-PJ-21PJ 10.069,62 1.006,96 0,00 5.538,29 0,00 0,00 0,00 2.319,39 18.934,26 1.218,42 1.841,63 0,00 0,00 3.060,05 15.874,21 30/06/2020
951 432500 FERNANDA DE PAULA PINTO ANALISTA DO MP BELO HORIZONTE - COMARCA; PROC JUST RECURSOS ESP E EXTRAORD CRIMINAIS 12.204,02 2.440,80 0,00 7.322,41 0,00 0,00 0,00 1.550,00 23.517,23 1.610,93 2.714,96 0,00 0,00 4.325,89 19.191,34 30/06/2020
952 431600 FERNANDA DIAS BARBOSA PEREIRA ANALISTA DO MP OURO BRANCO - COMARCA; OURO BRANCO-PJ-UNPJ 12.204,02 2.440,80 0,00 5.211,59 0,00 0,00 0,00 2.319,39 22.175,80 1.610,93 2.610,69 0,00 0,00 4.221,62 17.954,18 30/06/2020
953 162200 FERNANDA FERNANDES MONTEIRO ASSESSOR BELO HORIZONTE - COMARCA; BH-12PJ JUIZO CRIMINAL-SECRETARIA 0,00 2.054,53 5.136,32 3.595,43 0,00 0,00 0,00 1.550,00 12.336,28 713,09 1.162,39 0,00 0,00 1.875,48 10.460,80 30/06/2020
954 512800 FERNANDA FERREIRA BARBOSA MOREIRA ANALISTA DO MP IPATINGA - COMARCA; IPATINGA-PJ-01PJ 10.069,62 1.006,96 0,00 5.538,29 0,00 0,00 0,00 2.319,39 18.934,26 1.218,42 1.841,63 0,00 0,00 3.060,05 15.874,21 30/06/2020
955 329200 FERNANDA GABRIEL GUZELLA OFICIAL DO MP BELO HORIZONTE - COMARCA; DIRET DE PLANOS PROJETOS E PROGRAMAS INST 9.444,70 2.833,41 0,00 6.139,06 0,00 0,00 0,00 1.550,00 19.967,17 1.350,59 2.135,71 0,00 0,00 3.486,30 16.480,87 30/06/2020
956 324200 FERNANDA GEORGIA NEVES ZAHAN OFICIAL DO MP IPANEMA - COMARCA; IPANEMA-PJ-SECRETARIA 8.436,53 5.905,57 0,00 7.171,05 0,00 0,00 0,00 1.550,00 23.063,15 1.577,63 2.640,87 0,00 0,00 4.218,50 18.844,65 30/06/2020
957 548200 FERNANDA GONCALVES DE CARVALHO ZUZA OFICIAL DO MP TUPACIGUARA - COMARCA; TUPACIGUARA-PJ-UNPJ 4.974,42 497,44 0,00 2.735,93 0,00 0,00 0,00 1.550,00 9.757,79 601,90 469,88 0,00 0,00 1.071,78 8.686,01 30/06/2020
958 355400 FERNANDA HELENA BASQUES OFICIAL DO MP SABARÁ - COMARCA; SABARA-PJ-01PJ 8.858,43 1.771,69 0,00 5.315,06 0,00 0,00 0,00 1.550,00 17.495,18 1.169,31 1.732,36 0,00 0,00 2.901,67 14.593,51 30/06/2020
959 454800 FERNANDA IATAROLA BARBOSA DIAS ANALISTA DO MP BARBACENA - COMARCA; BARBACENA-PJ-05PJ 10.397,52 1.039,75 0,00 5.718,64 0,00 0,00 0,00 1.550,00 18.705,91 1.258,10 1.877,77 0,00 0,00 3.135,87 15.570,04 30/06/2020
960 515500 FERNANDA LILIANE MARUGEIRO ANALISTA DO MP BELO HORIZONTE - COMARCA; BH-18PJ VIOLENCIA DOMESTICA-SECRETARIA 10.069,62 1.006,96 0,00 5.538,29 0,00 0,00 0,00 2.319,39 18.934,26 1.218,42 1.789,50 0,00 0,00 3.007,92 15.926,34 30/06/2020
961 392900 FERNANDA MAGALHAES SILVA ANALISTA DO MP BELO HORIZONTE - COMARCA; CENTRO JORNALISMO 13.011,52 2.602,30 0,00 7.806,91 0,00 0,00 0,00 1.550,00 24.970,73 1.717,52 2.952,12 0,00 0,00 4.669,64 20.301,09 30/06/2020
962 409200 FERNANDA MAIA SANTIAGO CARDOSO ANALISTA DO MP PIRAPORA - COMARCA; PIRAPORA-PJ-02PJ 10.069,62 2.013,92 0,00 6.041,77 0,00 0,00 0,00 3.088,78 21.214,09 1.329,19 2.088,09 0,00 0,00 3.417,28 17.796,81 30/06/2020
963 556500 FERNANDA OTERO COSTA ANALISTA DO MP BELO HORIZONTE - COMARCA; ASSESS TECNICO-JUR JUNTO AS PROC. DE JUST 9.146,93 914,69 0,00 5.030,81 0,00 0,00 0,00 1.550,00 16.642,43 1.106,78 1.593,22 0,00 0,00 2.700,00 13.942,43 30/06/2020
964 615300 FERNANDA PATRICIA RIBEIRO MOTA OFICIAL DO MP UBERABA - COMARCA; UBERABA-PJ-05PJ 4.817,57 481,76 0,00 2.649,67 0,00 0,00 0,00 1.550,00 9.499,00 582,93 427,65 0,00 0,00 1.010,58 8.488,42 30/06/2020
965 619800 FERNANDA PINTO PEREIRA ANALISTA DO MP UBERLÂNDIA - COMARCA; UBERLANDIA-PJ-20PJ 8.170,49 817,05 0,00 4.493,77 0,00 0,00 0,00 2.319,39 15.800,70 988,63 1.278,20 0,00 0,00 2.266,83 13.533,87 30/06/2020
966 412900 FERNANDA PORTELA ROSA ANALISTA DO MP BELO HORIZONTE - COMARCA; BH-08PJ JUIZADO ESPECIAL-SECRETARIA 12.601,30 2.520,26 0,00 5.313,27 0,00 0,00 0,00 2.319,39 22.754,22 1.663,37 2.831,64 0,00 0,00 4.495,01 18.259,21 30/06/2020
967 274301 FERNANDA QUEIROZ PARREIRA ANALISTA DO MP PATOS DE MINAS - COMARCA; COORD REG PJ DEF EDU DIR CRI ADO AL PAR NOROE 10.069,62 1.006,96 0,00 5.538,29 0,00 0,00 0,00 1.550,00 18.164,87 1.218,42 1.841,63 0,00 0,00 3.060,05 15.104,82 30/06/2020
968 467900 FERNANDA QUEIROZ SIMOES GANNAM ANALISTA DO MP SÃO LOURENÇO - COMARCA; SAO LOURENCO-PJ-02PJ 10.069,62 1.006,96 0,00 5.538,29 0,00 0,00 0,00 2.319,39 18.934,26 1.218,42 1.789,50 0,00 0,00 3.007,92 15.926,34 30/06/2020
969 255500 FERNANDA SIMOES LOPES MENDES ANALISTA DO MP BELO HORIZONTE - COMARCA; BH-17PJ PATRIMONIO PUBLICO-SECRETARIA 17.413,92 5.224,18 0,00 11.319,05 0,00 0,00 0,00 1.550,00 35.507,15 2.490,19 4.567,04 0,00 0,00 7.057,23 28.449,92 30/06/2020
970 481700 FERNANDA VIANA FROES DA SILVA OFICIAL DO MP GOVERNADOR VALADARES - COMARCA; GOVERNADOR VALADARES-PJ-09PJ 7.421,79 742,18 0,00 4.081,99 0,00 0,00 0,00 1.550,00 13.795,96 898,04 1.128,77 0,00 0,00 2.026,81 11.769,15 30/06/2020
971 123900 FERNANDO ANTONIO FARIA DE ABREU DIRETOR/ANALISTA BELO HORIZONTE - COMARCA; SUPERINTENDÊNCIA DE ENGENHARIA E ARQUITETURA 26.471,31 23.824,17 4.875,89 17.731,11 0,00 3.900,84 520,11 7.223,96 84.547,39 3.900,84 8.882,75 19.709,15 0,00 32.492,74 52.054,65 30/06/2020
972 416900 FERNANDO APARECIDO DA SILVA ANALISTA DO MP BOM DESPACHO - COMARCA; BOM DESPACHO-PJ-02PJ 12.204,02 8.542,81 0,00 10.373,42 0,00 0,00 0,00 1.550,00 32.670,25 2.282,15 4.104,15 0,00 0,00 6.386,30 26.283,95 30/06/2020
973 380500 FERNANDO BONES COSTA OFICIAL DO MP BELO HORIZONTE - COMARCA; DIVISAO DE MATERIAIS 6.123,79 1.224,76 0,00 2.805,51 0,00 0,00 0,00 1.550,00 11.704,06 808,34 929,20 0,00 0,00 1.737,54 9.966,52 30/06/2020
974 500100 FERNANDO CEZAR PINTO OFICIAL DO MP SANTA LUZIA - COMARCA; SANTA LUZIA-PJ-04PJ 7.421,79 742,18 0,00 4.081,99 0,00 0,00 0,00 1.550,00 13.795,96 980,34 1.054,00 0,00 0,00 2.034,34 11.761,62 30/06/2020
975 346100 FERNANDO EUSTAQUIO CAMPOS UTSCH MOREIRA ANALISTA DO MP BELO HORIZONTE - COMARCA; DIRETORIA DE SISTEMAS DE INFORMACAO 14.790,66 2.958,13 0,00 8.874,40 0,00 0,00 0,00 1.550,00 28.173,19 1.952,37 3.370,38 0,00 0,00 5.322,75 22.850,44 30/06/2020
976 103500 FERNANDO LUIZ DA SILVA JUNIOR OFICIAL DO MP BELO HORIZONTE - COMARCA; DIVISAO DE ATENDIMENTO E CONSULTA JURIDICA 18.820,14 9.410,07 0,00 14.115,11 9.410,07 0,00 517,55 7.196,04 59.468,98 3.105,32 8.627,75 0,00 0,00 11.733,07 47.735,91 30/06/2020
977 287300 FERNANDO MARCIO ALVES MARTINS OFICIAL DO MP LEOPOLDINA - COMARCA; LEOPOLDINA-PJ-01PJ 7.912,85 2.373,86 0,00 5.143,36 0,00 0,00 0,00 1.550,00 16.980,07 1.131,54 1.491,90 0,00 0,00 2.623,44 14.356,63 30/06/2020
978 262200 FERNANDO MARCIO RESENDE PEREIRA OFICIAL DO MP BELO HORIZONTE - COMARCA; DIR ESTRUTURA E PROCESSOS ORGANIZACIONAIS 10.069,62 3.020,89 0,00 6.545,26 0,00 1.600,48 0,00 1.550,00 22.786,25 1.439,96 2.730,53 0,00 0,00 4.170,49 18.615,76 30/06/2020
979 472900 FERNANDO RODRIGUES DE FREITAS ANALISTA DO MP BELO HORIZONTE - COMARCA; BH-15PJ M AMB PAT HIST CULT-ASS TECNICA 10.069,62 1.006,96 0,00 5.538,29 0,00 0,00 0,00 1.550,00 18.164,87 1.218,42 1.841,63 0,00 0,00 3.060,05 15.104,82 30/06/2020
980 421400 FERNANDO TEODORO MACIEL ANALISTA DO MP SANTA VITÓRIA - COMARCA; SANTA VITORIA-PJ-UNPJ 10.736,08 2.147,22 0,00 6.441,65 0,00 0,00 0,00 2.319,39 21.644,34 1.417,16 2.179,55 0,00 0,00 3.596,71 18.047,63 30/06/2020
981 446300 FERNANDO VITOR DE OLIVEIRA ANALISTA DO MP MONTES CLAROS - COMARCA; COORD REG BACIA RIOS VERDE GRANDE E PARDO 12.204,02 2.440,80 0,00 7.322,41 0,00 0,00 0,00 1.550,00 23.517,23 1.610,93 2.714,96 0,00 0,00 4.325,89 19.191,34 30/06/2020
982 639300 FILIPE ALMEIDA RODRIGUES ANALISTA DO MP TIMÓTEO - COMARCA; TIMOTEO-PJ-04PJ 7.421,79 742,18 0,00 4.081,99 0,00 0,00 0,00 1.550,00 13.795,96 898,04 1.128,77 0,00 0,00 2.026,81 11.769,15 30/06/2020
983 398400 FLAVIA ALVARES GUIMARAES COORDENADOR/OFICIAL BELO HORIZONTE - COMARCA; CGMP-DIVIS DE APOIO FISC ORIENTACAO FUNCIONAL 0,00 2.363,83 11.819,15 7.091,49 0,00 0,00 0,00 1.550,00 22.824,47 1.148,74 2.662,92 0,00 0,00 3.811,66 19.012,81 30/06/2020
984 398200 FLAVIA ALVES DE ASSUNCAO RODRIGUES ANALISTA DO MP DIVINÓPOLIS - COMARCA; COORD REG DO MA DA BACIA DO ALTO SAO FRANC 12.204,02 2.440,80 0,00 0,00 0,00 0,00 0,00 2.319,39 16.964,21 1.610,93 2.662,82 0,00 0,00 4.273,75 12.690,46 30/06/2020
985 318500 FLAVIA BEATRIZ NUNES CRUZ VIEIRA ANALISTA DO MP BARBACENA - COMARCA; BARBACENA-PJ-SECRETARIA 15.272,02 4.581,61 0,00 6.892,10 0,00 0,00 0,00 2.319,39 29.065,12 2.183,90 3.885,54 0,00 0,00 6.069,44 22.995,68 30/06/2020
986 496500 FLAVIA CARAM BORLIDO ANALISTA DO MP BELO HORIZONTE - COMARCA; DIRETORIA GESTAO CONTRATOS CONVENIOS 11.085,56 1.108,56 0,00 4.368,80 0,00 0,00 0,00 1.550,00 18.112,92 1.341,35 2.115,15 0,00 0,00 3.456,50 14.656,42 30/06/2020
987 534800 FLAVIA CONDE SOARES ANALISTA DO MP BELO HORIZONTE - COMARCA; BH-13PJ JUÍZO DE TÓXICOS-ASSESSORIA JURIDICA 8.436,53 843,65 0,00 4.640,09 0,00 0,00 0,00 1.550,00 15.470,27 1.020,82 1.401,96 0,00 0,00 2.422,78 13.047,49 30/06/2020
988 219500 FLAVIA CRISTINA ANCELMO OFICIAL DO MP BELO HORIZONTE - COMARCA; CAO-DH CONT EXT ATIV POLIC E AP COMUNIT 10.069,62 3.020,89 0,00 6.545,26 0,00 0,00 0,00 1.550,00 21.185,77 1.439,96 2.334,54 0,00 0,00 3.774,50 17.411,27 30/06/2020
989 329600 FLAVIA CRISTINA DE MATOS XAVIER ANALISTA DO MP UBERABA - COMARCA; UBERABA-PJ-15PJ 15.272,02 4.581,61 0,00 9.926,82 0,00 0,00 0,00 1.550,00 31.330,45 2.183,90 3.885,54 0,00 0,00 6.069,44 25.261,01 30/06/2020
990 207600 FLAVIA DE ANDRADE MANCINI ANALISTA DO MP BELO HORIZONTE - COMARCA; ASSESSORIA JURIDICO-ADMINISTRATIVA 18.820,14 7.528,06 0,00 13.174,10 0,00 0,00 0,00 1.550,00 41.072,30 2.898,30 5.422,95 0,00 0,00 8.321,25 32.751,05 30/06/2020
991 402801 FLAVIA MARIA DE RESENDE NASCIMENTO ANALISTA DO MP SÃO JOÃO DEL REI - COMARCA; SAO JOAO DEL REI-PJ-04PJ 10.069,62 1.006,96 0,00 5.538,29 0,00 0,00 0,00 2.319,39 18.934,26 1.218,42 1.841,63 0,00 0,00 3.060,05 15.874,21 30/06/2020
992 437500 FLAVIA MARIA TORRES MARCHETTI ANALISTA DO MP BELO HORIZONTE - COMARCA; BH-18PJ VIOLENCIA DOMESTICA-SECRETARIA 10.736,08 2.147,22 0,00 6.441,65 0,00 0,00 0,00 3.088,78 22.413,73 1.417,16 2.179,55 0,00 0,00 3.596,71 18.817,02 30/06/2020
993 386000 FLAVIA NEVES BRIGIDO ASSESSOR/OFICIAL BELO HORIZONTE - COMARCA; PROMOT ESTADUAL DE DEF PATRI CULT E TUR DE MG 0,00 2.079,50 10.397,52 6.238,51 0,00 0,00 0,00 2.319,39 21.034,92 1.148,74 2.245,92 0,00 0,00 3.394,66 17.640,26 30/06/2020
994 488600 FLAVIA PEREIRA COSTA ANALISTA DO MP BELO HORIZONTE - COMARCA; CENTRAL DE APOIO TECNICO 10.069,62 1.006,96 0,00 5.538,29 0,00 0,00 0,00 2.319,39 18.934,26 1.218,42 1.841,63 0,00 0,00 3.060,05 15.874,21 30/06/2020
995 365400 FLAVIA PEREIRA DA SILVA AMARAL OFICIAL DO MP BELO HORIZONTE - COMARCA; BH-15PJ M AMB PAT HIST CULT-GAB 115PJ 9.444,70 1.888,94 0,00 5.666,82 0,00 0,00 0,00 1.550,00 18.550,46 1.246,70 1.904,55 0,00 0,00 3.151,25 15.399,21 30/06/2020
996 515400 FLAVIA RODRIGUES DE OLIVEIRA E SILVA PAIVA ANALISTA DO MP CARATINGA - COMARCA; CARATINGA-PJ-05PJ 10.069,62 1.006,96 0,00 4.086,47 0,00 0,00 0,00 1.550,00 16.713,05 1.218,42 1.685,22 0,00 0,00 2.903,64 13.809,41 30/06/2020
997 621600 FLAVIA SARMENTO RODRIGUES ANALISTA DO MP BELO HORIZONTE - COMARCA; DIV FISCAL ADM CONT TERCEIRIZACAO 8.170,49 817,05 0,00 3.334,28 0,00 0,00 0,00 1.550,00 13.871,82 988,63 1.330,34 0,00 0,00 2.318,97 11.552,85 30/06/2020
998 535800 FLAVIA SILVA VALADAO OFICIAL DO MP TRÊS CORACOES - COMARCA; TRES CORACOES-PJ-04PJ 4.974,42 497,44 0,00 2.226,11 0,00 0,00 0,00 1.550,00 9.247,97 601,90 417,74 0,00 0,00 1.019,64 8.228,33 30/06/2020
999 515300 FLAVIA VIEIRA OLIVEIRA GOMES ANALISTA DO MP BELO HORIZONTE - COMARCA; ASSESS TECNICO-JUR JUNTO AS PROC. DE JUST 10.069,62 1.006,96 0,00 5.538,29 0,00 0,00 0,00 1.550,00 18.164,87 1.218,42 1.841,63 0,00 0,00 3.060,05 15.104,82 30/06/2020
1000 377500 FLAVIANA GONCALVES DE OLIVEIRA ANALISTA DO MP IPATINGA - COMARCA; IPATINGA-PJ-02PJ 13.011,52 2.602,30 0,00 7.806,91 0,00 0,00 0,00 1.550,00 24.970,73 1.717,52 2.952,12 0,00 0,00 4.669,64 20.301,09 30/06/2020
1001 273100 FLAVIANE DOS SANTOS CASTRO OFICIAL DO MP CAXAMBU - COMARCA; CAXAMBU-PJ-SECRETARIA 10.069,62 3.020,89 0,00 4.710,14 0,00 0,00 0,00 1.550,00 19.350,65 1.439,96 2.230,27 0,00 0,00 3.670,23 15.680,42 30/06/2020
1002 310600 FLAVIANE NAVES ALCANTARA OFICIAL DO MP BELO HORIZONTE - COMARCA; COMB CRIMES PRAT POR AG POL MUN-SECRETARIA 10.736,08 3.220,82 0,00 6.978,45 0,00 0,00 0,00 2.319,39 23.254,74 1.535,26 2.541,19 0,00 0,00 4.076,45 19.178,29 30/06/2020
1003 378201 FLAVIANE RIBEIRO BORGES FERNANDES OFICIAL DO MP SÃO GONÇALO DO SAPUCAÍ - COMARCA; SAO GONCALO DO SAPUCAI-PJ-02PJ 5.562,64 556,26 0,00 0,00 0,00 0,00 0,00 1.550,00 7.668,90 673,08 628,24 0,00 0,00 1.301,32 6.367,58 30/06/2020
1004 455800 FLAVIO ANTONIO RIBEIRO OFICIAL DO MP BELO HORIZONTE - COMARCA; GRUPO ESP PROM JUST DEF PROB ADM PAT PUB 6.123,79 612,38 0,00 3.368,09 0,00 0,00 0,00 1.550,00 11.654,26 740,98 779,32 0,00 0,00 1.520,30 10.133,96 30/06/2020
1005 458200 FLAVIO AUGUSTO BRAGA SOARES ANALISTA DO MP BELO HORIZONTE - COMARCA; DIVISAO DE CONTROLE IMOBILIARIO 12.204,02 1.220,40 0,00 6.712,21 0,00 0,00 0,00 1.550,00 21.686,63 1.476,69 2.416,27 0,00 0,00 3.892,96 17.793,67 30/06/2020
1006 516500 FLAVIO AUGUSTO RODRIGUES CORREA ANALISTA DO MP BELO HORIZONTE - COMARCA; COORD REG BACIAS RIO VELHAS E PARAOPEBA 10.069,62 1.006,96 0,00 0,00 3.692,19 0,00 0,00 2.319,39 17.088,16 1.218,42 2.856,99 0,00 0,00 4.075,41 13.012,75 30/06/2020
1007 84300 FLAVIO DE FARIA BELTRAO OFICIAL DO MP BELO HORIZONTE - COMARCA; DIRETORIA DE ADMINISTRACAO FINANCEIRA 23.757,25 19.005,81 0,00 0,00 0,00 0,00 0,00 1.550,00 44.313,06 3.900,84 7.810,02 7.300,84 0,00 19.011,70 25.301,36 30/06/2020
1008 266600 FLAVIO GUIMARAES LANA ANALISTA DO MP BELO HORIZONTE - COMARCA; CENTRAL DE APOIO TECN-SETOR DE MEIO AMBIENTE 12.601,30 3.780,39 0,00 8.190,85 0,00 0,00 0,00 1.550,00 26.122,54 1.801,99 3.140,06 0,00 0,00 4.942,05 21.180,49 30/06/2020
1009 552600 FLAVIO HENRIQUE EVARISTO GOMES ASSESSOR/ANALISTA BELO HORIZONTE - COMARCA; DIRETORIA DE SUPORTE E MANUTENCAO 0,00 1.039,75 10.397,52 5.718,64 0,00 0,00 0,00 2.319,39 19.475,30 1.053,01 1.985,09 0,00 0,00 3.038,10 16.437,20 30/06/2020
1010 640000 FLAVIO HENRIQUE PEREIRA VELOSO OFICIAL DO MP BELO HORIZONTE - COMARCA; DIVISÃO DE FISCALIZAÇÃO DAS RELAÇÕES DE CONSU 4.376,03 262,56 0,00 3.041,93 0,00 0,00 1.445,27 1.550,00 10.675,79 510,24 663,39 0,00 0,00 1.173,63 9.502,16 30/06/2020
1011 241500 FLAVIO HENRIQUE SILVA MARTINS LAGE OFICIAL DO MP BELO HORIZONTE - COMARCA; CAO-CRIANCAS E ADOLESCENTES-SECRETARIA 10.069,62 4.027,85 0,00 7.048,74 0,00 0,00 0,00 1.550,00 22.696,21 1.550,72 2.581,00 0,00 0,00 4.131,72 18.564,49 30/06/2020
1012 86700 FLAVIO LUCAS TOMAZ AGENTE DO MP BELO HORIZONTE - COMARCA; DIVISÃO DE FISCALIZAÇÃO DAS RELAÇÕES DE CONSU 8.170,49 5.719,35 0,00 6.944,92 0,00 0,00 0,00 1.550,00 22.384,76 1.527,88 1.929,77 0,00 0,00 3.457,65 18.927,11 30/06/2020
1013 407200 FLAVIO LUCIO MONTEIRO PENA ANALISTA DO MP BELO HORIZONTE - COMARCA; CENTRO JORNALISMO 10.069,62 2.013,92 0,00 6.041,77 0,00 0,00 0,00 3.088,78 21.214,09 1.329,19 2.088,09 0,00 0,00 3.417,28 17.796,81 30/06/2020
1014 451700 FLAVIO MAGALHAES PEREIRA ANALISTA DO MP BELO HORIZONTE - COMARCA; BH-12PJ JUIZO CRIMINAL-GAB 098PJ 10.069,62 2.013,92 0,00 6.041,77 0,00 0,00 0,00 2.319,39 20.444,70 1.329,19 2.088,09 0,00 0,00 3.417,28 17.027,42 30/06/2020
1015 481500 FLAVIO NEVES GUELBER DE MACEDO OFICIAL DO MP SÃO JOÃO NEPOMUCENO - COMARCA; SAO JOAO NEPOMUCENO-PJ-02PJ 6.123,79 612,38 0,00 3.368,09 0,00 0,00 0,00 1.550,00 11.654,26 740,98 779,32 0,00 0,00 1.520,30 10.133,96 30/06/2020
1016 547500 FRANCELINO MOREIRA DA SILVA ANALISTA DO MP BELO HORIZONTE - COMARCA; BH-10PJ EXECUÇÃO PENAL-SECRETARIA 8.436,53 843,65 0,00 4.640,09 0,00 0,00 0,00 3.472,93 17.393,20 1.020,82 1.401,96 0,00 0,00 2.422,78 14.970,42 30/06/2020
1017 278100 FRANCIANE MARY DE SOUZA ANALISTA DO MP BELO HORIZONTE - COMARCA; BH-12PJ JUIZO CRIMINAL-GAB 083PJ 16.750,82 5.025,25 0,00 10.888,04 0,00 0,00 0,00 1.550,00 34.214,11 2.395,37 4.460,33 0,00 0,00 6.855,70 27.358,41 30/06/2020
1018 646500 FRANCIELLE CAROLINE PEREIRA DOS SANTOS ASSESSOR BELO HORIZONTE - COMARCA; CENT DE ATENDIMENTO E ORIENTACAO DE PESSOAL 0,00 0,00 4.476,28 1.538,14 0,00 0,00 0,00 1.073,27 7.087,69 465,67 116,48 0,00 0,00 582,15 6.505,54 30/06/2020
1019 192501 FRANCIELLE REIS DE OLIVEIRA ANALISTA DO MP PASSOS - COMARCA; PASSOS-PJ-04PJ 16.750,82 5.025,25 0,00 10.888,04 0,00 0,00 0,00 1.550,00 34.214,11 2.395,37 4.356,06 0,00 0,00 6.751,43 27.462,68 30/06/2020
1020 645100 FRANCIELY CRISTINA COSTA TARQUINIO ASSESSOR BELO HORIZONTE - COMARCA; CHEFIA DE GABINETE 0,00 0,00 5.136,32 0,00 0,00 0,00 0,00 1.550,00 6.686,32 713,09 649,53 0,00 0,00 1.362,62 5.323,70 30/06/2020
1021 523600 FRANCINE MOURA LIMIRIO OFICIAL DO MP UBERABA - COMARCA; UBERABA-PJ-02PJ 6.741,63 674,16 0,00 2.827,20 0,00 0,00 0,00 1.550,00 11.792,99 815,74 945,65 0,00 0,00 1.761,39 10.031,60 30/06/2020
1022 467200 FRANCINI RENNO ANALISTA DO MP CASSIA - COMARCA; CASSIA-PJ-01PJ 10.069,62 1.006,96 0,00 5.538,29 0,00 0,00 0,00 1.550,00 18.164,87 1.218,42 1.841,63 0,00 0,00 3.060,05 15.104,82 30/06/2020
1023 189300 FRANCIS BERNARDO DO NASCIMENTO OFICIAL DO MP VARGINHA - COMARCA; VARGINHA-PJ-05PJ 14.790,66 5.916,26 0,00 10.353,46 0,00 0,00 0,00 2.319,39 33.379,77 2.277,76 4.094,38 0,00 0,00 6.372,14 27.007,63 30/06/2020
1024 207800 FRANCISCO CAMPOS PIRES DE MORAIS ANALISTA DO MP BELO HORIZONTE - COMARCA; CENTRAL DE APOIO TECN-SETOR DE MEIO AMBIENTE 18.820,14 7.528,06 0,00 13.174,10 0,00 0,00 0,00 1.550,00 41.072,30 2.898,30 5.527,23 0,00 0,00 8.425,53 32.646,77 30/06/2020
1025 204600 FRANCISCO FERREIRA NOVAIS OFICIAL DO MP IPATINGA - COMARCA; IPATINGA-PJ-08PJ 12.204,02 4.881,61 0,00 8.542,82 0,00 0,00 0,00 1.550,00 27.178,45 1.879,42 3.208,07 0,00 0,00 5.087,49 22.090,96 30/06/2020
1026 411600 FRANCISCO PAIVA BRITO ANALISTA DO MP BELO HORIZONTE - COMARCA; BH-07PJ 01 TRIBUNAL JURI-SECRETARIA 10.069,62 2.013,92 0,00 6.041,77 0,00 0,00 0,00 1.550,00 19.675,31 1.329,19 2.088,09 0,00 0,00 3.417,28 16.258,03 30/06/2020
1027 515800 FRANCISCO RAFAEL DA SILVA NETO ANALISTA DO MP SACRAMENTO - COMARCA; SACRAMENTO-PJ-01PJ 8.579,10 857,91 0,00 4.718,51 0,00 0,00 0,00 1.550,00 15.705,52 1.038,07 1.336,07 0,00 0,00 2.374,14 13.331,38 30/06/2020
1028 515200 FRANCISLEI ELIAS GONCALVES OFICIAL DO MP PASSOS - COMARCA; PASSOS-PJ-07PJ 6.123,79 1.837,14 0,00 3.980,47 0,00 0,00 0,00 1.550,00 13.491,40 875,70 922,67 0,00 0,00 1.798,37 11.693,03 30/06/2020
1029 443600 FRANCISLEI MARTINS DE SOUSA ANALISTA DO MP TIMÓTEO - COMARCA; TIMOTEO-PJ-01PJ 10.069,62 2.013,92 0,00 6.041,77 0,00 0,00 0,00 3.088,78 21.214,09 1.329,19 2.088,09 0,00 0,00 3.417,28 17.796,81 30/06/2020
1030 424500 FREDERICO AUGUSTO COBRA MULLER ANALISTA DO MP POUSO ALEGRE - COMARCA; POUSO ALEGRE-PJ-06PJ 10.397,52 2.079,50 0,00 4.460,07 0,00 0,00 0,00 1.550,00 18.487,09 1.372,47 2.184,39 0,00 0,00 3.556,86 14.930,23 30/06/2020
1031 473100 FREDERICO AUGUSTO LIMA FELICIO ANALISTA DO MP CONCEIÇÃO DO MATO DENTRO - COMARCA; CONCEICAO DO MATO DENTRO-PJ-UNPJ 10.069,62 1.006,96 0,00 5.538,29 0,00 0,00 0,00 1.550,00 18.164,87 1.218,42 1.841,63 0,00 0,00 3.060,05 15.104,82 30/06/2020
1032 124200 FREDERICO DE SOUZA ROCHA OFICIAL DO MP ESPINOSA - COMARCA; ESPINOSA-PJ-SECRETARIA 16.112,82 14.501,54 0,00 15.307,18 0,00 3.634,26 336,76 5.361,50 55.254,06 3.367,58 7.445,31 0,00 0,00 10.812,89 44.441,17 30/06/2020
1033 177100 FREDERICO FERNANDES DE ANDRADE OFICIAL DO MP BELO HORIZONTE - COMARCA; SUPERINTENDENCIA DE TECNOLOGIA DA INFORMACAO 12.601,30 5.040,52 0,00 8.820,91 0,00 0,00 0,00 1.550,00 28.012,73 1.940,60 3.448,48 0,00 0,00 5.389,08 22.623,65 30/06/2020
1034 456200 FREDERICO FERNANDES PASSOS ANALISTA DO MP BELO HORIZONTE - COMARCA; DIRETORIA DE REDES E BANCOS DE DADOS 12.204,02 1.220,40 0,00 6.712,21 0,00 0,00 0,00 2.319,39 22.456,02 1.476,69 2.416,27 0,00 0,00 3.892,96 18.563,06 30/06/2020
1035 400900 FREDERICO LUCIANO BORGES REIS ANALISTA DO MP BELO HORIZONTE - COMARCA; DIRETORIA DE SISTEMAS DE INFORMACAO 12.601,30 2.520,26 0,00 7.560,78 0,00 0,00 0,00 2.319,39 25.001,73 1.663,37 2.727,37 0,00 0,00 4.390,74 20.610,99 30/06/2020
1036 466200 FREDERICO LUIS FERNANDES ANALISTA DO MP BELO HORIZONTE - COMARCA; BH-12PJ JUIZO CRIMINAL-GAB 097PJ 10.069,62 1.006,96 0,00 5.538,29 0,00 0,00 0,00 1.550,00 18.164,87 1.218,42 1.789,50 0,00 0,00 3.007,92 15.156,95 30/06/2020
1037 419700 FREDERICO MECKLER SANTOS ANALISTA DO MP CLÁUDIO - COMARCA; CLAUDIO-PJ-UNPJ 12.204,02 2.440,80 0,00 7.322,41 0,00 0,00 0,00 1.550,00 23.517,23 1.610,93 2.662,82 0,00 0,00 4.273,75 19.243,48 30/06/2020
1038 621700 GABRIEL ANDRADE SOUZA GROSSI RIBEIRO OFICIAL DO MP BETIM - COMARCA; BETIM-PJ-SECRETARIA 4.817,57 481,76 0,00 2.649,67 0,00 0,00 0,00 1.550,00 9.499,00 582,93 427,65 0,00 0,00 1.010,58 8.488,42 30/06/2020
1039 613600 GABRIEL BASTOS MEIRELES ANALISTA DO MP BELO HORIZONTE - COMARCA; BH-16PJ HABITACAO URBANISMO-GAB 117PJ 7.421,79 742,18 0,00 4.081,99 0,00 0,00 0,00 1.100,00 13.345,96 898,04 1.128,77 0,00 0,00 2.026,81 11.319,15 30/06/2020
1040 617900 GABRIELA CIRILA ROQUE ANALISTA DO MP ITABIRA - COMARCA; ITABIRA-PJ-04PJ 8.170,49 817,05 0,00 4.493,77 0,00 0,00 0,00 2.319,39 15.800,70 988,63 1.330,34 0,00 0,00 2.318,97 13.481,73 30/06/2020
1041 386800 GABRIELA SIMOES CHAVES ANALISTA DO MP BELO HORIZONTE - COMARCA; DIRETORIA GESTAO COMPRAS LICITACOES 13.011,52 2.602,30 0,00 7.806,91 0,00 0,00 0,00 3.088,78 26.509,51 1.717,52 2.952,12 0,00 0,00 4.669,64 21.839,87 30/06/2020
1042 248600 GABRIELA TERESA DIAS DE MORAIS ANALISTA DO MP BELO HORIZONTE - COMARCA; ASSESS TECNICO-JUR JUNTO AS PROC. DE JUST 18.820,14 5.646,04 0,00 12.233,09 0,00 0,00 0,00 1.550,00 38.249,27 2.691,28 5.118,74 0,00 0,00 7.810,02 30.439,25 30/06/2020
1043 449700 GABRIELE COSTA FERREIRA OFICIAL DO MP BELO HORIZONTE - COMARCA; DIRETORIA DE ADMINISTRACAO FINANCE